Wetterdaten: Donnerstag, 26.05.2016
Datum Zeit Temp. A. Feuchte A. Luftdruck Regen Wind Richtung Richtung Sonnenschein ET UV Solar Taupunkt Windchill Windben Empfang
26.05.2016 00:00 12,3 C 94 % 1014,2 hPa 0,0 l/m 1,9 km/h (1 Bft) S 186 0 min 0,000 mm 0,0 UV-I 0 W/m 11,4 C 12,3 C 3,2 km/h (1 Bft) 100,00 %
26.05.2016 00:02 12,2 C 94 % 1014,2 hPa 0,0 l/m 2,6 km/h (1 Bft) S 182 0 min 0,000 mm 0,0 UV-I 0 W/m 11,3 C 12,2 C 4,8 km/h (1 Bft) 97,14 %
26.05.2016 00:03 12,3 C 94 % 1014,2 hPa 0,0 l/m 2,0 km/h (1 Bft) S 180 0 min 0,000 mm 0,0 UV-I 0 W/m 11,4 C 12,3 C 3,2 km/h (1 Bft) 100,00 %
26.05.2016 00:04 12,3 C 94 % 1014,2 hPa 0,0 l/m 3,9 km/h (1 Bft) S 176 0 min 0,000 mm 0,0 UV-I 0 W/m 11,4 C 12,3 C 6,4 km/h (2 Bft) 100,00 %
26.05.2016 00:05 12,3 C 94 % 1014,2 hPa 0,0 l/m 4,0 km/h (1 Bft) S 175 0 min 0,000 mm 0,0 UV-I 0 W/m 11,4 C 12,3 C 4,8 km/h (1 Bft) 100,00 %
26.05.2016 00:06 12,3 C 94 % 1014,2 hPa 0,0 l/m 4,3 km/h (1 Bft) S 175 0 min 0,000 mm 0,0 UV-I 0 W/m 11,4 C 12,3 C 6,4 km/h (2 Bft) 100,00 %
26.05.2016 00:07 12,3 C 94 % 1014,2 hPa 0,0 l/m 4,0 km/h (1 Bft) S 175 0 min 0,000 mm 0,0 UV-I 0 W/m 11,4 C 12,3 C 4,8 km/h (1 Bft) 95,83 %
26.05.2016 00:08 12,3 C 94 % 1014,2 hPa 0,0 l/m 3,8 km/h (1 Bft) S 175 0 min 0,000 mm 0,0 UV-I 0 W/m 11,4 C 12,3 C 4,8 km/h (1 Bft) 100,00 %
26.05.2016 00:09 12,3 C 94 % 1014,2 hPa 0,0 l/m 2,5 km/h (1 Bft) S 175 0 min 0,000 mm 0,0 UV-I 0 W/m 11,4 C 12,3 C 3,2 km/h (1 Bft) 100,00 %
26.05.2016 00:10 12,3 C 94 % 1014,2 hPa 0,0 l/m 3,9 km/h (1 Bft) S 175 0 min 0,000 mm 0,0 UV-I 0 W/m 11,4 C 12,3 C 4,8 km/h (1 Bft) 96,30 %
26.05.2016 00:11 12,3 C 94 % 1014,2 hPa 0,0 l/m 2,8 km/h (1 Bft) S 175 0 min 0,000 mm 0,0 UV-I 0 W/m 11,4 C 12,3 C 4,8 km/h (1 Bft) 100,00 %
26.05.2016 00:12 12,3 C 94 % 1014,2 hPa 0,0 l/m 2,7 km/h (1 Bft) S 175 0 min 0,000 mm 0,0 UV-I 0 W/m 11,4 C 12,3 C 4,8 km/h (1 Bft) 100,00 %
26.05.2016 00:13 12,2 C 94 % 1014,2 hPa 0,0 l/m 1,2 km/h (1 Bft) S 175 0 min 0,000 mm 0,0 UV-I 0 W/m 11,3 C 12,2 C 3,2 km/h (1 Bft) 100,00 %
26.05.2016 00:14 12,2 C 94 % 1014,2 hPa 0,0 l/m 1,5 km/h (1 Bft) S 175 0 min 0,000 mm 0,0 UV-I 0 W/m 11,3 C 12,2 C 3,2 km/h (1 Bft) 100,00 %
26.05.2016 00:15 12,2 C 94 % 1014,2 hPa 0,0 l/m 1,3 km/h (1 Bft) S 175 0 min 0,000 mm 0,0 UV-I 0 W/m 11,3 C 12,2 C 3,2 km/h (1 Bft) 100,00 %
26.05.2016 00:16 12,2 C 94 % 1014,2 hPa 0,0 l/m 1,8 km/h (1 Bft) S 175 0 min 0,000 mm 0,0 UV-I 0 W/m 11,3 C 12,2 C 3,2 km/h (1 Bft) 100,00 %
26.05.2016 00:17 12,2 C 94 % 1014,2 hPa 0,0 l/m 0,7 km/h (0 Bft) S 175 0 min 0,000 mm 0,0 UV-I 0 W/m 11,3 C 12,2 C 1,6 km/h (1 Bft) 100,00 %
26.05.2016 00:18 12,2 C 94 % 1014,1 hPa 0,0 l/m 1,1 km/h (1 Bft) S 175 0 min 0,000 mm 0,0 UV-I 0 W/m 11,3 C 12,2 C 1,6 km/h (1 Bft) 100,00 %
26.05.2016 00:19 12,2 C 95 % 1014,1 hPa 0,0 l/m 1,2 km/h (1 Bft) S 175 0 min 0,000 mm 0,0 UV-I 0 W/m 11,4 C 12,2 C 1,6 km/h (1 Bft) 100,00 %
26.05.2016 00:20 12,2 C 94 % 1014,2 hPa 0,0 l/m 3,0 km/h (1 Bft) S 175 0 min 0,000 mm 0,0 UV-I 0 W/m 11,3 C 12,2 C 4,8 km/h (1 Bft) 100,00 %
26.05.2016 00:21 12,2 C 94 % 1014,2 hPa 0,0 l/m 2,6 km/h (1 Bft) S 175 0 min 0,000 mm 0,0 UV-I 0 W/m 11,3 C 12,2 C 4,8 km/h (1 Bft) 100,00 %
26.05.2016 00:22 12,2 C 95 % 1014,2 hPa 0,0 l/m 3,2 km/h (1 Bft) S 175 0 min 0,000 mm 0,0 UV-I 0 W/m 11,4 C 12,2 C 4,8 km/h (1 Bft) 100,00 %
26.05.2016 00:23 12,2 C 94 % 1014,3 hPa 0,0 l/m 3,5 km/h (1 Bft) S 175 0 min 0,000 mm 0,0 UV-I 0 W/m 11,3 C 12,2 C 4,8 km/h (1 Bft) 100,00 %
26.05.2016 00:24 12,3 C 94 % 1014,3 hPa 0,0 l/m 3,4 km/h (1 Bft) S 175 0 min 0,000 mm 0,0 UV-I 0 W/m 11,4 C 12,3 C 4,8 km/h (1 Bft) 100,00 %
26.05.2016 00:25 12,3 C 94 % 1014,3 hPa 0,0 l/m 2,6 km/h (1 Bft) S 175 0 min 0,000 mm 0,0 UV-I 0 W/m 11,4 C 12,3 C 3,2 km/h (1 Bft) 100,00 %
26.05.2016 00:26 12,3 C 94 % 1014,3 hPa 0,0 l/m 2,9 km/h (1 Bft) S 175 0 min 0,000 mm 0,0 UV-I 0 W/m 11,4 C 12,3 C 4,8 km/h (1 Bft) 100,00 %
26.05.2016 00:27 12,3 C 94 % 1014,3 hPa 0,0 l/m 2,3 km/h (1 Bft) S 175 0 min 0,000 mm 0,0 UV-I 0 W/m 11,4 C 12,3 C 3,2 km/h (1 Bft) 100,00 %
26.05.2016 00:28 12,3 C 94 % 1014,3 hPa 0,0 l/m 1,5 km/h (1 Bft) S 175 0 min 0,000 mm 0,0 UV-I 0 W/m 11,4 C 12,3 C 3,2 km/h (1 Bft) 100,00 %
26.05.2016 00:29 12,3 C 94 % 1014,3 hPa 0,0 l/m 2,1 km/h (1 Bft) S 175 0 min 0,000 mm 0,0 UV-I 0 W/m 11,4 C 12,3 C 4,8 km/h (1 Bft) 95,65 %
26.05.2016 00:30 12,2 C 94 % 1014,3 hPa 0,0 l/m 1,5 km/h (1 Bft) S 175 0 min 0,000 mm 0,0 UV-I 0 W/m 11,3 C 12,2 C 3,2 km/h (1 Bft) 100,00 %
26.05.2016 00:31 12,2 C 94 % 1014,3 hPa 0,0 l/m 1,3 km/h (1 Bft) S 175 0 min 0,000 mm 0,0 UV-I 0 W/m 11,3 C 12,2 C 3,2 km/h (1 Bft) 100,00 %
26.05.2016 00:32 12,2 C 94 % 1014,3 hPa 0,0 l/m 3,0 km/h (1 Bft) S 175 0 min 0,000 mm 0,0 UV-I 0 W/m 11,3 C 12,2 C 4,8 km/h (1 Bft) 100,00 %
26.05.2016 00:33 12,2 C 94 % 1014,3 hPa 0,0 l/m 4,0 km/h (1 Bft) S 186 0 min 0,000 mm 0,0 UV-I 0 W/m 11,3 C 12,2 C 6,4 km/h (2 Bft) 100,00 %
26.05.2016 00:34 12,1 C 94 % 1014,3 hPa 0,0 l/m 5,2 km/h (1 Bft) S 177 0 min 0,000 mm 0,0 UV-I 0 W/m 11,2 C 12,1 C 6,4 km/h (2 Bft) 100,00 %
26.05.2016 00:35 12,1 C 94 % 1014,3 hPa 0,0 l/m 4,8 km/h (1 Bft) S 177 0 min 0,000 mm 0,0 UV-I 0 W/m 11,2 C 12,1 C 6,4 km/h (2 Bft) 100,00 %
26.05.2016 00:36 12,2 C 94 % 1014,3 hPa 0,0 l/m 3,8 km/h (1 Bft) S 177 0 min 0,000 mm 0,0 UV-I 0 W/m 11,3 C 12,2 C 4,8 km/h (1 Bft) 96,30 %
26.05.2016 00:37 12,2 C 94 % 1014,3 hPa 0,0 l/m 3,9 km/h (1 Bft) S 177 0 min 0,000 mm 0,0 UV-I 0 W/m 11,3 C 12,2 C 4,8 km/h (1 Bft) 100,00 %
26.05.2016 00:38 12,2 C 94 % 1014,3 hPa 0,0 l/m 4,4 km/h (1 Bft) S 177 0 min 0,000 mm 0,0 UV-I 0 W/m 11,3 C 12,2 C 6,4 km/h (2 Bft) 100,00 %
26.05.2016 00:39 12,2 C 95 % 1014,3 hPa 0,0 l/m 3,1 km/h (1 Bft) S 175 0 min 0,000 mm 0,0 UV-I 0 W/m 11,4 C 12,2 C 4,8 km/h (1 Bft) 100,00 %
26.05.2016 00:40 12,2 C 95 % 1014,3 hPa 0,0 l/m 4,9 km/h (1 Bft) S 175 0 min 0,000 mm 0,0 UV-I 0 W/m 11,4 C 12,2 C 6,4 km/h (2 Bft) 100,00 %
26.05.2016 00:41 12,2 C 95 % 1014,3 hPa 0,0 l/m 3,2 km/h (1 Bft) S 175 0 min 0,000 mm 0,0 UV-I 0 W/m 11,4 C 12,2 C 6,4 km/h (2 Bft) 100,00 %
26.05.2016 00:42 12,2 C 94 % 1014,3 hPa 0,0 l/m 3,0 km/h (1 Bft) S 173 0 min 0,000 mm 0,0 UV-I 0 W/m 11,3 C 12,2 C 4,8 km/h (1 Bft) 100,00 %
26.05.2016 00:43 12,2 C 94 % 1014,4 hPa 0,0 l/m 2,7 km/h (1 Bft) S 173 0 min 0,000 mm 0,0 UV-I 0 W/m 11,3 C 12,2 C 4,8 km/h (1 Bft) 96,15 %
26.05.2016 00:44 12,2 C 94 % 1014,3 hPa 0,0 l/m 3,3 km/h (1 Bft) S 177 0 min 0,000 mm 0,0 UV-I 0 W/m 11,3 C 12,2 C 4,8 km/h (1 Bft) 95,83 %
26.05.2016 00:45 12,2 C 94 % 1014,3 hPa 0,0 l/m 4,1 km/h (1 Bft) S 172 0 min 0,000 mm 0,0 UV-I 0 W/m 11,3 C 12,2 C 8,0 km/h (2 Bft) 100,00 %
26.05.2016 00:46 12,2 C 94 % 1014,4 hPa 0,0 l/m 5,2 km/h (1 Bft) S 171 0 min 0,000 mm 0,0 UV-I 0 W/m 11,3 C 12,2 C 8,0 km/h (2 Bft) 96,30 %
26.05.2016 00:47 12,2 C 94 % 1014,4 hPa 0,0 l/m 6,5 km/h (2 Bft) S 182 0 min 0,000 mm 0,0 UV-I 0 W/m 11,3 C 12,2 C 9,7 km/h (2 Bft) 100,00 %
26.05.2016 00:48 12,2 C 94 % 1014,3 hPa 0,0 l/m 4,7 km/h (1 Bft) S-SW 205 0 min 0,000 mm 0,0 UV-I 0 W/m 11,3 C 12,2 C 6,4 km/h (2 Bft) 92,31 %
26.05.2016 00:49 12,2 C 94 % 1014,4 hPa 0,0 l/m 4,9 km/h (1 Bft) S-SW 200 0 min 0,000 mm 0,0 UV-I 0 W/m 11,3 C 12,2 C 6,4 km/h (2 Bft) 100,00 %
26.05.2016 00:50 12,1 C 94 % 1014,4 hPa 0,0 l/m 4,6 km/h (1 Bft) S-SW 193 0 min 0,000 mm 0,0 UV-I 0 W/m 11,2 C 12,1 C 6,4 km/h (2 Bft) 96,55 %
26.05.2016 00:51 12,1 C 94 % 1014,3 hPa 0,0 l/m 5,6 km/h (1 Bft) S 184 0 min 0,000 mm 0,0 UV-I 0 W/m 11,2 C 12,1 C 8,0 km/h (2 Bft) 100,00 %
26.05.2016 00:52 12,1 C 94 % 1014,3 hPa 0,0 l/m 4,7 km/h (1 Bft) S 182 0 min 0,000 mm 0,0 UV-I 0 W/m 11,2 C 12,1 C 6,4 km/h (2 Bft) 96,15 %
26.05.2016 00:53 12,1 C 94 % 1014,3 hPa 0,0 l/m 5,3 km/h (1 Bft) S-SW 202 0 min 0,000 mm 0,0 UV-I 0 W/m 11,2 C 12,1 C 6,4 km/h (2 Bft) 95,83 %
26.05.2016 00:54 12,0 C 94 % 1014,4 hPa 0,0 l/m 5,1 km/h (1 Bft) S-SW 198 0 min 0,000 mm 0,0 UV-I 0 W/m 11,1 C 12,0 C 6,4 km/h (2 Bft) 100,00 %
26.05.2016 00:55 12,0 C 94 % 1014,4 hPa 0,0 l/m 5,6 km/h (1 Bft) S-SW 194 0 min 0,000 mm 0,0 UV-I 0 W/m 11,1 C 12,0 C 6,4 km/h (2 Bft) 95,83 %
26.05.2016 00:56 11,9 C 94 % 1014,4 hPa 0,0 l/m 5,3 km/h (1 Bft) S-SW 200 0 min 0,000 mm 0,0 UV-I 0 W/m 11,0 C 11,9 C 6,4 km/h (2 Bft) 100,00 %
26.05.2016 00:57 11,9 C 94 % 1014,4 hPa 0,0 l/m 4,3 km/h (1 Bft) S-SW 196 0 min 0,000 mm 0,0 UV-I 0 W/m 11,0 C 11,9 C 6,4 km/h (2 Bft) 95,83 %
26.05.2016 00:58 11,9 C 94 % 1014,3 hPa 0,0 l/m 3,6 km/h (1 Bft) S-SW 196 0 min 0,000 mm 0,0 UV-I 0 W/m 11,0 C 11,9 C 4,8 km/h (1 Bft) 100,00 %
26.05.2016 00:59 11,9 C 94 % 1014,4 hPa 0,0 l/m 3,8 km/h (1 Bft) S-SW 196 0 min 0,000 mm 0,0 UV-I 0 W/m 11,0 C 11,9 C 4,8 km/h (1 Bft) 95,83 %
26.05.2016 01:00 11,8 C 94 % 1014,4 hPa 0,0 l/m 4,7 km/h (1 Bft) S-SW 193 0 min 0,000 mm 0,0 UV-I 0 W/m 10,9 C 11,8 C 6,4 km/h (2 Bft) 92,31 %
26.05.2016 01:02 11,8 C 94 % 1014,3 hPa 0,0 l/m 3,3 km/h (1 Bft) S-SW 193 0 min 0,000 mm 0,0 UV-I 0 W/m 10,9 C 11,8 C 4,8 km/h (1 Bft) 97,87 %
26.05.2016 01:03 11,8 C 95 % 1014,4 hPa 0,0 l/m 3,8 km/h (1 Bft) S-SW 192 0 min 0,000 mm 0,0 UV-I 0 W/m 11,0 C 11,8 C 6,4 km/h (2 Bft) 96,30 %
26.05.2016 01:04 11,8 C 95 % 1014,4 hPa 0,0 l/m 4,1 km/h (1 Bft) S 186 0 min 0,000 mm 0,0 UV-I 0 W/m 11,0 C 11,8 C 4,8 km/h (1 Bft) 92,86 %
26.05.2016 01:05 11,8 C 95 % 1014,3 hPa 0,0 l/m 4,4 km/h (1 Bft) S 176 0 min 0,000 mm 0,0 UV-I 0 W/m 11,0 C 11,8 C 6,4 km/h (2 Bft) 100,00 %
26.05.2016 01:06 11,8 C 95 % 1014,3 hPa 0,0 l/m 4,2 km/h (1 Bft) S 182 0 min 0,000 mm 0,0 UV-I 0 W/m 11,0 C 11,8 C 6,4 km/h (2 Bft) 96,15 %
26.05.2016 01:07 11,9 C 95 % 1014,3 hPa 0,0 l/m 3,8 km/h (1 Bft) S 182 0 min 0,000 mm 0,0 UV-I 0 W/m 11,1 C 11,9 C 4,8 km/h (1 Bft) 100,00 %
26.05.2016 01:08 11,9 C 95 % 1014,3 hPa 0,0 l/m 3,2 km/h (1 Bft) S 182 0 min 0,000 mm 0,0 UV-I 0 W/m 11,1 C 11,9 C 4,8 km/h (1 Bft) 92,59 %
26.05.2016 01:09 11,9 C 95 % 1014,3 hPa 0,0 l/m 3,1 km/h (1 Bft) S 182 0 min 0,000 mm 0,0 UV-I 0 W/m 11,1 C 11,9 C 4,8 km/h (1 Bft) 95,65 %
26.05.2016 01:10 11,9 C 95 % 1014,3 hPa 0,0 l/m 3,5 km/h (1 Bft) S 182 0 min 0,000 mm 0,0 UV-I 0 W/m 11,1 C 11,9 C 6,4 km/h (2 Bft) 100,00 %
26.05.2016 01:11 11,9 C 95 % 1014,3 hPa 0,0 l/m 4,2 km/h (1 Bft) S 182 0 min 0,000 mm 0,0 UV-I 0 W/m 11,1 C 11,9 C 6,4 km/h (2 Bft) 97,56 %
26.05.2016 01:12 11,9 C 95 % 1014,3 hPa 0,0 l/m 4,1 km/h (1 Bft) S 182 0 min 0,000 mm 0,0 UV-I 0 W/m 11,1 C 11,9 C 4,8 km/h (1 Bft) 100,00 %
26.05.2016 01:13 11,9 C 95 % 1014,3 hPa 0,0 l/m 4,6 km/h (1 Bft) S 183 0 min 0,000 mm 0,0 UV-I 0 W/m 11,1 C 11,9 C 4,8 km/h (1 Bft) 95,65 %
26.05.2016 01:14 11,9 C 95 % 1014,3 hPa 0,0 l/m 4,3 km/h (1 Bft) S-SW 192 0 min 0,000 mm 0,0 UV-I 0 W/m 11,1 C 11,9 C 6,4 km/h (2 Bft) 100,00 %
26.05.2016 01:15 11,9 C 95 % 1014,3 hPa 0,0 l/m 4,7 km/h (1 Bft) S-SW 194 0 min 0,000 mm 0,0 UV-I 0 W/m 11,1 C 11,9 C 6,4 km/h (2 Bft) 95,65 %
26.05.2016 01:16 11,9 C 95 % 1014,3 hPa 0,0 l/m 3,9 km/h (1 Bft) S-SW 192 0 min 0,000 mm 0,0 UV-I 0 W/m 11,1 C 11,9 C 4,8 km/h (1 Bft) 95,83 %
26.05.2016 01:17 11,9 C 94 % 1014,3 hPa 0,0 l/m 5,3 km/h (1 Bft) S-SW 192 0 min 0,000 mm 0,0 UV-I 0 W/m 11,0 C 11,9 C 6,4 km/h (2 Bft) 100,00 %
26.05.2016 01:18 11,9 C 95 % 1014,3 hPa 0,0 l/m 5,3 km/h (1 Bft) S-SW 192 0 min 0,000 mm 0,0 UV-I 0 W/m 11,1 C 11,9 C 8,0 km/h (2 Bft) 100,00 %
26.05.2016 01:19 11,8 C 95 % 1014,3 hPa 0,0 l/m 4,6 km/h (1 Bft) S-SW 192 0 min 0,000 mm 0,0 UV-I 0 W/m 11,0 C 11,8 C 6,4 km/h (2 Bft) 100,00 %
26.05.2016 01:20 11,8 C 95 % 1014,3 hPa 0,0 l/m 4,8 km/h (1 Bft) S 188 0 min 0,000 mm 0,0 UV-I 0 W/m 11,0 C 11,8 C 6,4 km/h (2 Bft) 100,00 %
26.05.2016 01:21 11,8 C 95 % 1014,2 hPa 0,0 l/m 4,5 km/h (1 Bft) S-SW 195 0 min 0,000 mm 0,0 UV-I 0 W/m 11,0 C 11,8 C 6,4 km/h (2 Bft) 100,00 %
26.05.2016 01:22 11,8 C 95 % 1014,2 hPa 0,0 l/m 3,6 km/h (1 Bft) S 190 0 min 0,000 mm 0,0 UV-I 0 W/m 11,0 C 11,8 C 4,8 km/h (1 Bft) 100,00 %
26.05.2016 01:23 11,8 C 95 % 1014,3 hPa 0,0 l/m 4,1 km/h (1 Bft) S 190 0 min 0,000 mm 0,0 UV-I 0 W/m 11,0 C 11,8 C 4,8 km/h (1 Bft) 96,15 %
26.05.2016 01:24 11,8 C 95 % 1014,2 hPa 0,0 l/m 3,1 km/h (1 Bft) S 189 0 min 0,000 mm 0,0 UV-I 0 W/m 11,0 C 11,8 C 6,4 km/h (2 Bft) 100,00 %
26.05.2016 01:25 11,8 C 95 % 1014,3 hPa 0,0 l/m 3,1 km/h (1 Bft) S 189 0 min 0,000 mm 0,0 UV-I 0 W/m 11,0 C 11,8 C 4,8 km/h (1 Bft) 95,65 %
26.05.2016 01:26 11,8 C 95 % 1014,3 hPa 0,0 l/m 3,8 km/h (1 Bft) S 188 0 min 0,000 mm 0,0 UV-I 0 W/m 11,0 C 11,8 C 4,8 km/h (1 Bft) 95,83 %
26.05.2016 01:27 11,8 C 95 % 1014,3 hPa 0,0 l/m 5,4 km/h (1 Bft) S 182 0 min 0,000 mm 0,0 UV-I 0 W/m 11,0 C 11,8 C 8,0 km/h (2 Bft) 100,00 %
26.05.2016 01:28 11,8 C 95 % 1014,3 hPa 0,0 l/m 4,8 km/h (1 Bft) S 182 0 min 0,000 mm 0,0 UV-I 0 W/m 11,0 C 11,8 C 6,4 km/h (2 Bft) 100,00 %
26.05.2016 01:29 11,8 C 95 % 1014,3 hPa 0,0 l/m 3,8 km/h (1 Bft) S 187 0 min 0,000 mm 0,0 UV-I 0 W/m 11,0 C 11,8 C 6,4 km/h (2 Bft) 100,00 %
26.05.2016 01:30 11,8 C 95 % 1014,3 hPa 0,0 l/m 4,3 km/h (1 Bft) S 191 0 min 0,000 mm 0,0 UV-I 0 W/m 11,0 C 11,8 C 6,4 km/h (2 Bft) 96,88 %
26.05.2016 01:31 11,8 C 95 % 1014,3 hPa 0,0 l/m 5,3 km/h (1 Bft) S-SO 167 0 min 0,000 mm 0,0 UV-I 0 W/m 11,0 C 11,8 C 6,4 km/h (2 Bft) 96,15 %
26.05.2016 01:32 11,8 C 95 % 1014,3 hPa 0,0 l/m 6,9 km/h (2 Bft) S 184 0 min 0,000 mm 0,0 UV-I 0 W/m 11,0 C 11,5 C 8,0 km/h (2 Bft) 100,00 %
26.05.2016 01:33 11,8 C 95 % 1014,3 hPa 0,0 l/m 5,6 km/h (1 Bft) S 183 0 min 0,000 mm 0,0 UV-I 0 W/m 11,0 C 11,8 C 9,7 km/h (2 Bft) 100,00 %
26.05.2016 01:34 11,8 C 95 % 1014,3 hPa 0,0 l/m 6,3 km/h (2 Bft) S 180 0 min 0,000 mm 0,0 UV-I 0 W/m 11,0 C 11,8 C 8,0 km/h (2 Bft) 100,00 %
26.05.2016 01:35 11,8 C 95 % 1014,3 hPa 0,0 l/m 5,6 km/h (1 Bft) S 181 0 min 0,000 mm 0,0 UV-I 0 W/m 11,0 C 11,8 C 6,4 km/h (2 Bft) 100,00 %
26.05.2016 01:36 11,8 C 95 % 1014,4 hPa 0,0 l/m 5,5 km/h (1 Bft) S 182 0 min 0,000 mm 0,0 UV-I 0 W/m 11,0 C 11,8 C 6,4 km/h (2 Bft) 100,00 %
26.05.2016 01:37 11,8 C 95 % 1014,3 hPa 0,0 l/m 5,7 km/h (1 Bft) S 186 0 min 0,000 mm 0,0 UV-I 0 W/m 11,0 C 11,8 C 8,0 km/h (2 Bft) 96,30 %
26.05.2016 01:38 11,8 C 95 % 1014,4 hPa 0,0 l/m 5,4 km/h (1 Bft) S 182 0 min 0,000 mm 0,0 UV-I 0 W/m 11,0 C 11,8 C 6,4 km/h (2 Bft) 100,00 %
26.05.2016 01:39 11,8 C 95 % 1014,4 hPa 0,0 l/m 5,3 km/h (1 Bft) S 185 0 min 0,000 mm 0,0 UV-I 0 W/m 11,0 C 11,8 C 8,0 km/h (2 Bft) 100,00 %
26.05.2016 01:40 11,8 C 95 % 1014,4 hPa 0,0 l/m 5,4 km/h (1 Bft) S 179 0 min 0,000 mm 0,0 UV-I 0 W/m 11,0 C 11,8 C 6,4 km/h (2 Bft) 100,00 %
26.05.2016 01:41 11,8 C 95 % 1014,4 hPa 0,0 l/m 4,8 km/h (1 Bft) S 175 0 min 0,000 mm 0,0 UV-I 0 W/m 11,0 C 11,8 C 6,4 km/h (2 Bft) 100,00 %
26.05.2016 01:42 11,8 C 95 % 1014,4 hPa 0,0 l/m 4,5 km/h (1 Bft) S 182 0 min 0,000 mm 0,0 UV-I 0 W/m 11,0 C 11,8 C 6,4 km/h (2 Bft) 100,00 %
26.05.2016 01:43 11,8 C 95 % 1014,4 hPa 0,0 l/m 5,1 km/h (1 Bft) S 180 0 min 0,000 mm 0,0 UV-I 0 W/m 11,0 C 11,8 C 6,4 km/h (2 Bft) 100,00 %
26.05.2016 01:44 11,8 C 95 % 1014,4 hPa 0,0 l/m 5,1 km/h (1 Bft) S 175 0 min 0,000 mm 0,0 UV-I 0 W/m 11,0 C 11,8 C 6,4 km/h (2 Bft) 100,00 %
26.05.2016 01:45 11,8 C 95 % 1014,4 hPa 0,0 l/m 5,2 km/h (1 Bft) S 190 0 min 0,000 mm 0,0 UV-I 0 W/m 11,0 C 11,8 C 6,4 km/h (2 Bft) 100,00 %
26.05.2016 01:46 11,8 C 95 % 1014,4 hPa 0,0 l/m 4,8 km/h (1 Bft) S 184 0 min 0,000 mm 0,0 UV-I 0 W/m 11,0 C 11,8 C 6,4 km/h (2 Bft) 95,83 %
26.05.2016 01:47 11,8 C 95 % 1014,4 hPa 0,0 l/m 4,8 km/h (1 Bft) S 186 0 min 0,000 mm 0,0 UV-I 0 W/m 11,0 C 11,8 C 6,4 km/h (2 Bft) 100,00 %
26.05.2016 01:48 11,8 C 95 % 1014,4 hPa 0,0 l/m 5,6 km/h (1 Bft) S 182 0 min 0,000 mm 0,0 UV-I 0 W/m 11,0 C 11,8 C 6,4 km/h (2 Bft) 96,55 %
26.05.2016 01:49 11,8 C 95 % 1014,4 hPa 0,0 l/m 5,0 km/h (1 Bft) S 189 0 min 0,000 mm 0,0 UV-I 0 W/m 11,0 C 11,8 C 6,4 km/h (2 Bft) 95,83 %
26.05.2016 01:50 11,8 C 95 % 1014,4 hPa 0,0 l/m 4,9 km/h (1 Bft) S 190 0 min 0,000 mm 0,0 UV-I 0 W/m 11,0 C 11,8 C 6,4 km/h (2 Bft) 100,00 %
26.05.2016 01:51 11,7 C 95 % 1014,4 hPa 0,0 l/m 4,2 km/h (1 Bft) S 184 0 min 0,000 mm 0,0 UV-I 0 W/m 10,9 C 11,7 C 6,4 km/h (2 Bft) 100,00 %
26.05.2016 01:52 11,7 C 95 % 1014,4 hPa 0,0 l/m 4,0 km/h (1 Bft) S 184 0 min 0,000 mm 0,0 UV-I 0 W/m 10,9 C 11,7 C 6,4 km/h (2 Bft) 100,00 %
26.05.2016 01:53 11,7 C 95 % 1014,3 hPa 0,0 l/m 4,6 km/h (1 Bft) S 184 0 min 0,000 mm 0,0 UV-I 0 W/m 10,9 C 11,7 C 6,4 km/h (2 Bft) 100,00 %
26.05.2016 01:54 11,7 C 95 % 1014,4 hPa 0,0 l/m 3,3 km/h (1 Bft) S 184 0 min 0,000 mm 0,0 UV-I 0 W/m 10,9 C 11,7 C 4,8 km/h (1 Bft) 100,00 %
26.05.2016 01:55 11,7 C 95 % 1014,4 hPa 0,0 l/m 4,9 km/h (1 Bft) S 190 0 min 0,000 mm 0,0 UV-I 0 W/m 10,9 C 11,7 C 6,4 km/h (2 Bft) 100,00 %
26.05.2016 01:56 11,7 C 95 % 1014,4 hPa 0,0 l/m 5,0 km/h (1 Bft) S-SW 194 0 min 0,000 mm 0,0 UV-I 0 W/m 10,9 C 11,7 C 6,4 km/h (2 Bft) 100,00 %
26.05.2016 01:57 11,7 C 95 % 1014,4 hPa 0,0 l/m 3,5 km/h (1 Bft) S-SW 194 0 min 0,000 mm 0,0 UV-I 0 W/m 10,9 C 11,7 C 4,8 km/h (1 Bft) 100,00 %
26.05.2016 01:58 11,7 C 95 % 1014,4 hPa 0,0 l/m 3,8 km/h (1 Bft) S-SW 194 0 min 0,000 mm 0,0 UV-I 0 W/m 10,9 C 11,7 C 4,8 km/h (1 Bft) 100,00 %
26.05.2016 01:59 11,7 C 95 % 1014,4 hPa 0,0 l/m 2,7 km/h (1 Bft) S-SW 194 0 min 0,000 mm 0,0 UV-I 0 W/m 10,9 C 11,7 C 4,8 km/h (1 Bft) 100,00 %
26.05.2016 02:00 11,7 C 95 % 1014,4 hPa 0,0 l/m 3,5 km/h (1 Bft) S-SW 193 0 min 0,000 mm 0,0 UV-I 0 W/m 10,9 C 11,7 C 4,8 km/h (1 Bft) 100,00 %
26.05.2016 02:02 11,7 C 95 % 1014,3 hPa 0,0 l/m 3,0 km/h (1 Bft) S 184 0 min 0,000 mm 0,0 UV-I 0 W/m 10,9 C 11,7 C 4,8 km/h (1 Bft) 96,00 %
26.05.2016 02:03 11,7 C 95 % 1014,4 hPa 0,0 l/m 3,0 km/h (1 Bft) S 184 0 min 0,000 mm 0,0 UV-I 0 W/m 10,9 C 11,7 C 4,8 km/h (1 Bft) 100,00 %
26.05.2016 02:04 11,6 C 95 % 1014,4 hPa 0,0 l/m 2,0 km/h (1 Bft) S 184 0 min 0,000 mm 0,0 UV-I 0 W/m 10,8 C 11,6 C 3,2 km/h (1 Bft) 100,00 %
26.05.2016 02:05 11,7 C 95 % 1014,4 hPa 0,0 l/m 3,1 km/h (1 Bft) S 184 0 min 0,000 mm 0,0 UV-I 0 W/m 10,9 C 11,7 C 3,2 km/h (1 Bft) 100,00 %
26.05.2016 02:06 11,7 C 95 % 1014,4 hPa 0,0 l/m 2,8 km/h (1 Bft) S 184 0 min 0,000 mm 0,0 UV-I 0 W/m 10,9 C 11,7 C 3,2 km/h (1 Bft) 100,00 %
26.05.2016 02:07 11,6 C 95 % 1014,4 hPa 0,0 l/m 2,2 km/h (1 Bft) S 184 0 min 0,000 mm 0,0 UV-I 0 W/m 10,8 C 11,6 C 3,2 km/h (1 Bft) 100,00 %
26.05.2016 02:08 11,6 C 95 % 1014,3 hPa 0,0 l/m 1,6 km/h (1 Bft) S 184 0 min 0,000 mm 0,0 UV-I 0 W/m 10,8 C 11,6 C 4,8 km/h (1 Bft) 100,00 %
26.05.2016 02:09 11,6 C 95 % 1014,4 hPa 0,0 l/m 1,5 km/h (1 Bft) S 184 0 min 0,000 mm 0,0 UV-I 0 W/m 10,8 C 11,6 C 3,2 km/h (1 Bft) 100,00 %
26.05.2016 02:10 11,6 C 95 % 1014,4 hPa 0,0 l/m 3,1 km/h (1 Bft) S 184 0 min 0,000 mm 0,0 UV-I 0 W/m 10,8 C 11,6 C 4,8 km/h (1 Bft) 100,00 %
26.05.2016 02:11 11,6 C 95 % 1014,4 hPa 0,0 l/m 3,3 km/h (1 Bft) S 184 0 min 0,000 mm 0,0 UV-I 0 W/m 10,8 C 11,6 C 4,8 km/h (1 Bft) 100,00 %
26.05.2016 02:12 11,6 C 95 % 1014,4 hPa 0,0 l/m 2,6 km/h (1 Bft) S 184 0 min 0,000 mm 0,0 UV-I 0 W/m 10,8 C 11,6 C 3,2 km/h (1 Bft) 100,00 %
26.05.2016 02:13 11,6 C 95 % 1014,4 hPa 0,0 l/m 3,6 km/h (1 Bft) S 184 0 min 0,000 mm 0,0 UV-I 0 W/m 10,8 C 11,6 C 4,8 km/h (1 Bft) 100,00 %
26.05.2016 02:14 11,6 C 95 % 1014,4 hPa 0,0 l/m 4,0 km/h (1 Bft) S 184 0 min 0,000 mm 0,0 UV-I 0 W/m 10,8 C 11,6 C 4,8 km/h (1 Bft) 95,65 %
26.05.2016 02:15 11,5 C 95 % 1014,4 hPa 0,0 l/m 3,4 km/h (1 Bft) S 184 0 min 0,000 mm 0,0 UV-I 0 W/m 10,7 C 11,5 C 4,8 km/h (1 Bft) 100,00 %
26.05.2016 02:16 11,5 C 95 % 1014,4 hPa 0,0 l/m 3,2 km/h (1 Bft) S 183 0 min 0,000 mm 0,0 UV-I 0 W/m 10,7 C 11,5 C 4,8 km/h (1 Bft) 96,15 %
26.05.2016 02:17 11,6 C 95 % 1014,4 hPa 0,0 l/m 5,0 km/h (1 Bft) S 183 0 min 0,000 mm 0,0 UV-I 0 W/m 10,8 C 11,6 C 8,0 km/h (2 Bft) 100,00 %
26.05.2016 02:18 11,6 C 95 % 1014,4 hPa 0,0 l/m 4,7 km/h (1 Bft) S 183 0 min 0,000 mm 0,0 UV-I 0 W/m 10,8 C 11,6 C 6,4 km/h (2 Bft) 100,00 %
26.05.2016 02:19 11,6 C 95 % 1014,4 hPa 0,0 l/m 4,2 km/h (1 Bft) S 182 0 min 0,000 mm 0,0 UV-I 0 W/m 10,8 C 11,6 C 4,8 km/h (1 Bft) 100,00 %
26.05.2016 02:20 11,6 C 95 % 1014,4 hPa 0,0 l/m 3,4 km/h (1 Bft) S 183 0 min 0,000 mm 0,0 UV-I 0 W/m 10,8 C 11,6 C 4,8 km/h (1 Bft) 100,00 %
26.05.2016 02:21 11,6 C 95 % 1014,4 hPa 0,0 l/m 4,2 km/h (1 Bft) S 183 0 min 0,000 mm 0,0 UV-I 0 W/m 10,8 C 11,6 C 4,8 km/h (1 Bft) 100,00 %
26.05.2016 02:22 11,6 C 95 % 1014,4 hPa 0,0 l/m 4,2 km/h (1 Bft) S 185 0 min 0,000 mm 0,0 UV-I 0 W/m 10,8 C 11,6 C 6,4 km/h (2 Bft) 96,15 %
26.05.2016 02:23 11,6 C 96 % 1014,4 hPa 0,0 l/m 4,6 km/h (1 Bft) S 185 0 min 0,000 mm 0,0 UV-I 0 W/m 11,0 C 11,6 C 6,4 km/h (2 Bft) 100,00 %
26.05.2016 02:24 11,6 C 95 % 1014,4 hPa 0,0 l/m 4,0 km/h (1 Bft) S 185 0 min 0,000 mm 0,0 UV-I 0 W/m 10,8 C 11,6 C 4,8 km/h (1 Bft) 100,00 %
26.05.2016 02:25 11,6 C 95 % 1014,4 hPa 0,0 l/m 4,4 km/h (1 Bft) S 184 0 min 0,000 mm 0,0 UV-I 0 W/m 10,8 C 11,6 C 6,4 km/h (2 Bft) 100,00 %
26.05.2016 02:26 11,6 C 95 % 1014,4 hPa 0,0 l/m 5,2 km/h (1 Bft) S 184 0 min 0,000 mm 0,0 UV-I 0 W/m 10,8 C 11,6 C 6,4 km/h (2 Bft) 100,00 %
26.05.2016 02:27 11,6 C 95 % 1014,4 hPa 0,0 l/m 5,1 km/h (1 Bft) S 184 0 min 0,000 mm 0,0 UV-I 0 W/m 10,8 C 11,6 C 6,4 km/h (2 Bft) 100,00 %
26.05.2016 02:28 11,6 C 95 % 1014,4 hPa 0,0 l/m 3,5 km/h (1 Bft) S 184 0 min 0,000 mm 0,0 UV-I 0 W/m 10,8 C 11,6 C 4,8 km/h (1 Bft) 100,00 %
26.05.2016 02:29 11,6 C 95 % 1014,4 hPa 0,0 l/m 4,0 km/h (1 Bft) S 184 0 min 0,000 mm 0,0 UV-I 0 W/m 10,8 C 11,6 C 6,4 km/h (2 Bft) 100,00 %
26.05.2016 02:30 11,6 C 95 % 1014,4 hPa 0,0 l/m 4,7 km/h (1 Bft) S 184 0 min 0,000 mm 0,0 UV-I 0 W/m 10,8 C 11,6 C 6,4 km/h (2 Bft) 100,00 %
26.05.2016 02:31 11,6 C 95 % 1014,4 hPa 0,0 l/m 4,9 km/h (1 Bft) S 184 0 min 0,000 mm 0,0 UV-I 0 W/m 10,8 C 11,6 C 6,4 km/h (2 Bft) 100,00 %
26.05.2016 02:32 11,5 C 95 % 1014,4 hPa 0,0 l/m 6,0 km/h (2 Bft) S 186 0 min 0,000 mm 0,0 UV-I 0 W/m 10,7 C 11,5 C 6,4 km/h (2 Bft) 100,00 %
26.05.2016 02:33 11,5 C 95 % 1014,4 hPa 0,0 l/m 5,2 km/h (1 Bft) S-SW 194 0 min 0,000 mm 0,0 UV-I 0 W/m 10,7 C 11,5 C 6,4 km/h (2 Bft) 100,00 %
26.05.2016 02:34 11,5 C 95 % 1014,4 hPa 0,0 l/m 5,1 km/h (1 Bft) S-SW 194 0 min 0,000 mm 0,0 UV-I 0 W/m 10,7 C 11,5 C 6,4 km/h (2 Bft) 100,00 %
26.05.2016 02:35 11,5 C 95 % 1014,4 hPa 0,0 l/m 5,0 km/h (1 Bft) S-SW 194 0 min 0,000 mm 0,0 UV-I 0 W/m 10,7 C 11,5 C 6,4 km/h (2 Bft) 100,00 %
26.05.2016 02:36 11,5 C 95 % 1014,4 hPa 0,0 l/m 4,6 km/h (1 Bft) S-SW 192 0 min 0,000 mm 0,0 UV-I 0 W/m 10,7 C 11,5 C 4,8 km/h (1 Bft) 100,00 %
26.05.2016 02:37 11,5 C 95 % 1014,4 hPa 0,0 l/m 4,5 km/h (1 Bft) S-SW 192 0 min 0,000 mm 0,0 UV-I 0 W/m 10,7 C 11,5 C 4,8 km/h (1 Bft) 100,00 %
26.05.2016 02:38 11,4 C 95 % 1014,4 hPa 0,0 l/m 4,6 km/h (1 Bft) S-SW 192 0 min 0,000 mm 0,0 UV-I 0 W/m 10,6 C 11,4 C 6,4 km/h (2 Bft) 100,00 %
26.05.2016 02:39 11,4 C 95 % 1014,4 hPa 0,0 l/m 4,7 km/h (1 Bft) S 191 0 min 0,000 mm 0,0 UV-I 0 W/m 10,6 C 11,4 C 4,8 km/h (1 Bft) 100,00 %
26.05.2016 02:40 11,4 C 95 % 1014,4 hPa 0,0 l/m 5,5 km/h (1 Bft) S 187 0 min 0,000 mm 0,0 UV-I 0 W/m 10,6 C 11,4 C 6,4 km/h (2 Bft) 100,00 %
26.05.2016 02:41 11,4 C 95 % 1014,4 hPa 0,0 l/m 5,5 km/h (1 Bft) S 184 0 min 0,000 mm 0,0 UV-I 0 W/m 10,6 C 11,4 C 6,4 km/h (2 Bft) 100,00 %
26.05.2016 02:42 11,4 C 95 % 1014,4 hPa 0,0 l/m 4,8 km/h (1 Bft) S 184 0 min 0,000 mm 0,0 UV-I 0 W/m 10,6 C 11,4 C 6,4 km/h (2 Bft) 100,00 %
26.05.2016 02:43 11,4 C 95 % 1014,4 hPa 0,0 l/m 4,9 km/h (1 Bft) S 184 0 min 0,000 mm 0,0 UV-I 0 W/m 10,6 C 11,4 C 6,4 km/h (2 Bft) 96,55 %
26.05.2016 02:44 11,4 C 96 % 1014,4 hPa 0,0 l/m 4,9 km/h (1 Bft) S-SW 197 0 min 0,000 mm 0,0 UV-I 0 W/m 10,8 C 11,4 C 6,4 km/h (2 Bft) 95,83 %
26.05.2016 02:45 11,4 C 96 % 1014,4 hPa 0,0 l/m 4,9 km/h (1 Bft) S-SW 197 0 min 0,000 mm 0,0 UV-I 0 W/m 10,8 C 11,4 C 6,4 km/h (2 Bft) 100,00 %
26.05.2016 02:46 11,5 C 96 % 1014,5 hPa 0,0 l/m 4,3 km/h (1 Bft) S-SW 197 0 min 0,000 mm 0,0 UV-I 0 W/m 10,9 C 11,5 C 4,8 km/h (1 Bft) 96,15 %
26.05.2016 02:47 11,5 C 96 % 1014,5 hPa 0,0 l/m 4,6 km/h (1 Bft) S-SW 197 0 min 0,000 mm 0,0 UV-I 0 W/m 10,9 C 11,5 C 4,8 km/h (1 Bft) 100,00 %
26.05.2016 02:48 11,5 C 96 % 1014,5 hPa 0,0 l/m 4,6 km/h (1 Bft) S-SW 197 0 min 0,000 mm 0,0 UV-I 0 W/m 10,9 C 11,5 C 6,4 km/h (2 Bft) 95,65 %
26.05.2016 02:49 11,6 C 96 % 1014,5 hPa 0,0 l/m 4,6 km/h (1 Bft) S-SW 197 0 min 0,000 mm 0,0 UV-I 0 W/m 11,0 C 11,6 C 6,4 km/h (2 Bft) 100,00 %
26.05.2016 02:50 11,6 C 96 % 1014,5 hPa 0,0 l/m 4,7 km/h (1 Bft) S-SW 197 0 min 0,000 mm 0,0 UV-I 0 W/m 11,0 C 11,6 C 6,4 km/h (2 Bft) 94,12 %
26.05.2016 02:51 11,6 C 96 % 1014,5 hPa 0,0 l/m 5,0 km/h (1 Bft) S-SW 197 0 min 0,000 mm 0,0 UV-I 0 W/m 11,0 C 11,6 C 6,4 km/h (2 Bft) 100,00 %
26.05.2016 02:52 11,6 C 96 % 1014,5 hPa 0,0 l/m 3,8 km/h (1 Bft) S-SW 197 0 min 0,000 mm 0,0 UV-I 0 W/m 11,0 C 11,6 C 4,8 km/h (1 Bft) 96,55 %
26.05.2016 02:53 11,6 C 96 % 1014,5 hPa 0,0 l/m 4,1 km/h (1 Bft) S-SW 196 0 min 0,000 mm 0,0 UV-I 0 W/m 11,0 C 11,6 C 6,4 km/h (2 Bft) 95,83 %
26.05.2016 02:54 11,7 C 96 % 1014,5 hPa 0,0 l/m 5,2 km/h (1 Bft) S-SW 196 0 min 0,000 mm 0,0 UV-I 0 W/m 11,1 C 11,7 C 6,4 km/h (2 Bft) 100,00 %
26.05.2016 02:55 11,7 C 96 % 1014,5 hPa 0,0 l/m 6,0 km/h (2 Bft) S-SW 202 0 min 0,000 mm 0,0 UV-I 0 W/m 11,1 C 11,7 C 8,0 km/h (2 Bft) 95,83 %
26.05.2016 02:56 11,7 C 96 % 1014,5 hPa 0,0 l/m 5,4 km/h (1 Bft) S-SW 202 0 min 0,000 mm 0,0 UV-I 0 W/m 11,1 C 11,7 C 6,4 km/h (2 Bft) 100,00 %
26.05.2016 02:57 11,7 C 96 % 1014,5 hPa 0,0 l/m 5,7 km/h (1 Bft) S-SW 212 0 min 0,000 mm 0,0 UV-I 0 W/m 11,1 C 11,7 C 6,4 km/h (2 Bft) 95,83 %
26.05.2016 02:58 11,7 C 96 % 1014,5 hPa 0,0 l/m 5,6 km/h (1 Bft) S-SW 192 0 min 0,000 mm 0,0 UV-I 0 W/m 11,1 C 11,7 C 8,0 km/h (2 Bft) 100,00 %
26.05.2016 02:59 11,7 C 96 % 1014,5 hPa 0,0 l/m 4,7 km/h (1 Bft) S-SW 199 0 min 0,000 mm 0,0 UV-I 0 W/m 11,1 C 11,7 C 6,4 km/h (2 Bft) 97,56 %
26.05.2016 03:00 11,7 C 96 % 1014,5 hPa 0,0 l/m 4,0 km/h (1 Bft) S-SW 198 0 min 0,000 mm 0,0 UV-I 0 W/m 11,1 C 11,7 C 6,4 km/h (2 Bft) 100,00 %
26.05.2016 03:02 11,7 C 96 % 1014,5 hPa 0,0 l/m 3,5 km/h (1 Bft) S-SW 197 0 min 0,000 mm 0,0 UV-I 0 W/m 11,1 C 11,7 C 4,8 km/h (1 Bft) 96,23 %
26.05.2016 03:03 11,7 C 96 % 1014,5 hPa 0,0 l/m 2,6 km/h (1 Bft) S-SW 197 0 min 0,000 mm 0,0 UV-I 0 W/m 11,1 C 11,7 C 4,8 km/h (1 Bft) 95,83 %
26.05.2016 03:04 11,8 C 96 % 1014,5 hPa 0,0 l/m 3,7 km/h (1 Bft) S-SW 197 0 min 0,000 mm 0,0 UV-I 0 W/m 11,2 C 11,8 C 4,8 km/h (1 Bft) 96,15 %
26.05.2016 03:05 11,8 C 96 % 1014,5 hPa 0,0 l/m 3,5 km/h (1 Bft) S-SW 197 0 min 0,000 mm 0,0 UV-I 0 W/m 11,2 C 11,8 C 4,8 km/h (1 Bft) 100,00 %
26.05.2016 03:06 11,8 C 96 % 1014,5 hPa 0,0 l/m 3,0 km/h (1 Bft) S-SW 197 0 min 0,000 mm 0,0 UV-I 0 W/m 11,2 C 11,8 C 4,8 km/h (1 Bft) 91,30 %
26.05.2016 03:07 11,8 C 96 % 1014,5 hPa 0,0 l/m 3,2 km/h (1 Bft) S-SW 197 0 min 0,000 mm 0,0 UV-I 0 W/m 11,2 C 11,8 C 4,8 km/h (1 Bft) 91,67 %
26.05.2016 03:08 11,8 C 96 % 1014,4 hPa 0,0 l/m 3,5 km/h (1 Bft) S-SW 197 0 min 0,000 mm 0,0 UV-I 0 W/m 11,2 C 11,8 C 4,8 km/h (1 Bft) 100,00 %
26.05.2016 03:09 11,8 C 96 % 1014,4 hPa 0,0 l/m 4,7 km/h (1 Bft) S 190 0 min 0,000 mm 0,0 UV-I 0 W/m 11,2 C 11,8 C 6,4 km/h (2 Bft) 100,00 %
26.05.2016 03:10 11,8 C 96 % 1014,5 hPa 0,0 l/m 3,2 km/h (1 Bft) S 190 0 min 0,000 mm 0,0 UV-I 0 W/m 11,2 C 11,8 C 4,8 km/h (1 Bft) 95,83 %
26.05.2016 03:11 11,8 C 96 % 1014,5 hPa 0,0 l/m 4,5 km/h (1 Bft) S 189 0 min 0,000 mm 0,0 UV-I 0 W/m 11,2 C 11,8 C 6,4 km/h (2 Bft) 95,65 %
26.05.2016 03:12 11,8 C 96 % 1014,5 hPa 0,0 l/m 2,8 km/h (1 Bft) S 189 0 min 0,000 mm 0,0 UV-I 0 W/m 11,2 C 11,8 C 4,8 km/h (1 Bft) 96,30 %
26.05.2016 03:13 11,8 C 96 % 1014,5 hPa 0,0 l/m 3,6 km/h (1 Bft) S 188 0 min 0,000 mm 0,0 UV-I 0 W/m 11,2 C 11,8 C 4,8 km/h (1 Bft) 95,65 %
26.05.2016 03:14 11,8 C 96 % 1014,4 hPa 0,0 l/m 3,8 km/h (1 Bft) S 188 0 min 0,000 mm 0,0 UV-I 0 W/m 11,2 C 11,8 C 4,8 km/h (1 Bft) 100,00 %
26.05.2016 03:15 11,8 C 96 % 1014,5 hPa 0,0 l/m 3,0 km/h (1 Bft) S 186 0 min 0,000 mm 0,0 UV-I 0 W/m 11,2 C 11,8 C 4,8 km/h (1 Bft) 95,65 %
26.05.2016 03:16 11,8 C 96 % 1014,4 hPa 0,0 l/m 4,5 km/h (1 Bft) S 185 0 min 0,000 mm 0,0 UV-I 0 W/m 11,2 C 11,8 C 6,4 km/h (2 Bft) 100,00 %
26.05.2016 03:17 11,8 C 95 % 1014,5 hPa 0,0 l/m 5,2 km/h (1 Bft) S-SW 200 0 min 0,000 mm 0,0 UV-I 0 W/m 11,0 C 11,8 C 8,0 km/h (2 Bft) 100,00 %
26.05.2016 03:18 11,8 C 95 % 1014,5 hPa 0,0 l/m 5,5 km/h (1 Bft) S-SW 192 0 min 0,000 mm 0,0 UV-I 0 W/m 11,0 C 11,8 C 8,0 km/h (2 Bft) 100,00 %
26.05.2016 03:19 11,8 C 95 % 1014,5 hPa 0,0 l/m 4,8 km/h (1 Bft) S-SW 192 0 min 0,000 mm 0,0 UV-I 0 W/m 11,0 C 11,8 C 8,0 km/h (2 Bft) 95,65 %
26.05.2016 03:20 11,8 C 95 % 1014,5 hPa 0,0 l/m 2,9 km/h (1 Bft) S 184 0 min 0,000 mm 0,0 UV-I 0 W/m 11,0 C 11,8 C 4,8 km/h (1 Bft) 100,00 %
26.05.2016 03:21 11,8 C 95 % 1014,5 hPa 0,0 l/m 4,3 km/h (1 Bft) S 174 0 min 0,000 mm 0,0 UV-I 0 W/m 11,0 C 11,8 C 8,0 km/h (2 Bft) 100,00 %
26.05.2016 03:22 11,8 C 95 % 1014,5 hPa 0,0 l/m 3,2 km/h (1 Bft) S 188 0 min 0,000 mm 0,0 UV-I 0 W/m 11,0 C 11,8 C 6,4 km/h (2 Bft) 95,83 %
26.05.2016 03:23 11,8 C 95 % 1014,5 hPa 0,0 l/m 3,3 km/h (1 Bft) S 182 0 min 0,000 mm 0,0 UV-I 0 W/m 11,0 C 11,8 C 4,8 km/h (1 Bft) 100,00 %
26.05.2016 03:24 11,8 C 96 % 1014,5 hPa 0,0 l/m 4,2 km/h (1 Bft) S 174 0 min 0,000 mm 0,0 UV-I 0 W/m 11,2 C 11,8 C 6,4 km/h (2 Bft) 95,83 %
26.05.2016 03:25 11,8 C 96 % 1014,5 hPa 0,0 l/m 3,5 km/h (1 Bft) S 174 0 min 0,000 mm 0,0 UV-I 0 W/m 11,2 C 11,8 C 4,8 km/h (1 Bft) 100,00 %
26.05.2016 03:26 11,9 C 96 % 1014,5 hPa 0,0 l/m 4,8 km/h (1 Bft) S-SW 192 0 min 0,000 mm 0,0 UV-I 0 W/m 11,3 C 11,9 C 8,0 km/h (2 Bft) 95,65 %
26.05.2016 03:27 11,9 C 96 % 1014,5 hPa 0,0 l/m 6,0 km/h (2 Bft) S-SW 192 0 min 0,000 mm 0,0 UV-I 0 W/m 11,3 C 11,9 C 9,7 km/h (2 Bft) 100,00 %
26.05.2016 03:28 11,9 C 96 % 1014,5 hPa 0,0 l/m 3,4 km/h (1 Bft) S 183 0 min 0,000 mm 0,0 UV-I 0 W/m 11,3 C 11,9 C 6,4 km/h (2 Bft) 100,00 %
26.05.2016 03:29 11,9 C 96 % 1014,5 hPa 0,0 l/m 5,5 km/h (1 Bft) S-SW 192 0 min 0,000 mm 0,0 UV-I 0 W/m 11,3 C 11,9 C 8,0 km/h (2 Bft) 100,00 %
26.05.2016 03:30 11,9 C 96 % 1014,5 hPa 0,0 l/m 6,5 km/h (2 Bft) S 176 0 min 0,000 mm 0,0 UV-I 0 W/m 11,3 C 11,9 C 8,0 km/h (2 Bft) 100,00 %
26.05.2016 03:31 11,9 C 95 % 1014,5 hPa 0,0 l/m 6,9 km/h (2 Bft) S 183 0 min 0,000 mm 0,0 UV-I 0 W/m 11,1 C 11,6 C 8,0 km/h (2 Bft) 100,00 %
26.05.2016 03:32 11,9 C 95 % 1014,5 hPa 0,0 l/m 6,3 km/h (2 Bft) S-SW 199 0 min 0,000 mm 0,0 UV-I 0 W/m 11,1 C 11,9 C 8,0 km/h (2 Bft) 96,15 %
26.05.2016 03:33 11,9 C 95 % 1014,5 hPa 0,0 l/m 6,4 km/h (2 Bft) S-SW 193 0 min 0,000 mm 0,0 UV-I 0 W/m 11,1 C 11,9 C 9,7 km/h (2 Bft) 91,67 %
26.05.2016 03:34 11,9 C 95 % 1014,5 hPa 0,0 l/m 3,4 km/h (1 Bft) S-SW 193 0 min 0,000 mm 0,0 UV-I 0 W/m 11,1 C 11,9 C 4,8 km/h (1 Bft) 100,00 %
26.05.2016 03:35 11,9 C 95 % 1014,5 hPa 0,0 l/m 4,4 km/h (1 Bft) S 177 0 min 0,000 mm 0,0 UV-I 0 W/m 11,1 C 11,9 C 8,0 km/h (2 Bft) 100,00 %
26.05.2016 03:36 11,9 C 95 % 1014,5 hPa 0,0 l/m 2,8 km/h (1 Bft) S 177 0 min 0,000 mm 0,0 UV-I 0 W/m 11,1 C 11,9 C 3,2 km/h (1 Bft) 100,00 %
26.05.2016 03:37 11,9 C 95 % 1014,5 hPa 0,0 l/m 2,9 km/h (1 Bft) S 177 0 min 0,000 mm 0,0 UV-I 0 W/m 11,1 C 11,9 C 4,8 km/h (1 Bft) 100,00 %
26.05.2016 03:38 11,9 C 95 % 1014,6 hPa 0,0 l/m 4,1 km/h (1 Bft) S 191 0 min 0,000 mm 0,0 UV-I 0 W/m 11,1 C 11,9 C 6,4 km/h (2 Bft) 95,65 %
26.05.2016 03:39 11,9 C 95 % 1014,6 hPa 0,0 l/m 1,8 km/h (1 Bft) S 184 0 min 0,000 mm 0,0 UV-I 0 W/m 11,1 C 11,9 C 4,8 km/h (1 Bft) 95,83 %
26.05.2016 03:40 11,9 C 95 % 1014,5 hPa 0,0 l/m 3,0 km/h (1 Bft) S 183 0 min 0,000 mm 0,0 UV-I 0 W/m 11,1 C 11,9 C 4,8 km/h (1 Bft) 100,00 %
26.05.2016 03:41 11,9 C 95 % 1014,5 hPa 0,0 l/m 2,2 km/h (1 Bft) S 178 0 min 0,000 mm 0,0 UV-I 0 W/m 11,1 C 11,9 C 3,2 km/h (1 Bft) 93,33 %
26.05.2016 03:42 11,9 C 95 % 1014,5 hPa 0,0 l/m 4,6 km/h (1 Bft) S 184 0 min 0,000 mm 0,0 UV-I 0 W/m 11,1 C 11,9 C 8,0 km/h (2 Bft) 100,00 %
26.05.2016 03:43 11,9 C 95 % 1014,4 hPa 0,0 l/m 6,1 km/h (2 Bft) S 188 0 min 0,000 mm 0,0 UV-I 0 W/m 11,1 C 11,9 C 9,7 km/h (2 Bft) 100,00 %
26.05.2016 03:44 11,9 C 95 % 1014,5 hPa 0,0 l/m 3,9 km/h (1 Bft) S 191 0 min 0,000 mm 0,0 UV-I 0 W/m 11,1 C 11,9 C 8,0 km/h (2 Bft) 96,15 %
26.05.2016 03:45 11,9 C 95 % 1014,5 hPa 0,0 l/m 4,7 km/h (1 Bft) S 173 0 min 0,000 mm 0,0 UV-I 0 W/m 11,1 C 11,9 C 6,4 km/h (2 Bft) 100,00 %
26.05.2016 03:46 11,9 C 95 % 1014,5 hPa 0,0 l/m 3,7 km/h (1 Bft) S 173 0 min 0,000 mm 0,0 UV-I 0 W/m 11,1 C 11,9 C 4,8 km/h (1 Bft) 100,00 %
26.05.2016 03:47 11,9 C 95 % 1014,5 hPa 0,0 l/m 4,7 km/h (1 Bft) S 188 0 min 0,000 mm 0,0 UV-I 0 W/m 11,1 C 11,9 C 8,0 km/h (2 Bft) 93,33 %
26.05.2016 03:48 11,9 C 95 % 1014,5 hPa 0,0 l/m 4,3 km/h (1 Bft) S 188 0 min 0,000 mm 0,0 UV-I 0 W/m 11,1 C 11,9 C 6,4 km/h (2 Bft) 96,67 %
26.05.2016 03:49 11,8 C 95 % 1014,5 hPa 0,0 l/m 3,9 km/h (1 Bft) S 188 0 min 0,000 mm 0,0 UV-I 0 W/m 11,0 C 11,8 C 4,8 km/h (1 Bft) 100,00 %
26.05.2016 03:50 11,8 C 95 % 1014,4 hPa 0,0 l/m 5,0 km/h (1 Bft) S 187 0 min 0,000 mm 0,0 UV-I 0 W/m 11,0 C 11,8 C 6,4 km/h (2 Bft) 100,00 %
26.05.2016 03:51 11,8 C 95 % 1014,5 hPa 0,0 l/m 4,0 km/h (1 Bft) S 187 0 min 0,000 mm 0,0 UV-I 0 W/m 11,0 C 11,8 C 4,8 km/h (1 Bft) 96,15 %
26.05.2016 03:52 11,8 C 95 % 1014,5 hPa 0,0 l/m 4,0 km/h (1 Bft) S 184 0 min 0,000 mm 0,0 UV-I 0 W/m 11,0 C 11,8 C 4,8 km/h (1 Bft) 100,00 %
26.05.2016 03:53 11,8 C 95 % 1014,4 hPa 0,0 l/m 4,1 km/h (1 Bft) S 186 0 min 0,000 mm 0,0 UV-I 0 W/m 11,0 C 11,8 C 6,4 km/h (2 Bft) 100,00 %
26.05.2016 03:54 11,8 C 95 % 1014,4 hPa 0,0 l/m 3,9 km/h (1 Bft) S 186 0 min 0,000 mm 0,0 UV-I 0 W/m 11,0 C 11,8 C 4,8 km/h (1 Bft) 100,00 %
26.05.2016 03:55 11,8 C 95 % 1014,5 hPa 0,0 l/m 3,1 km/h (1 Bft) S 186 0 min 0,000 mm 0,0 UV-I 0 W/m 11,0 C 11,8 C 4,8 km/h (1 Bft) 100,00 %
26.05.2016 03:56 11,8 C 95 % 1014,4 hPa 0,0 l/m 0,9 km/h (0 Bft) S 186 0 min 0,000 mm 0,0 UV-I 0 W/m 11,0 C 11,8 C 1,6 km/h (1 Bft) 100,00 %
26.05.2016 03:57 11,8 C 95 % 1014,4 hPa 0,0 l/m 2,7 km/h (1 Bft) S 186 0 min 0,000 mm 0,0 UV-I 0 W/m 11,0 C 11,8 C 4,8 km/h (1 Bft) 100,00 %
26.05.2016 03:58 11,8 C 95 % 1014,4 hPa 0,0 l/m 2,5 km/h (1 Bft) S 184 0 min 0,000 mm 0,0 UV-I 0 W/m 11,0 C 11,8 C 3,2 km/h (1 Bft) 95,83 %
26.05.2016 03:59 11,8 C 95 % 1014,4 hPa 0,0 l/m 1,9 km/h (1 Bft) S 184 0 min 0,000 mm 0,0 UV-I 0 W/m 11,0 C 11,8 C 3,2 km/h (1 Bft) 100,00 %
26.05.2016 04:00 11,8 C 95 % 1014,4 hPa 0,0 l/m 3,0 km/h (1 Bft) S 183 0 min 0,000 mm 0,0 UV-I 0 W/m 11,0 C 11,8 C 4,8 km/h (1 Bft) 100,00 %
26.05.2016 04:02 11,8 C 95 % 1014,4 hPa 0,0 l/m 3,2 km/h (1 Bft) S 177 0 min 0,000 mm 0,0 UV-I 0 W/m 11,0 C 11,8 C 6,4 km/h (2 Bft) 100,00 %
26.05.2016 04:03 11,7 C 95 % 1014,4 hPa 0,0 l/m 3,1 km/h (1 Bft) S 186 0 min 0,000 mm 0,0 UV-I 0 W/m 10,9 C 11,7 C 6,4 km/h (2 Bft) 93,10 %
26.05.2016 04:04 11,7 C 95 % 1014,4 hPa 0,0 l/m 4,2 km/h (1 Bft) S 186 0 min 0,000 mm 0,0 UV-I 0 W/m 10,9 C 11,7 C 6,4 km/h (2 Bft) 95,83 %
26.05.2016 04:05 11,7 C 95 % 1014,4 hPa 0,0 l/m 5,4 km/h (1 Bft) S 184 0 min 0,000 mm 0,0 UV-I 0 W/m 10,9 C 11,7 C 6,4 km/h (2 Bft) 100,00 %
26.05.2016 04:06 11,7 C 95 % 1014,4 hPa 0,0 l/m 4,9 km/h (1 Bft) S 182 0 min 0,000 mm 0,0 UV-I 0 W/m 10,9 C 11,7 C 6,4 km/h (2 Bft) 100,00 %
26.05.2016 04:07 11,7 C 95 % 1014,4 hPa 0,0 l/m 4,8 km/h (1 Bft) S 181 0 min 0,000 mm 0,0 UV-I 0 W/m 10,9 C 11,7 C 6,4 km/h (2 Bft) 100,00 %
26.05.2016 04:08 11,7 C 95 % 1014,4 hPa 0,0 l/m 3,8 km/h (1 Bft) S 180 0 min 0,000 mm 0,0 UV-I 0 W/m 10,9 C 11,7 C 6,4 km/h (2 Bft) 100,00 %
26.05.2016 04:09 11,7 C 95 % 1014,4 hPa 0,0 l/m 5,0 km/h (1 Bft) S 182 0 min 0,000 mm 0,0 UV-I 0 W/m 10,9 C 11,7 C 6,4 km/h (2 Bft) 100,00 %
26.05.2016 04:10 11,6 C 95 % 1014,4 hPa 0,0 l/m 4,4 km/h (1 Bft) S 178 0 min 0,000 mm 0,0 UV-I 0 W/m 10,8 C 11,6 C 6,4 km/h (2 Bft) 100,00 %
26.05.2016 04:11 11,6 C 95 % 1014,4 hPa 0,0 l/m 6,6 km/h (2 Bft) S 185 0 min 0,000 mm 0,0 UV-I 0 W/m 10,8 C 11,5 C 9,7 km/h (2 Bft) 100,00 %
26.05.2016 04:12 11,6 C 95 % 1014,4 hPa 0,0 l/m 6,1 km/h (2 Bft) S-SO 166 0 min 0,000 mm 0,0 UV-I 0 W/m 10,8 C 11,6 C 8,0 km/h (2 Bft) 100,00 %
26.05.2016 04:13 11,6 C 95 % 1014,4 hPa 0,0 l/m 6,2 km/h (2 Bft) S 183 0 min 0,000 mm 0,0 UV-I 0 W/m 10,8 C 11,6 C 6,4 km/h (2 Bft) 100,00 %
26.05.2016 04:14 11,6 C 95 % 1014,4 hPa 0,0 l/m 5,2 km/h (1 Bft) S 182 0 min 0,000 mm 0,0 UV-I 0 W/m 10,8 C 11,6 C 8,0 km/h (2 Bft) 100,00 %
26.05.2016 04:15 11,6 C 95 % 1014,4 hPa 0,0 l/m 5,4 km/h (1 Bft) S-SO 167 0 min 0,000 mm 0,0 UV-I 0 W/m 10,8 C 11,6 C 8,0 km/h (2 Bft) 100,00 %
26.05.2016 04:16 11,6 C 95 % 1014,4 hPa 0,0 l/m 5,6 km/h (1 Bft) S 178 0 min 0,000 mm 0,0 UV-I 0 W/m 10,8 C 11,6 C 8,0 km/h (2 Bft) 100,00 %
26.05.2016 04:17 11,6 C 95 % 1014,4 hPa 0,0 l/m 4,7 km/h (1 Bft) S 174 0 min 0,000 mm 0,0 UV-I 0 W/m 10,8 C 11,6 C 8,0 km/h (2 Bft) 93,33 %
26.05.2016 04:18 11,6 C 95 % 1014,4 hPa 0,0 l/m 3,5 km/h (1 Bft) S 178 0 min 0,000 mm 0,0 UV-I 0 W/m 10,8 C 11,6 C 4,8 km/h (1 Bft) 100,00 %
26.05.2016 04:19 11,6 C 95 % 1014,4 hPa 0,0 l/m 3,0 km/h (1 Bft) S 181 0 min 0,000 mm 0,0 UV-I 0 W/m 10,8 C 11,6 C 4,8 km/h (1 Bft) 100,00 %
26.05.2016 04:20 11,6 C 95 % 1014,4 hPa 0,0 l/m 4,7 km/h (1 Bft) S 175 0 min 0,000 mm 0,0 UV-I 0 W/m 10,8 C 11,6 C 6,4 km/h (2 Bft) 100,00 %
26.05.2016 04:21 11,5 C 95 % 1014,4 hPa 0,0 l/m 4,2 km/h (1 Bft) S 175 0 min 0,000 mm 0,0 UV-I 0 W/m 10,7 C 11,5 C 4,8 km/h (1 Bft) 95,83 %
26.05.2016 04:22 11,5 C 95 % 1014,4 hPa 0,0 l/m 4,6 km/h (1 Bft) S 179 0 min 0,000 mm 0,0 UV-I 0 W/m 10,7 C 11,5 C 6,4 km/h (2 Bft) 100,00 %
26.05.2016 04:23 11,5 C 95 % 1014,4 hPa 0,0 l/m 4,5 km/h (1 Bft) S 190 0 min 0,000 mm 0,0 UV-I 0 W/m 10,7 C 11,5 C 6,4 km/h (2 Bft) 100,00 %
26.05.2016 04:24 11,4 C 95 % 1014,3 hPa 0,0 l/m 3,2 km/h (1 Bft) S 184 0 min 0,000 mm 0,0 UV-I 0 W/m 10,6 C 11,4 C 6,4 km/h (2 Bft) 100,00 %
26.05.2016 04:25 11,4 C 95 % 1014,3 hPa 0,0 l/m 3,2 km/h (1 Bft) S 184 0 min 0,000 mm 0,0 UV-I 0 W/m 10,6 C 11,4 C 4,8 km/h (1 Bft) 100,00 %
26.05.2016 04:26 11,4 C 95 % 1014,4 hPa 0,0 l/m 3,4 km/h (1 Bft) S 189 0 min 0,000 mm 0,0 UV-I 0 W/m 10,6 C 11,4 C 6,4 km/h (2 Bft) 100,00 %
26.05.2016 04:27 11,4 C 95 % 1014,4 hPa 0,0 l/m 3,6 km/h (1 Bft) S 184 0 min 0,000 mm 0,0 UV-I 0 W/m 10,6 C 11,4 C 4,8 km/h (1 Bft) 100,00 %
26.05.2016 04:28 11,4 C 95 % 1014,4 hPa 0,0 l/m 5,6 km/h (1 Bft) S 179 0 min 0,000 mm 0,0 UV-I 0 W/m 10,6 C 11,4 C 9,7 km/h (2 Bft) 100,00 %
26.05.2016 04:29 11,4 C 95 % 1014,4 hPa 0,0 l/m 4,4 km/h (1 Bft) S 173 0 min 0,000 mm 0,0 UV-I 0 W/m 10,6 C 11,4 C 8,0 km/h (2 Bft) 100,00 %
26.05.2016 04:30 11,4 C 95 % 1014,4 hPa 0,0 l/m 5,3 km/h (1 Bft) S 175 0 min 0,000 mm 0,0 UV-I 0 W/m 10,6 C 11,4 C 8,0 km/h (2 Bft) 100,00 %
26.05.2016 04:31 11,3 C 95 % 1014,4 hPa 0,0 l/m 5,3 km/h (1 Bft) S-SW 202 0 min 0,000 mm 0,0 UV-I 0 W/m 10,5 C 11,3 C 6,4 km/h (2 Bft) 100,00 %
26.05.2016 04:32 11,3 C 95 % 1014,4 hPa 0,0 l/m 4,3 km/h (1 Bft) S-SW 202 0 min 0,000 mm 0,0 UV-I 0 W/m 10,5 C 11,3 C 4,8 km/h (1 Bft) 100,00 %
26.05.2016 04:33 11,3 C 95 % 1014,4 hPa 0,0 l/m 3,6 km/h (1 Bft) S-SW 202 0 min 0,000 mm 0,0 UV-I 0 W/m 10,5 C 11,3 C 4,8 km/h (1 Bft) 100,00 %
26.05.2016 04:34 11,3 C 95 % 1014,4 hPa 0,0 l/m 3,8 km/h (1 Bft) S-SW 202 0 min 0,000 mm 0,0 UV-I 0 W/m 10,5 C 11,3 C 4,8 km/h (1 Bft) 100,00 %
26.05.2016 04:35 11,3 C 95 % 1014,4 hPa 0,0 l/m 5,0 km/h (1 Bft) S-SW 202 0 min 0,000 mm 0,0 UV-I 0 W/m 10,5 C 11,3 C 6,4 km/h (2 Bft) 100,00 %
26.05.2016 04:36 11,2 C 95 % 1014,4 hPa 0,0 l/m 4,2 km/h (1 Bft) S-SW 205 0 min 0,000 mm 0,0 UV-I 0 W/m 10,4 C 11,2 C 4,8 km/h (1 Bft) 100,00 %
26.05.2016 04:37 11,2 C 95 % 1014,4 hPa 0,0 l/m 4,8 km/h (1 Bft) S-SW 204 0 min 0,000 mm 0,0 UV-I 0 W/m 10,4 C 11,2 C 6,4 km/h (2 Bft) 100,00 %
26.05.2016 04:38 11,2 C 95 % 1014,4 hPa 0,0 l/m 4,6 km/h (1 Bft) S-SW 204 0 min 0,000 mm 0,0 UV-I 0 W/m 10,4 C 11,2 C 6,4 km/h (2 Bft) 100,00 %
26.05.2016 04:39 11,2 C 95 % 1014,5 hPa 0,0 l/m 5,3 km/h (1 Bft) S-SW 202 0 min 0,000 mm 0,0 UV-I 0 W/m 10,4 C 11,2 C 6,4 km/h (2 Bft) 100,00 %
26.05.2016 04:40 11,1 C 95 % 1014,5 hPa 0,0 l/m 6,0 km/h (2 Bft) S-SW 212 0 min 0,000 mm 0,0 UV-I 0 W/m 10,3 C 11,1 C 8,0 km/h (2 Bft) 99,44 %
26.05.2016 04:41 11,1 C 95 % 1014,5 hPa 0,0 l/m 6,2 km/h (2 Bft) S-SW 198 0 min 0,000 mm 0,0 UV-I 0 W/m 10,3 C 11,1 C 8,0 km/h (2 Bft) 100,00 %
26.05.2016 04:42 11,1 C 95 % 1014,5 hPa 0,0 l/m 6,2 km/h (2 Bft) S-SW 205 0 min 0,000 mm 0,0 UV-I 0 W/m 10,3 C 11,1 C 8,0 km/h (2 Bft) 100,00 %
26.05.2016 04:43 11,0 C 95 % 1014,5 hPa 0,0 l/m 8,2 km/h (2 Bft) S 180 0 min 0,000 mm 0,0 UV-I 0 W/m 10,2 C 9,8 C 11,3 km/h (2 Bft) 93,33 %
26.05.2016 04:44 11,0 C 95 % 1014,5 hPa 0,0 l/m 6,3 km/h (2 Bft) S 178 0 min 0,000 mm 0,0 UV-I 0 W/m 10,2 C 11,0 C 8,0 km/h (2 Bft) 96,55 %
26.05.2016 04:45 11,0 C 96 % 1014,5 hPa 0,0 l/m 5,1 km/h (1 Bft) S 173 0 min 0,000 mm 0,0 UV-I 0 W/m 10,4 C 11,0 C 6,4 km/h (2 Bft) 100,00 %
26.05.2016 04:46 11,0 C 96 % 1014,4 hPa 0,0 l/m 5,4 km/h (1 Bft) S 185 0 min 0,000 mm 0,0 UV-I 0 W/m 10,4 C 11,0 C 6,4 km/h (2 Bft) 95,65 %
26.05.2016 04:47 11,0 C 96 % 1014,5 hPa 0,0 l/m 4,6 km/h (1 Bft) S 180 0 min 0,000 mm 0,0 UV-I 0 W/m 10,4 C 11,0 C 6,4 km/h (2 Bft) 100,00 %
26.05.2016 04:48 11,0 C 96 % 1014,5 hPa 0,0 l/m 5,6 km/h (1 Bft) S 183 0 min 0,000 mm 0,0 UV-I 0 W/m 10,4 C 11,0 C 6,4 km/h (2 Bft) 96,55 %
26.05.2016 04:49 11,0 C 96 % 1014,5 hPa 0,0 l/m 6,7 km/h (2 Bft) S-SW 204 0 min 0,000 mm 0,0 UV-I 0 W/m 10,4 C 10,8 C 8,0 km/h (2 Bft) 100,00 %
26.05.2016 04:50 10,9 C 96 % 1014,5 hPa 0,0 l/m 4,7 km/h (1 Bft) S-SW 204 0 min 0,000 mm 0,0 UV-I 0 W/m 10,3 C 10,9 C 6,4 km/h (2 Bft) 96,15 %
26.05.2016 04:51 10,9 C 96 % 1014,5 hPa 0,0 l/m 6,0 km/h (2 Bft) S-SW 197 0 min 0,000 mm 0,0 UV-I 0 W/m 10,3 C 10,9 C 8,0 km/h (2 Bft) 95,83 %
26.05.2016 04:52 10,9 C 96 % 1014,6 hPa 0,0 l/m 5,9 km/h (2 Bft) S-SW 197 0 min 0,000 mm 0,0 UV-I 0 W/m 10,3 C 10,9 C 8,0 km/h (2 Bft) 100,00 %
26.05.2016 04:53 10,9 C 96 % 1014,6 hPa 0,0 l/m 4,4 km/h (1 Bft) S-SW 197 0 min 0,000 mm 0,0 UV-I 0 W/m 10,3 C 10,9 C 4,8 km/h (1 Bft) 100,00 %
26.05.2016 04:54 10,9 C 96 % 1014,6 hPa 0,0 l/m 5,5 km/h (1 Bft) S-SW 207 0 min 0,000 mm 0,0 UV-I 0 W/m 10,3 C 10,9 C 6,4 km/h (2 Bft) 96,55 %
26.05.2016 04:55 10,9 C 96 % 1014,6 hPa 0,0 l/m 4,7 km/h (1 Bft) S 188 0 min 0,000 mm 0,0 UV-I 0 W/m 10,3 C 10,9 C 6,4 km/h (2 Bft) 95,83 %
26.05.2016 04:56 10,9 C 96 % 1014,6 hPa 0,0 l/m 4,8 km/h (1 Bft) S 188 0 min 0,000 mm 0,0 UV-I 0 W/m 10,3 C 10,9 C 6,4 km/h (2 Bft) 100,00 %
26.05.2016 04:57 10,9 C 96 % 1014,6 hPa 0,0 l/m 5,5 km/h (1 Bft) S-SW 192 0 min 0,000 mm 0,0 UV-I 0 W/m 10,3 C 10,9 C 8,0 km/h (2 Bft) 97,37 %
26.05.2016 04:58 10,9 C 96 % 1014,6 hPa 0,0 l/m 3,8 km/h (1 Bft) S-SW 196 0 min 0,000 mm 0,0 UV-I 0 W/m 10,3 C 10,9 C 4,8 km/h (1 Bft) 100,00 %
26.05.2016 04:59 10,9 C 96 % 1014,6 hPa 0,0 l/m 5,3 km/h (1 Bft) S 188 0 min 0,000 mm 0,0 UV-I 0 W/m 10,3 C 10,9 C 6,4 km/h (2 Bft) 96,30 %
26.05.2016 05:00 10,9 C 96 % 1014,6 hPa 0,0 l/m 5,5 km/h (1 Bft) S-SW 207 0 min 0,000 mm 0,0 UV-I 0 W/m 10,3 C 10,9 C 8,0 km/h (2 Bft) 96,88 %
26.05.2016 05:02 10,9 C 96 % 1014,6 hPa 0,0 l/m 5,2 km/h (1 Bft) S-SW 205 0 min 0,000 mm 0,0 UV-I 0 W/m 10,3 C 10,9 C 8,0 km/h (2 Bft) 100,00 %
26.05.2016 05:03 10,9 C 96 % 1014,6 hPa 0,0 l/m 5,6 km/h (1 Bft) S-SW 200 0 min 0,000 mm 0,0 UV-I 0 W/m 10,3 C 10,9 C 8,0 km/h (2 Bft) 96,15 %
26.05.2016 05:04 10,8 C 96 % 1014,6 hPa 0,0 l/m 7,5 km/h (2 Bft) S-SW 210 0 min 0,000 mm 0,0 UV-I 0 W/m 10,2 C 10,0 C 9,7 km/h (2 Bft) 96,15 %
26.05.2016 05:05 10,8 C 96 % 1014,6 hPa 0,0 l/m 6,0 km/h (2 Bft) S-SW 201 0 min 0,000 mm 0,0 UV-I 0 W/m 10,2 C 10,8 C 8,0 km/h (2 Bft) 100,00 %
26.05.2016 05:06 10,8 C 96 % 1014,7 hPa 0,0 l/m 7,5 km/h (2 Bft) S-SW 200 0 min 0,000 mm 0,0 UV-I 0 W/m 10,2 C 10,0 C 9,7 km/h (2 Bft) 83,33 %
26.05.2016 05:07 10,8 C 96 % 1014,7 hPa 0,0 l/m 6,8 km/h (2 Bft) S-SW 200 0 min 0,000 mm 0,0 UV-I 0 W/m 10,2 C 10,5 C 9,7 km/h (2 Bft) 96,88 %
26.05.2016 05:08 10,8 C 96 % 1014,7 hPa 0,0 l/m 6,2 km/h (2 Bft) SW 216 0 min 0,000 mm 0,0 UV-I 0 W/m 10,2 C 10,8 C 8,0 km/h (2 Bft) 95,83 %
26.05.2016 05:09 10,8 C 96 % 1014,6 hPa 0,0 l/m 6,8 km/h (2 Bft) S 187 0 min 0,000 mm 0,0 UV-I 0 W/m 10,2 C 10,5 C 8,0 km/h (2 Bft) 100,00 %
26.05.2016 05:10 10,7 C 96 % 1014,7 hPa 0,0 l/m 5,2 km/h (1 Bft) S-SW 200 0 min 0,000 mm 0,0 UV-I 0 W/m 10,1 C 10,7 C 6,4 km/h (2 Bft) 91,67 %
26.05.2016 05:11 10,7 C 96 % 1014,7 hPa 0,0 l/m 6,3 km/h (2 Bft) S 185 0 min 0,000 mm 0,0 UV-I 0 W/m 10,1 C 10,7 C 8,0 km/h (2 Bft) 95,65 %
26.05.2016 05:12 10,7 C 96 % 1014,7 hPa 0,0 l/m 4,9 km/h (1 Bft) S 179 0 min 0,000 mm 0,0 UV-I 0 W/m 10,1 C 10,7 C 6,4 km/h (2 Bft) 100,00 %
26.05.2016 05:13 10,8 C 96 % 1014,7 hPa 0,0 l/m 6,2 km/h (2 Bft) S 172 0 min 0,000 mm 0,0 UV-I 0 W/m 10,2 C 10,8 C 8,0 km/h (2 Bft) 96,15 %
26.05.2016 05:14 10,8 C 96 % 1014,7 hPa 0,0 l/m 5,2 km/h (1 Bft) S-SO 166 0 min 0,000 mm 0,0 UV-I 0 W/m 10,2 C 10,8 C 8,0 km/h (2 Bft) 100,00 %
26.05.2016 05:15 10,8 C 96 % 1014,7 hPa 0,0 l/m 4,9 km/h (1 Bft) S 191 0 min 0,000 mm 0,0 UV-I 4 W/m 10,2 C 10,8 C 8,0 km/h (2 Bft) 96,15 %
26.05.2016 05:16 10,8 C 96 % 1014,7 hPa 0,0 l/m 4,9 km/h (1 Bft) S 190 0 min 0,000 mm 0,0 UV-I 5 W/m 10,2 C 10,8 C 6,4 km/h (2 Bft) 100,00 %
26.05.2016 05:17 10,7 C 96 % 1014,7 hPa 0,0 l/m 4,9 km/h (1 Bft) S-SW 204 0 min 0,000 mm 0,0 UV-I 5 W/m 10,1 C 10,7 C 6,4 km/h (2 Bft) 100,00 %
26.05.2016 05:18 10,7 C 96 % 1014,7 hPa 0,0 l/m 4,2 km/h (1 Bft) S-SW 204 0 min 0,000 mm 0,0 UV-I 5 W/m 10,1 C 10,7 C 4,8 km/h (1 Bft) 95,83 %
26.05.2016 05:19 10,7 C 96 % 1014,7 hPa 0,0 l/m 4,6 km/h (1 Bft) S-SW 197 0 min 0,000 mm 0,0 UV-I 5 W/m 10,1 C 10,7 C 6,4 km/h (2 Bft) 100,00 %
26.05.2016 05:20 10,7 C 96 % 1014,7 hPa 0,0 l/m 4,1 km/h (1 Bft) S-SW 206 0 min 0,000 mm 0,0 UV-I 5 W/m 10,1 C 10,7 C 4,8 km/h (1 Bft) 100,00 %
26.05.2016 05:21 10,7 C 96 % 1014,7 hPa 0,0 l/m 4,3 km/h (1 Bft) S-SW 206 0 min 0,000 mm 0,0 UV-I 5 W/m 10,1 C 10,7 C 4,8 km/h (1 Bft) 100,00 %
26.05.2016 05:22 10,7 C 96 % 1014,7 hPa 0,0 l/m 3,6 km/h (1 Bft) S-SW 206 0 min 0,000 mm 0,0 UV-I 5 W/m 10,1 C 10,7 C 4,8 km/h (1 Bft) 100,00 %
26.05.2016 05:23 10,7 C 96 % 1014,8 hPa 0,0 l/m 5,3 km/h (1 Bft) S-SW 206 0 min 0,000 mm 0,0 UV-I 5 W/m 10,1 C 10,7 C 6,4 km/h (2 Bft) 96,15 %
26.05.2016 05:24 10,7 C 96 % 1014,8 hPa 0,0 l/m 4,3 km/h (1 Bft) S-SW 205 0 min 0,000 mm 0,0 UV-I 7 W/m 10,1 C 10,7 C 4,8 km/h (1 Bft) 100,00 %
26.05.2016 05:25 10,7 C 96 % 1014,8 hPa 0,0 l/m 3,9 km/h (1 Bft) S-SW 205 0 min 0,000 mm 0,0 UV-I 7 W/m 10,1 C 10,7 C 4,8 km/h (1 Bft) 100,00 %
26.05.2016 05:26 10,7 C 96 % 1014,8 hPa 0,0 l/m 4,6 km/h (1 Bft) S-SW 200 0 min 0,000 mm 0,0 UV-I 7 W/m 10,1 C 10,7 C 6,4 km/h (2 Bft) 100,00 %
26.05.2016 05:27 10,7 C 96 % 1014,8 hPa 0,0 l/m 4,0 km/h (1 Bft) S-SW 200 0 min 0,000 mm 0,0 UV-I 7 W/m 10,1 C 10,7 C 6,4 km/h (2 Bft) 100,00 %
26.05.2016 05:28 10,7 C 96 % 1014,9 hPa 0,0 l/m 4,3 km/h (1 Bft) S-SW 200 0 min 0,000 mm 0,0 UV-I 7 W/m 10,1 C 10,7 C 4,8 km/h (1 Bft) 96,15 %
26.05.2016 05:29 10,6 C 96 % 1014,9 hPa 0,0 l/m 3,5 km/h (1 Bft) S-SW 200 0 min 0,000 mm 0,0 UV-I 9 W/m 10,0 C 10,6 C 4,8 km/h (1 Bft) 100,00 %
26.05.2016 05:30 10,6 C 96 % 1014,8 hPa 0,0 l/m 3,1 km/h (1 Bft) S-SW 200 0 min 0,000 mm 0,0 UV-I 9 W/m 10,0 C 10,6 C 4,8 km/h (1 Bft) 96,15 %
26.05.2016 05:31 10,6 C 96 % 1014,8 hPa 0,0 l/m 3,4 km/h (1 Bft) S-SW 200 0 min 0,000 mm 0,0 UV-I 9 W/m 10,0 C 10,6 C 4,8 km/h (1 Bft) 100,00 %
26.05.2016 05:32 10,6 C 96 % 1014,9 hPa 0,0 l/m 3,9 km/h (1 Bft) S-SW 199 0 min 0,000 mm 0,0 UV-I 10 W/m 10,0 C 10,6 C 4,8 km/h (1 Bft) 100,00 %
26.05.2016 05:33 10,6 C 96 % 1014,9 hPa 0,0 l/m 3,3 km/h (1 Bft) S-SW 199 0 min 0,000 mm 0,0 UV-I 11 W/m 10,0 C 10,6 C 4,8 km/h (1 Bft) 100,00 %
26.05.2016 05:34 10,6 C 96 % 1014,9 hPa 0,0 l/m 2,7 km/h (1 Bft) S-SW 199 0 min 0,000 mm 0,0 UV-I 11 W/m 10,0 C 10,6 C 4,8 km/h (1 Bft) 100,00 %
26.05.2016 05:35 10,6 C 96 % 1014,9 hPa 0,0 l/m 3,2 km/h (1 Bft) S-SW 199 0 min 0,000 mm 0,0 UV-I 11 W/m 10,0 C 10,6 C 4,8 km/h (1 Bft) 100,00 %
26.05.2016 05:36 10,6 C 96 % 1014,8 hPa 0,0 l/m 1,9 km/h (1 Bft) S-SW 199 0 min 0,000 mm 0,0 UV-I 11 W/m 10,0 C 10,6 C 4,8 km/h (1 Bft) 95,65 %
26.05.2016 05:37 10,6 C 96 % 1014,9 hPa 0,0 l/m 1,9 km/h (1 Bft) S-SW 199 0 min 0,000 mm 0,0 UV-I 11 W/m 10,0 C 10,6 C 3,2 km/h (1 Bft) 100,00 %
26.05.2016 05:38 10,6 C 96 % 1014,8 hPa 0,0 l/m 2,1 km/h (1 Bft) S-SW 199 0 min 0,000 mm 0,0 UV-I 11 W/m 10,0 C 10,6 C 3,2 km/h (1 Bft) 100,00 %
26.05.2016 05:39 10,5 C 96 % 1014,9 hPa 0,0 l/m 2,9 km/h (1 Bft) S-SW 199 0 min 0,000 mm 0,0 UV-I 11 W/m 9,9 C 10,5 C 3,2 km/h (1 Bft) 100,00 %
26.05.2016 05:40 10,5 C 96 % 1014,8 hPa 0,0 l/m 3,6 km/h (1 Bft) S-SW 199 0 min 0,000 mm 0,0 UV-I 11 W/m 9,9 C 10,5 C 4,8 km/h (1 Bft) 100,00 %
26.05.2016 05:41 10,5 C 96 % 1014,8 hPa 0,0 l/m 2,9 km/h (1 Bft) S-SW 199 0 min 0,000 mm 0,0 UV-I 12 W/m 9,9 C 10,5 C 4,8 km/h (1 Bft) 100,00 %
26.05.2016 05:42 10,5 C 96 % 1014,8 hPa 0,0 l/m 2,7 km/h (1 Bft) S-SW 199 0 min 0,000 mm 0,0 UV-I 12 W/m 9,9 C 10,5 C 3,2 km/h (1 Bft) 96,15 %
26.05.2016 05:43 10,5 C 96 % 1014,9 hPa 0,0 l/m 3,3 km/h (1 Bft) S-SW 199 0 min 0,000 mm 0,0 UV-I 13 W/m 9,9 C 10,5 C 4,8 km/h (1 Bft) 100,00 %
26.05.2016 05:44 10,5 C 96 % 1014,9 hPa 0,0 l/m 4,0 km/h (1 Bft) S-SW 199 0 min 0,000 mm 0,0 UV-I 14 W/m 9,9 C 10,5 C 4,8 km/h (1 Bft) 95,65 %
26.05.2016 05:45 10,5 C 96 % 1014,8 hPa 0,0 l/m 4,2 km/h (1 Bft) S-SW 199 0 min 0,000 mm 0,0 UV-I 14 W/m 9,9 C 10,5 C 4,8 km/h (1 Bft) 100,00 %
26.05.2016 05:46 10,6 C 96 % 1014,8 hPa 0,0 l/m 3,5 km/h (1 Bft) S-SW 199 0 min 0,000 mm 0,0 UV-I 16 W/m 10,0 C 10,6 C 4,8 km/h (1 Bft) 100,00 %
26.05.2016 05:47 10,5 C 96 % 1014,8 hPa 0,0 l/m 4,1 km/h (1 Bft) S-SW 198 0 min 0,000 mm 0,0 UV-I 16 W/m 9,9 C 10,5 C 4,8 km/h (1 Bft) 100,00 %
26.05.2016 05:48 10,5 C 96 % 1014,9 hPa 0,0 l/m 3,1 km/h (1 Bft) S-SW 198 0 min 0,000 mm 0,0 UV-I 18 W/m 9,9 C 10,5 C 4,8 km/h (1 Bft) 100,00 %
26.05.2016 05:49 10,5 C 96 % 1014,9 hPa 0,0 l/m 3,6 km/h (1 Bft) S-SW 198 0 min 0,000 mm 0,0 UV-I 20 W/m 9,9 C 10,5 C 4,8 km/h (1 Bft) 100,00 %
26.05.2016 05:50 10,5 C 96 % 1014,9 hPa 0,0 l/m 3,8 km/h (1 Bft) S-SW 198 0 min 0,000 mm 0,0 UV-I 24 W/m 9,9 C 10,5 C 4,8 km/h (1 Bft) 100,00 %
26.05.2016 05:51 10,5 C 96 % 1014,9 hPa 0,0 l/m 4,1 km/h (1 Bft) S-SW 194 0 min 0,000 mm 0,0 UV-I 25 W/m 9,9 C 10,5 C 6,4 km/h (2 Bft) 100,00 %
26.05.2016 05:52 10,4 C 96 % 1014,9 hPa 0,0 l/m 3,3 km/h (1 Bft) S-SW 194 0 min 0,000 mm 0,0 UV-I 26 W/m 9,8 C 10,4 C 4,8 km/h (1 Bft) 95,83 %
26.05.2016 05:53 10,4 C 96 % 1014,9 hPa 0,0 l/m 4,2 km/h (1 Bft) S-SW 194 0 min 0,000 mm 0,0 UV-I 28 W/m 9,8 C 10,4 C 6,4 km/h (2 Bft) 100,00 %
26.05.2016 05:54 10,4 C 96 % 1014,9 hPa 0,0 l/m 4,1 km/h (1 Bft) S-SW 192 0 min 0,000 mm 0,0 UV-I 28 W/m 9,8 C 10,4 C 6,4 km/h (2 Bft) 100,00 %
26.05.2016 05:55 10,4 C 96 % 1014,9 hPa 0,0 l/m 4,3 km/h (1 Bft) S-SW 192 0 min 0,000 mm 0,0 UV-I 28 W/m 9,8 C 10,4 C 4,8 km/h (1 Bft) 100,00 %
26.05.2016 05:56 10,4 C 96 % 1014,9 hPa 0,0 l/m 3,8 km/h (1 Bft) S-SW 192 0 min 0,000 mm 0,0 UV-I 29 W/m 9,8 C 10,4 C 6,4 km/h (2 Bft) 95,83 %
26.05.2016 05:57 10,4 C 96 % 1014,9 hPa 0,0 l/m 4,5 km/h (1 Bft) S-SW 192 0 min 0,000 mm 0,0 UV-I 30 W/m 9,8 C 10,4 C 6,4 km/h (2 Bft) 100,00 %
26.05.2016 05:58 10,4 C 96 % 1015,0 hPa 0,0 l/m 3,1 km/h (1 Bft) S-SW 192 0 min 0,000 mm 0,0 UV-I 30 W/m 9,8 C 10,4 C 4,8 km/h (1 Bft) 96,67 %
26.05.2016 05:59 10,4 C 96 % 1015,0 hPa 0,0 l/m 2,9 km/h (1 Bft) S-SW 192 0 min 0,000 mm 0,0 UV-I 33 W/m 9,8 C 10,4 C 4,8 km/h (1 Bft) 100,00 %
26.05.2016 06:00 10,4 C 96 % 1015,0 hPa 0,0 l/m 3,3 km/h (1 Bft) S-SW 192 0 min 0,000 mm 0,0 UV-I 34 W/m 9,8 C 10,4 C 4,8 km/h (1 Bft) 100,00 %
26.05.2016 06:02 10,4 C 96 % 1015,0 hPa 0,0 l/m 4,1 km/h (1 Bft) S-SW 192 0 min 0,000 mm 0,0 UV-I 35 W/m 9,8 C 10,4 C 6,4 km/h (2 Bft) 96,77 %
26.05.2016 06:03 10,4 C 96 % 1015,0 hPa 0,0 l/m 5,2 km/h (1 Bft) S-SW 193 0 min 0,000 mm 0,0 UV-I 37 W/m 9,8 C 10,4 C 6,4 km/h (2 Bft) 100,00 %
26.05.2016 06:04 10,4 C 96 % 1015,1 hPa 0,0 l/m 4,2 km/h (1 Bft) S-SW 192 0 min 0,000 mm 0,0 UV-I 39 W/m 9,8 C 10,4 C 4,8 km/h (1 Bft) 100,00 %
26.05.2016 06:05 10,4 C 96 % 1015,1 hPa 0,0 l/m 5,1 km/h (1 Bft) S 191 0 min 0,000 mm 0,0 UV-I 39 W/m 9,8 C 10,4 C 8,0 km/h (2 Bft) 95,83 %
26.05.2016 06:06 10,4 C 96 % 1015,1 hPa 0,0 l/m 5,7 km/h (1 Bft) S-SW 192 0 min 0,000 mm 0,0 UV-I 40 W/m 9,8 C 10,4 C 8,0 km/h (2 Bft) 100,00 %
26.05.2016 06:07 10,4 C 96 % 1015,0 hPa 0,0 l/m 4,6 km/h (1 Bft) S-SW 192 0 min 0,000 mm 0,0 UV-I 40 W/m 9,8 C 10,4 C 6,4 km/h (2 Bft) 100,00 %
26.05.2016 06:08 10,4 C 97 % 1015,0 hPa 0,0 l/m 4,3 km/h (1 Bft) S 188 0 min 0,000 mm 0,0 UV-I 40 W/m 9,9 C 10,4 C 6,4 km/h (2 Bft) 96,55 %
26.05.2016 06:09 10,4 C 97 % 1015,0 hPa 0,0 l/m 2,8 km/h (1 Bft) S 188 0 min 0,000 mm 0,0 UV-I 40 W/m 9,9 C 10,4 C 3,2 km/h (1 Bft) 100,00 %
26.05.2016 06:10 10,5 C 97 % 1015,0 hPa 0,0 l/m 4,3 km/h (1 Bft) S 186 0 min 0,000 mm 0,0 UV-I 40 W/m 10,0 C 10,5 C 4,8 km/h (1 Bft) 100,00 %
26.05.2016 06:11 10,5 C 97 % 1015,0 hPa 0,0 l/m 3,6 km/h (1 Bft) S 188 0 min 0,000 mm 0,0 UV-I 42 W/m 10,0 C 10,5 C 4,8 km/h (1 Bft) 100,00 %
26.05.2016 06:12 10,6 C 97 % 1015,0 hPa 0,0 l/m 3,8 km/h (1 Bft) S 188 0 min 0,000 mm 0,0 UV-I 43 W/m 10,1 C 10,6 C 4,8 km/h (1 Bft) 100,00 %
26.05.2016 06:13 10,6 C 97 % 1015,0 hPa 0,0 l/m 4,1 km/h (1 Bft) S 189 0 min 0,000 mm 0,0 UV-I 44 W/m 10,1 C 10,6 C 4,8 km/h (1 Bft) 100,00 %
26.05.2016 06:14 10,6 C 97 % 1015,0 hPa 0,0 l/m 4,3 km/h (1 Bft) S-SW 197 0 min 0,000 mm 0,0 UV-I 44 W/m 10,1 C 10,6 C 6,4 km/h (2 Bft) 100,00 %
26.05.2016 06:15 10,6 C 96 % 1015,0 hPa 0,0 l/m 4,6 km/h (1 Bft) S-SW 197 0 min 0,000 mm 0,0 UV-I 44 W/m 10,0 C 10,6 C 6,4 km/h (2 Bft) 100,00 %
26.05.2016 06:16 10,7 C 96 % 1015,0 hPa 0,0 l/m 4,4 km/h (1 Bft) S 189 0 min 0,000 mm 0,0 UV-I 46 W/m 10,1 C 10,7 C 6,4 km/h (2 Bft) 100,00 %
26.05.2016 06:17 10,7 C 97 % 1015,0 hPa 0,0 l/m 5,4 km/h (1 Bft) SW 215 0 min 0,000 mm 0,0 UV-I 46 W/m 10,2 C 10,7 C 6,4 km/h (2 Bft) 100,00 %
26.05.2016 06:18 10,7 C 97 % 1015,0 hPa 0,0 l/m 4,2 km/h (1 Bft) S-SW 213 0 min 0,000 mm 0,0 UV-I 46 W/m 10,2 C 10,7 C 4,8 km/h (1 Bft) 100,00 %
26.05.2016 06:19 10,7 C 97 % 1015,0 hPa 0,0 l/m 5,5 km/h (1 Bft) S-SW 210 0 min 0,000 mm 0,0 UV-I 47 W/m 10,2 C 10,7 C 8,0 km/h (2 Bft) 100,00 %
26.05.2016 06:20 10,8 C 97 % 1015,1 hPa 0,0 l/m 2,7 km/h (1 Bft) S-SW 210 0 min 0,000 mm 0,0 UV-I 48 W/m 10,3 C 10,8 C 4,8 km/h (1 Bft) 92,31 %
26.05.2016 06:21 10,8 C 96 % 1015,1 hPa 0,0 l/m 4,4 km/h (1 Bft) S-SW 202 0 min 0,000 mm 0,0 UV-I 49 W/m 10,2 C 10,8 C 6,4 km/h (2 Bft) 100,00 %
26.05.2016 06:22 10,8 C 96 % 1015,1 hPa 0,0 l/m 2,7 km/h (1 Bft) S-SW 202 0 min 0,000 mm 0,0 UV-I 49 W/m 10,2 C 10,8 C 4,8 km/h (1 Bft) 100,00 %
26.05.2016 06:23 10,8 C 96 % 1015,1 hPa 0,0 l/m 2,4 km/h (1 Bft) S-SW 202 0 min 0,000 mm 0,0 UV-I 51 W/m 10,2 C 10,8 C 4,8 km/h (1 Bft) 100,00 %
26.05.2016 06:24 10,8 C 96 % 1015,2 hPa 0,0 l/m 4,3 km/h (1 Bft) S-SW 202 0 min 0,000 mm 0,0 UV-I 51 W/m 10,2 C 10,8 C 6,4 km/h (2 Bft) 96,30 %
26.05.2016 06:25 10,8 C 96 % 1015,1 hPa 0,0 l/m 3,1 km/h (1 Bft) S-SW 202 0 min 0,000 mm 0,0 UV-I 51 W/m 10,2 C 10,8 C 4,8 km/h (1 Bft) 100,00 %
26.05.2016 06:26 10,7 C 96 % 1015,2 hPa 0,0 l/m 5,2 km/h (1 Bft) S-SW 202 0 min 0,000 mm 0,0 UV-I 53 W/m 10,1 C 10,7 C 6,4 km/h (2 Bft) 100,00 %
26.05.2016 06:27 10,7 C 96 % 1015,2 hPa 0,0 l/m 4,7 km/h (1 Bft) SW 215 0 min 0,000 mm 0,0 UV-I 53 W/m 10,1 C 10,7 C 6,4 km/h (2 Bft) 96,15 %
26.05.2016 06:28 10,7 C 96 % 1015,2 hPa 0,0 l/m 6,4 km/h (2 Bft) S-SW 202 0 min 0,000 mm 0,0 UV-I 54 W/m 10,1 C 10,7 C 9,7 km/h (2 Bft) 100,00 %
26.05.2016 06:29 10,7 C 96 % 1015,2 hPa 0,0 l/m 2,9 km/h (1 Bft) S-SW 213 0 min 0,000 mm 0,0 UV-I 54 W/m 10,1 C 10,7 C 4,8 km/h (1 Bft) 100,00 %
26.05.2016 06:30 10,7 C 96 % 1015,2 hPa 0,0 l/m 5,9 km/h (2 Bft) SW 214 0 min 0,000 mm 0,0 UV-I 57 W/m 10,1 C 10,7 C 8,0 km/h (2 Bft) 100,00 %
26.05.2016 06:31 10,7 C 96 % 1015,2 hPa 0,0 l/m 5,4 km/h (1 Bft) S-SW 202 0 min 0,000 mm 0,0 UV-I 58 W/m 10,1 C 10,7 C 6,4 km/h (2 Bft) 100,00 %
26.05.2016 06:32 10,7 C 96 % 1015,3 hPa 0,0 l/m 4,2 km/h (1 Bft) S-SW 202 0 min 0,000 mm 0,0 UV-I 58 W/m 10,1 C 10,7 C 6,4 km/h (2 Bft) 100,00 %
26.05.2016 06:33 10,8 C 96 % 1015,3 hPa 0,0 l/m 4,5 km/h (1 Bft) S-SW 208 0 min 0,000 mm 0,0 UV-I 60 W/m 10,2 C 10,8 C 6,4 km/h (2 Bft) 100,00 %
26.05.2016 06:34 10,8 C 96 % 1015,2 hPa 0,0 l/m 5,2 km/h (1 Bft) S-SW 208 0 min 0,000 mm 0,0 UV-I 62 W/m 10,2 C 10,8 C 6,4 km/h (2 Bft) 100,00 %
26.05.2016 06:35 10,8 C 96 % 1015,3 hPa 0,0 l/m 4,2 km/h (1 Bft) S-SW 203 0 min 0,000 mm 0,0 UV-I 74 W/m 10,2 C 10,8 C 4,8 km/h (1 Bft) 100,00 %
26.05.2016 06:36 10,9 C 96 % 1015,3 hPa 0,0 l/m 3,8 km/h (1 Bft) S-SW 202 0 min 0,000 mm 0,0 UV-I 85 W/m 10,3 C 10,9 C 4,8 km/h (1 Bft) 100,00 %
26.05.2016 06:37 10,9 C 96 % 1015,3 hPa 0,0 l/m 3,6 km/h (1 Bft) S-SW 202 0 min 0,000 mm 0,0 UV-I 90 W/m 10,3 C 10,9 C 4,8 km/h (1 Bft) 100,00 %
26.05.2016 06:38 11,0 C 96 % 1015,3 hPa 0,0 l/m 4,4 km/h (1 Bft) S-SW 194 0 min 0,000 mm 0,0 UV-I 92 W/m 10,4 C 11,0 C 6,4 km/h (2 Bft) 100,00 %
26.05.2016 06:39 11,1 C 96 % 1015,3 hPa 0,0 l/m 3,0 km/h (1 Bft) S-SW 194 0 min 0,000 mm 0,0 UV-I 95 W/m 10,5 C 11,1 C 4,8 km/h (1 Bft) 95,65 %
26.05.2016 06:40 11,1 C 96 % 1015,3 hPa 0,0 l/m 3,9 km/h (1 Bft) S-SW 194 0 min 0,000 mm 0,0 UV-I 97 W/m 10,5 C 11,1 C 4,8 km/h (1 Bft) 100,00 %
26.05.2016 06:41 11,2 C 96 % 1015,3 hPa 0,0 l/m 4,4 km/h (1 Bft) S-SW 198 0 min 0,000 mm 0,0 UV-I 99 W/m 10,6 C 11,2 C 4,8 km/h (1 Bft) 100,00 %
26.05.2016 06:42 11,2 C 96 % 1015,3 hPa 0,0 l/m 3,5 km/h (1 Bft) S-SW 205 0 min 0,000 mm 0,0 UV-I 101 W/m 10,6 C 11,2 C 4,8 km/h (1 Bft) 100,00 %
26.05.2016 06:43 11,2 C 96 % 1015,3 hPa 0,0 l/m 3,2 km/h (1 Bft) S 188 0 min 0,000 mm 0,0 UV-I 103 W/m 10,6 C 11,2 C 6,4 km/h (2 Bft) 98,78 %
26.05.2016 06:44 11,3 C 96 % 1015,3 hPa 0,0 l/m 4,6 km/h (1 Bft) S-SW 194 0 min 0,000 mm 0,0 UV-I 105 W/m 10,7 C 11,3 C 9,7 km/h (2 Bft) 100,00 %
26.05.2016 06:45 11,3 C 96 % 1015,3 hPa 0,0 l/m 2,7 km/h (1 Bft) S-SW 194 0 min 0,000 mm 0,0 UV-I 109 W/m 10,7 C 11,3 C 4,8 km/h (1 Bft) 95,83 %
26.05.2016 06:46 11,3 C 96 % 1015,4 hPa 0,0 l/m 4,4 km/h (1 Bft) S-SW 200 0 min 0,000 mm 0,0 UV-I 109 W/m 10,7 C 11,3 C 6,4 km/h (2 Bft) 100,00 %
26.05.2016 06:47 11,4 C 96 % 1015,3 hPa 0,0 l/m 3,9 km/h (1 Bft) S-SW 204 0 min 0,000 mm 0,0 UV-I 112 W/m 10,8 C 11,4 C 6,4 km/h (2 Bft) 92,59 %
26.05.2016 06:48 11,4 C 96 % 1015,3 hPa 0,0 l/m 5,3 km/h (1 Bft) S-SW 206 0 min 0,000 mm 0,0 UV-I 116 W/m 10,8 C 11,4 C 8,0 km/h (2 Bft) 95,65 %
26.05.2016 06:49 11,5 C 96 % 1015,3 hPa 0,0 l/m 3,8 km/h (1 Bft) S-SW 203 0 min 0,000 mm 0,0 UV-I 120 W/m 10,9 C 11,5 C 6,4 km/h (2 Bft) 100,00 %
26.05.2016 06:50 11,6 C 96 % 1015,4 hPa 0,0 l/m 3,9 km/h (1 Bft) S-SW 207 0 min 0,000 mm 0,0 UV-I 122 W/m 11,0 C 11,6 C 4,8 km/h (1 Bft) 92,31 %
26.05.2016 06:51 11,6 C 96 % 1015,4 hPa 0,0 l/m 5,1 km/h (1 Bft) S 173 0 min 0,000 mm 0,0 UV-I 125 W/m 11,0 C 11,6 C 8,0 km/h (2 Bft) 100,00 %
26.05.2016 06:52 11,6 C 96 % 1015,4 hPa 0,0 l/m 4,8 km/h (1 Bft) S-SW 200 0 min 0,000 mm 0,0 UV-I 126 W/m 11,0 C 11,6 C 8,0 km/h (2 Bft) 95,65 %
26.05.2016 06:53 11,7 C 96 % 1015,4 hPa 0,0 l/m 4,2 km/h (1 Bft) S 183 0 min 0,000 mm 0,0 UV-I 127 W/m 11,1 C 11,7 C 6,4 km/h (2 Bft) 95,83 %
26.05.2016 06:54 11,7 C 95 % 1015,4 hPa 0,0 l/m 4,0 km/h (1 Bft) S 183 0 min 0,000 mm 0,0 UV-I 128 W/m 10,9 C 11,7 C 6,4 km/h (2 Bft) 100,00 %
26.05.2016 06:55 11,7 C 95 % 1015,4 hPa 0,0 l/m 5,8 km/h (2 Bft) S 186 0 min 0,000 mm 0,0 UV-I 132 W/m 10,9 C 11,7 C 8,0 km/h (2 Bft) 92,59 %
26.05.2016 06:56 11,7 C 95 % 1015,4 hPa 0,0 l/m 5,7 km/h (1 Bft) S 176 0 min 0,000 mm 0,0 UV-I 134 W/m 10,9 C 11,7 C 6,4 km/h (2 Bft) 96,15 %
26.05.2016 06:57 11,8 C 95 % 1015,4 hPa 0,0 l/m 5,1 km/h (1 Bft) S-SW 192 0 min 0,000 mm 0,0 UV-I 135 W/m 11,0 C 11,8 C 9,7 km/h (2 Bft) 93,33 %
26.05.2016 06:58 11,8 C 95 % 1015,4 hPa 0,0 l/m 7,0 km/h (2 Bft) S-SW 194 0 min 0,000 mm 0,0 UV-I 140 W/m 11,0 C 11,4 C 9,7 km/h (2 Bft) 100,00 %
26.05.2016 06:59 11,8 C 95 % 1015,4 hPa 0,0 l/m 4,4 km/h (1 Bft) S 175 0 min 0,000 mm 0,0 UV-I 143 W/m 11,0 C 11,8 C 6,4 km/h (2 Bft) 92,59 %
26.05.2016 07:00 11,9 C 95 % 1015,4 hPa 0,0 l/m 4,1 km/h (1 Bft) S 178 1 min 0,025 mm 0,0 UV-I 145 W/m 11,1 C 11,9 C 8,0 km/h (2 Bft) 100,00 %
26.05.2016 07:02 11,9 C 95 % 1015,5 hPa 0,0 l/m 4,8 km/h (1 Bft) S-SW 198 2 min 0,000 mm 0,0 UV-I 148 W/m 11,1 C 11,9 C 8,0 km/h (2 Bft) 95,74 %
26.05.2016 07:03 12,0 C 95 % 1015,5 hPa 0,0 l/m 2,3 km/h (1 Bft) S-SW 196 1 min 0,000 mm 0,0 UV-I 150 W/m 11,2 C 12,0 C 4,8 km/h (1 Bft) 95,83 %
26.05.2016 07:04 12,1 C 95 % 1015,5 hPa 0,0 l/m 4,3 km/h (1 Bft) S 190 1 min 0,000 mm 0,0 UV-I 154 W/m 11,3 C 12,1 C 8,0 km/h (2 Bft) 96,15 %
26.05.2016 07:05 12,1 C 95 % 1015,5 hPa 0,0 l/m 3,1 km/h (1 Bft) S-SW 210 1 min 0,000 mm 0,0 UV-I 155 W/m 11,3 C 12,1 C 4,8 km/h (1 Bft) 100,00 %
26.05.2016 07:06 12,1 C 95 % 1015,5 hPa 0,0 l/m 3,7 km/h (1 Bft) S-SW 210 1 min 0,000 mm 0,0 UV-I 156 W/m 11,3 C 12,1 C 4,8 km/h (1 Bft) 91,67 %
26.05.2016 07:07 12,1 C 95 % 1015,5 hPa 0,0 l/m 6,5 km/h (2 Bft) S-SW 207 1 min 0,000 mm 0,0 UV-I 156 W/m 11,3 C 12,1 C 8,0 km/h (2 Bft) 100,00 %
26.05.2016 07:08 12,1 C 95 % 1015,5 hPa 0,0 l/m 5,2 km/h (1 Bft) SW 215 1 min 0,000 mm 0,0 UV-I 162 W/m 11,3 C 12,1 C 8,0 km/h (2 Bft) 93,33 %
26.05.2016 07:09 12,2 C 95 % 1015,5 hPa 0,0 l/m 6,0 km/h (2 Bft) S-SW 206 1 min 0,000 mm 0,0 UV-I 166 W/m 11,4 C 12,2 C 9,7 km/h (2 Bft) 90,91 %
26.05.2016 07:10 12,2 C 95 % 1015,4 hPa 0,0 l/m 4,2 km/h (1 Bft) SW 233 1 min 0,000 mm 0,0 UV-I 170 W/m 11,4 C 12,2 C 6,4 km/h (2 Bft) 96,67 %
26.05.2016 07:11 12,2 C 94 % 1015,5 hPa 0,0 l/m 3,0 km/h (1 Bft) SW 233 1 min 0,000 mm 0,0 UV-I 173 W/m 11,3 C 12,2 C 4,8 km/h (1 Bft) 100,00 %
26.05.2016 07:12 12,3 C 95 % 1015,4 hPa 0,0 l/m 4,6 km/h (1 Bft) S-SW 201 1 min 0,000 mm 0,0 UV-I 177 W/m 11,5 C 12,3 C 4,8 km/h (1 Bft) 96,30 %
26.05.2016 07:13 12,3 C 94 % 1015,4 hPa 0,0 l/m 5,0 km/h (1 Bft) SW 236 1 min 0,000 mm 0,0 UV-I 180 W/m 11,4 C 12,3 C 6,4 km/h (2 Bft) 100,00 %
26.05.2016 07:14 12,4 C 94 % 1015,4 hPa 0,0 l/m 3,6 km/h (1 Bft) SW 232 1 min 0,000 mm 0,0 UV-I 181 W/m 11,5 C 12,4 C 4,8 km/h (1 Bft) 95,83 %
26.05.2016 07:15 12,4 C 94 % 1015,5 hPa 0,0 l/m 3,4 km/h (1 Bft) W-SW 243 1 min 0,000 mm 0,0 UV-I 186 W/m 11,5 C 12,4 C 6,4 km/h (2 Bft) 96,15 %
26.05.2016 07:16 12,4 C 94 % 1015,5 hPa 0,0 l/m 4,3 km/h (1 Bft) S-SW 201 1 min 0,000 mm 0,0 UV-I 188 W/m 11,5 C 12,4 C 8,0 km/h (2 Bft) 100,00 %
26.05.2016 07:17 12,4 C 94 % 1015,5 hPa 0,0 l/m 5,8 km/h (2 Bft) SW 227 1 min 0,000 mm 0,0 UV-I 190 W/m 11,5 C 12,4 C 8,0 km/h (2 Bft) 96,15 %
26.05.2016 07:18 12,5 C 94 % 1015,5 hPa 0,0 l/m 6,6 km/h (2 Bft) SW 228 1 min 0,000 mm 0,0 UV-I 192 W/m 11,6 C 12,4 C 8,0 km/h (2 Bft) 100,00 %
26.05.2016 07:19 12,6 C 94 % 1015,5 hPa 0,0 l/m 4,4 km/h (1 Bft) S-SW 207 1 min 0,000 mm 0,0 UV-I 192 W/m 11,7 C 12,6 C 6,4 km/h (2 Bft) 95,65 %
26.05.2016 07:20 12,6 C 94 % 1015,5 hPa 0,0 l/m 7,2 km/h (2 Bft) SW 236 1 min 0,000 mm 0,0 UV-I 192 W/m 11,7 C 12,1 C 8,0 km/h (2 Bft) 95,83 %
26.05.2016 07:21 12,6 C 94 % 1015,5 hPa 0,0 l/m 5,6 km/h (1 Bft) SW 230 1 min 0,000 mm 0,5 UV-I 192 W/m 11,7 C 12,6 C 8,0 km/h (2 Bft) 100,00 %
26.05.2016 07:22 12,6 C 94 % 1015,5 hPa 0,0 l/m 4,2 km/h (1 Bft) SW 227 1 min 0,000 mm 0,5 UV-I 191 W/m 11,7 C 12,6 C 6,4 km/h (2 Bft) 100,00 %
26.05.2016 07:23 12,6 C 94 % 1015,5 hPa 0,0 l/m 5,0 km/h (1 Bft) SW 235 1 min 0,000 mm 0,5 UV-I 190 W/m 11,7 C 12,6 C 8,0 km/h (2 Bft) 100,00 %
26.05.2016 07:24 12,7 C 94 % 1015,5 hPa 0,0 l/m 5,1 km/h (1 Bft) SW 234 1 min 0,000 mm 0,5 UV-I 190 W/m 11,8 C 12,7 C 6,4 km/h (2 Bft) 95,83 %
26.05.2016 07:25 12,7 C 94 % 1015,4 hPa 0,0 l/m 4,7 km/h (1 Bft) W-SW 238 1 min 0,000 mm 0,5 UV-I 188 W/m 11,8 C 12,7 C 6,4 km/h (2 Bft) 100,00 %
26.05.2016 07:26 12,7 C 94 % 1015,4 hPa 0,0 l/m 3,6 km/h (1 Bft) SW 215 1 min 0,000 mm 0,5 UV-I 190 W/m 11,8 C 12,7 C 6,4 km/h (2 Bft) 96,15 %
26.05.2016 07:27 12,8 C 93 % 1015,4 hPa 0,0 l/m 2,9 km/h (1 Bft) S-SW 213 1 min 0,000 mm 0,5 UV-I 191 W/m 11,7 C 12,8 C 6,4 km/h (2 Bft) 100,00 %
26.05.2016 07:28 12,8 C 93 % 1015,5 hPa 0,0 l/m 5,8 km/h (2 Bft) W 262 1 min 0,000 mm 0,5 UV-I 192 W/m 11,7 C 12,8 C 9,7 km/h (2 Bft) 95,65 %
26.05.2016 07:29 12,8 C 93 % 1015,4 hPa 0,0 l/m 7,1 km/h (2 Bft) W-SW 238 1 min 0,000 mm 0,5 UV-I 193 W/m 11,7 C 12,4 C 9,7 km/h (2 Bft) 100,00 %
26.05.2016 07:30 12,8 C 93 % 1015,4 hPa 0,0 l/m 5,4 km/h (1 Bft) SW 232 1 min 0,000 mm 0,5 UV-I 194 W/m 11,7 C 12,8 C 6,4 km/h (2 Bft) 100,00 %
26.05.2016 07:31 12,9 C 93 % 1015,4 hPa 0,0 l/m 6,0 km/h (2 Bft) SW 236 1 min 0,000 mm 0,6 UV-I 199 W/m 11,8 C 12,9 C 8,0 km/h (2 Bft) 96,30 %
26.05.2016 07:32 12,9 C 93 % 1015,4 hPa 0,0 l/m 7,4 km/h (2 Bft) W-SW 242 1 min 0,000 mm 0,6 UV-I 205 W/m 11,8 C 12,3 C 9,7 km/h (2 Bft) 100,00 %
26.05.2016 07:33 12,9 C 93 % 1015,4 hPa 0,0 l/m 8,4 km/h (2 Bft) S-SW 213 1 min 0,000 mm 0,6 UV-I 211 W/m 11,8 C 11,7 C 11,3 km/h (2 Bft) 95,83 %
26.05.2016 07:34 13,0 C 92 % 1015,5 hPa 0,0 l/m 7,4 km/h (2 Bft) SW 233 1 min 0,000 mm 0,6 UV-I 218 W/m 11,7 C 12,4 C 9,7 km/h (2 Bft) 100,00 %
26.05.2016 07:35 13,1 C 92 % 1015,5 hPa 0,0 l/m 6,2 km/h (2 Bft) SW 224 1 min 0,000 mm 0,6 UV-I 226 W/m 11,8 C 13,1 C 11,3 km/h (2 Bft) 95,83 %
26.05.2016 07:36 13,1 C 92 % 1015,5 hPa 0,0 l/m 6,8 km/h (2 Bft) S-SW 208 1 min 0,000 mm 0,6 UV-I 234 W/m 11,8 C 12,9 C 9,7 km/h (2 Bft) 100,00 %
26.05.2016 07:37 13,1 C 92 % 1015,5 hPa 0,0 l/m 5,1 km/h (1 Bft) W-SW 242 1 min 0,000 mm 0,6 UV-I 240 W/m 11,8 C 13,1 C 8,0 km/h (2 Bft) 100,00 %
26.05.2016 07:38 13,1 C 92 % 1015,5 hPa 0,0 l/m 5,5 km/h (1 Bft) SW 226 1 min 0,000 mm 0,6 UV-I 245 W/m 11,8 C 13,1 C 9,7 km/h (2 Bft) 100,00 %
26.05.2016 07:39 13,2 C 92 % 1015,5 hPa 0,0 l/m 3,8 km/h (1 Bft) SW 223 1 min 0,000 mm 0,6 UV-I 249 W/m 11,9 C 13,2 C 4,8 km/h (1 Bft) 100,00 %
26.05.2016 07:40 13,2 C 92 % 1015,5 hPa 0,0 l/m 6,0 km/h (2 Bft) W-SW 238 1 min 0,000 mm 0,6 UV-I 254 W/m 11,9 C 13,2 C 9,7 km/h (2 Bft) 100,00 %
26.05.2016 07:41 13,2 C 92 % 1015,5 hPa 0,0 l/m 4,5 km/h (1 Bft) W-SW 239 1 min 0,000 mm 0,7 UV-I 257 W/m 11,9 C 13,2 C 8,0 km/h (2 Bft) 97,37 %
26.05.2016 07:42 13,2 C 92 % 1015,4 hPa 0,0 l/m 8,2 km/h (2 Bft) SW 230 1 min 0,000 mm 0,7 UV-I 258 W/m 11,9 C 12,1 C 9,7 km/h (2 Bft) 100,00 %
26.05.2016 07:43 13,3 C 92 % 1015,4 hPa 0,0 l/m 6,8 km/h (2 Bft) W-SW 251 1 min 0,000 mm 0,7 UV-I 262 W/m 12,0 C 13,1 C 8,0 km/h (2 Bft) 100,00 %
26.05.2016 07:44 13,3 C 91 % 1015,4 hPa 0,0 l/m 6,4 km/h (2 Bft) SW 234 1 min 0,000 mm 0,7 UV-I 265 W/m 11,9 C 13,3 C 9,7 km/h (2 Bft) 98,41 %
26.05.2016 07:45 13,3 C 91 % 1015,4 hPa 0,0 l/m 5,2 km/h (1 Bft) SW 229 1 min 0,000 mm 0,7 UV-I 269 W/m 11,9 C 13,3 C 8,0 km/h (2 Bft) 100,00 %
26.05.2016 07:46 13,3 C 91 % 1015,4 hPa 0,0 l/m 6,4 km/h (2 Bft) SW 230 1 min 0,000 mm 0,7 UV-I 274 W/m 11,9 C 13,3 C 8,0 km/h (2 Bft) 100,00 %
26.05.2016 07:47 13,3 C 91 % 1015,3 hPa 0,0 l/m 6,2 km/h (2 Bft) W-SW 238 1 min 0,000 mm 0,7 UV-I 278 W/m 11,9 C 13,3 C 8,0 km/h (2 Bft) 100,00 %
26.05.2016 07:48 13,3 C 91 % 1015,4 hPa 0,0 l/m 6,0 km/h (2 Bft) W-SW 237 1 min 0,000 mm 0,8 UV-I 279 W/m 11,9 C 13,3 C 8,0 km/h (2 Bft) 95,83 %
26.05.2016 07:49 13,4 C 91 % 1015,3 hPa 0,0 l/m 6,3 km/h (2 Bft) W-SW 238 1 min 0,000 mm 0,8 UV-I 281 W/m 12,0 C 13,4 C 8,0 km/h (2 Bft) 100,00 %
26.05.2016 07:50 13,4 C 91 % 1015,4 hPa 0,0 l/m 6,2 km/h (2 Bft) SW 236 1 min 0,000 mm 0,8 UV-I 284 W/m 12,0 C 13,4 C 6,4 km/h (2 Bft) 100,00 %
26.05.2016 07:51 13,4 C 91 % 1015,4 hPa 0,0 l/m 5,7 km/h (1 Bft) SW 227 1 min 0,000 mm 0,8 UV-I 286 W/m 12,0 C 13,4 C 6,4 km/h (2 Bft) 95,65 %
26.05.2016 07:52 13,4 C 91 % 1015,4 hPa 0,0 l/m 6,1 km/h (2 Bft) SW 235 1 min 0,000 mm 0,8 UV-I 287 W/m 12,0 C 13,4 C 8,0 km/h (2 Bft) 100,00 %
26.05.2016 07:53 13,4 C 91 % 1015,4 hPa 0,0 l/m 5,7 km/h (1 Bft) SW 236 1 min 0,000 mm 0,8 UV-I 288 W/m 12,0 C 13,4 C 8,0 km/h (2 Bft) 100,00 %
26.05.2016 07:54 13,5 C 91 % 1015,4 hPa 0,0 l/m 4,9 km/h (1 Bft) SW 236 1 min 0,000 mm 0,9 UV-I 292 W/m 12,1 C 13,5 C 6,4 km/h (2 Bft) 100,00 %
26.05.2016 07:55 13,6 C 91 % 1015,5 hPa 0,0 l/m 3,3 km/h (1 Bft) SW 225 1 min 0,000 mm 0,9 UV-I 292 W/m 12,2 C 13,6 C 6,4 km/h (2 Bft) 100,00 %
26.05.2016 07:56 13,6 C 91 % 1015,5 hPa 0,0 l/m 5,7 km/h (1 Bft) S-SW 198 1 min 0,000 mm 0,9 UV-I 295 W/m 12,2 C 13,6 C 8,0 km/h (2 Bft) 100,00 %
26.05.2016 07:57 13,6 C 90 % 1015,5 hPa 0,0 l/m 5,3 km/h (1 Bft) SW 225 1 min 0,000 mm 0,9 UV-I 300 W/m 12,0 C 13,6 C 8,0 km/h (2 Bft) 100,00 %
26.05.2016 07:58 13,6 C 91 % 1015,5 hPa 0,0 l/m 5,6 km/h (1 Bft) SW 225 1 min 0,000 mm 0,9 UV-I 301 W/m 12,2 C 13,6 C 8,0 km/h (2 Bft) 100,00 %
26.05.2016 07:59 13,6 C 91 % 1015,5 hPa 0,0 l/m 3,3 km/h (1 Bft) W-SW 255 1 min 0,000 mm 0,9 UV-I 303 W/m 12,2 C 13,6 C 6,4 km/h (2 Bft) 100,00 %
26.05.2016 08:00 13,6 C 92 % 1015,5 hPa 0,0 l/m 3,7 km/h (1 Bft) W 263 1 min 0,000 mm 0,9 UV-I 308 W/m 12,3 C 13,6 C 6,4 km/h (2 Bft) 96,30 %
26.05.2016 08:02 13,7 C 91 % 1015,5 hPa 0,0 l/m 3,3 km/h (1 Bft) W-SW 238 2 min 0,102 mm 0,9 UV-I 312 W/m 12,3 C 13,7 C 4,8 km/h (1 Bft) 100,00 %
26.05.2016 08:03 13,7 C 91 % 1015,5 hPa 0,0 l/m 2,4 km/h (1 Bft) SW 216 1 min 0,000 mm 1,0 UV-I 314 W/m 12,3 C 13,7 C 3,2 km/h (1 Bft) 100,00 %
26.05.2016 08:04 13,7 C 90 % 1015,5 hPa 0,0 l/m 2,5 km/h (1 Bft) SW 216 1 min 0,000 mm 1,0 UV-I 319 W/m 12,1 C 13,7 C 3,2 km/h (1 Bft) 100,00 %
26.05.2016 08:05 13,7 C 90 % 1015,6 hPa 0,0 l/m 3,5 km/h (1 Bft) S-SW 213 1 min 0,000 mm 1,0 UV-I 324 W/m 12,1 C 13,7 C 4,8 km/h (1 Bft) 100,00 %
26.05.2016 08:06 13,7 C 91 % 1015,6 hPa 0,0 l/m 3,6 km/h (1 Bft) S-SW 213 1 min 0,000 mm 1,0 UV-I 327 W/m 12,3 C 13,7 C 4,8 km/h (1 Bft) 100,00 %
26.05.2016 08:07 13,7 C 92 % 1015,6 hPa 0,0 l/m 1,2 km/h (1 Bft) S-SW 213 1 min 0,000 mm 1,0 UV-I 326 W/m 12,4 C 13,7 C 3,2 km/h (1 Bft) 100,00 %
26.05.2016 08:08 13,8 C 91 % 1015,6 hPa 0,0 l/m 1,5 km/h (1 Bft) S-SW 213 1 min 0,000 mm 1,0 UV-I 334 W/m 12,4 C 13,8 C 3,2 km/h (1 Bft) 100,00 %
26.05.2016 08:09 13,8 C 91 % 1015,6 hPa 0,0 l/m 1,5 km/h (1 Bft) S-SW 213 1 min 0,000 mm 1,1 UV-I 340 W/m 12,4 C 13,8 C 3,2 km/h (1 Bft) 100,00 %
26.05.2016 08:10 13,8 C 92 % 1015,6 hPa 0,0 l/m 1,9 km/h (1 Bft) S-SW 211 1 min 0,000 mm 1,1 UV-I 345 W/m 12,5 C 13,8 C 3,2 km/h (1 Bft) 98,52 %
26.05.2016 08:11 13,9 C 90 % 1015,7 hPa 0,0 l/m 3,8 km/h (1 Bft) S-SW 199 1 min 0,000 mm 1,1 UV-I 351 W/m 12,3 C 13,9 C 6,4 km/h (2 Bft) 100,00 %
26.05.2016 08:12 13,9 C 91 % 1015,6 hPa 0,0 l/m 3,8 km/h (1 Bft) SW 217 1 min 0,000 mm 1,1 UV-I 353 W/m 12,5 C 13,9 C 6,4 km/h (2 Bft) 100,00 %
26.05.2016 08:13 13,9 C 91 % 1015,6 hPa 0,0 l/m 4,3 km/h (1 Bft) SW 223 1 min 0,000 mm 1,1 UV-I 355 W/m 12,5 C 13,9 C 4,8 km/h (1 Bft) 95,83 %
26.05.2016 08:14 14,0 C 91 % 1015,6 hPa 0,0 l/m 3,8 km/h (1 Bft) SW 214 1 min 0,000 mm 1,1 UV-I 356 W/m 12,6 C 14,0 C 6,4 km/h (2 Bft) 95,65 %
26.05.2016 08:15 14,0 C 91 % 1015,7 hPa 0,0 l/m 4,5 km/h (1 Bft) S-SW 209 1 min 0,000 mm 1,2 UV-I 358 W/m 12,6 C 14,0 C 6,4 km/h (2 Bft) 100,00 %
26.05.2016 08:16 14,0 C 90 % 1015,7 hPa 0,0 l/m 4,1 km/h (1 Bft) SW 215 1 min 0,000 mm 1,2 UV-I 362 W/m 12,4 C 14,0 C 8,0 km/h (2 Bft) 100,00 %
26.05.2016 08:17 14,0 C 90 % 1015,7 hPa 0,0 l/m 6,0 km/h (2 Bft) S-SW 204 1 min 0,000 mm 1,2 UV-I 366 W/m 12,4 C 14,0 C 8,0 km/h (2 Bft) 100,00 %
26.05.2016 08:18 14,0 C 90 % 1015,7 hPa 0,0 l/m 4,2 km/h (1 Bft) S-SW 193 1 min 0,000 mm 1,2 UV-I 332 W/m 12,4 C 14,0 C 8,0 km/h (2 Bft) 100,00 %
26.05.2016 08:19 14,1 C 91 % 1015,7 hPa 0,0 l/m 4,9 km/h (1 Bft) S 188 1 min 0,000 mm 1,2 UV-I 342 W/m 12,7 C 14,1 C 6,4 km/h (2 Bft) 100,00 %
26.05.2016 08:20 14,1 C 91 % 1015,7 hPa 0,0 l/m 1,8 km/h (1 Bft) S 188 1 min 0,000 mm 1,1 UV-I 310 W/m 12,7 C 14,1 C 4,8 km/h (1 Bft) 100,00 %
26.05.2016 08:21 14,1 C 90 % 1015,7 hPa 0,0 l/m 3,4 km/h (1 Bft) W-SW 248 1 min 0,000 mm 1,3 UV-I 390 W/m 12,5 C 14,1 C 4,8 km/h (1 Bft) 100,00 %
26.05.2016 08:22 14,2 C 90 % 1015,7 hPa 0,0 l/m 3,6 km/h (1 Bft) W-SW 248 1 min 0,000 mm 1,3 UV-I 388 W/m 12,6 C 14,2 C 4,8 km/h (1 Bft) 100,00 %
26.05.2016 08:23 14,2 C 91 % 1015,7 hPa 0,0 l/m 2,8 km/h (1 Bft) W-SW 248 1 min 0,000 mm 1,3 UV-I 384 W/m 12,8 C 14,2 C 3,2 km/h (1 Bft) 100,00 %
26.05.2016 08:24 14,3 C 90 % 1015,7 hPa 0,0 l/m 1,7 km/h (1 Bft) W-SW 248 1 min 0,000 mm 1,3 UV-I 380 W/m 12,7 C 14,3 C 3,2 km/h (1 Bft) 95,83 %
26.05.2016 08:25 14,3 C 90 % 1015,7 hPa 0,0 l/m 2,3 km/h (1 Bft) W-SW 256 1 min 0,000 mm 1,3 UV-I 360 W/m 12,7 C 14,3 C 4,8 km/h (1 Bft) 100,00 %
26.05.2016 08:26 14,4 C 90 % 1015,7 hPa 0,0 l/m 2,0 km/h (1 Bft) W-SW 256 1 min 0,000 mm 1,3 UV-I 402 W/m 12,8 C 14,4 C 4,8 km/h (1 Bft) 100,00 %
26.05.2016 08:27 14,4 C 89 % 1015,7 hPa 0,0 l/m 3,6 km/h (1 Bft) W-SW 242 1 min 0,000 mm 1,3 UV-I 405 W/m 12,6 C 14,4 C 6,4 km/h (2 Bft) 100,00 %
26.05.2016 08:28 14,4 C 89 % 1015,7 hPa 0,0 l/m 2,3 km/h (1 Bft) W-SW 242 1 min 0,000 mm 1,4 UV-I 392 W/m 12,6 C 14,4 C 3,2 km/h (1 Bft) 100,00 %
26.05.2016 08:29 14,4 C 89 % 1015,7 hPa 0,0 l/m 2,0 km/h (1 Bft) W-SW 242 1 min 0,000 mm 1,4 UV-I 402 W/m 12,6 C 14,4 C 3,2 km/h (1 Bft) 100,00 %
26.05.2016 08:30 14,5 C 89 % 1015,8 hPa 0,0 l/m 4,4 km/h (1 Bft) W-SW 257 1 min 0,000 mm 1,4 UV-I 385 W/m 12,7 C 14,5 C 6,4 km/h (2 Bft) 100,00 %
26.05.2016 08:31 14,5 C 89 % 1015,8 hPa 0,0 l/m 3,5 km/h (1 Bft) W 261 1 min 0,000 mm 1,4 UV-I 349 W/m 12,7 C 14,5 C 4,8 km/h (1 Bft) 100,00 %
26.05.2016 08:32 14,6 C 89 % 1015,8 hPa 0,0 l/m 2,3 km/h (1 Bft) W 261 1 min 0,000 mm 1,4 UV-I 425 W/m 12,8 C 14,6 C 3,2 km/h (1 Bft) 100,00 %
26.05.2016 08:33 14,6 C 89 % 1015,7 hPa 0,0 l/m 1,1 km/h (1 Bft) W 261 1 min 0,000 mm 1,4 UV-I 425 W/m 12,8 C 14,6 C 3,2 km/h (1 Bft) 100,00 %
26.05.2016 08:34 14,6 C 88 % 1015,7 hPa 0,0 l/m 0,0 km/h (0 Bft) W 261 1 min 0,000 mm 1,4 UV-I 425 W/m 12,6 C 14,6 C 0,0 km/h (0 Bft) 100,00 %
26.05.2016 08:35 14,6 C 89 % 1015,7 hPa 0,0 l/m 1,2 km/h (1 Bft) W 266 1 min 0,000 mm 1,4 UV-I 425 W/m 12,8 C 14,6 C 4,8 km/h (1 Bft) 100,00 %
26.05.2016 08:36 14,6 C 89 % 1015,8 hPa 0,0 l/m 4,9 km/h (1 Bft) W 260 1 min 0,000 mm 1,5 UV-I 444 W/m 12,8 C 14,6 C 6,4 km/h (2 Bft) 100,00 %
26.05.2016 08:37 14,6 C 88 % 1015,8 hPa 0,0 l/m 2,9 km/h (1 Bft) W-SW 255 1 min 0,000 mm 1,5 UV-I 447 W/m 12,6 C 14,6 C 4,8 km/h (1 Bft) 100,00 %
26.05.2016 08:38 14,6 C 88 % 1015,8 hPa 0,0 l/m 2,3 km/h (1 Bft) W-SW 245 1 min 0,000 mm 1,5 UV-I 433 W/m 12,6 C 14,6 C 3,2 km/h (1 Bft) 100,00 %
26.05.2016 08:39 14,7 C 88 % 1015,8 hPa 0,0 l/m 2,6 km/h (1 Bft) W-SW 248 1 min 0,000 mm 1,5 UV-I 435 W/m 12,7 C 14,7 C 4,8 km/h (1 Bft) 100,00 %
26.05.2016 08:40 14,7 C 88 % 1015,8 hPa 0,0 l/m 3,4 km/h (1 Bft) W-SW 246 1 min 0,000 mm 1,6 UV-I 447 W/m 12,7 C 14,7 C 4,8 km/h (1 Bft) 100,00 %
26.05.2016 08:41 14,7 C 88 % 1015,8 hPa 0,0 l/m 1,6 km/h (1 Bft) W-SW 246 1 min 0,000 mm 1,6 UV-I 448 W/m 12,7 C 14,7 C 3,2 km/h (1 Bft) 100,00 %
26.05.2016 08:42 14,7 C 88 % 1015,8 hPa 0,0 l/m 1,2 km/h (1 Bft) W-SW 246 1 min 0,000 mm 1,6 UV-I 448 W/m 12,7 C 14,7 C 1,6 km/h (1 Bft) 100,00 %
26.05.2016 08:43 14,8 C 88 % 1015,9 hPa 0,0 l/m 4,6 km/h (1 Bft) SW 234 1 min 0,000 mm 1,7 UV-I 477 W/m 12,8 C 14,8 C 6,4 km/h (2 Bft) 100,00 %
26.05.2016 08:44 14,8 C 89 % 1015,9 hPa 0,0 l/m 5,0 km/h (1 Bft) SW 218 1 min 0,000 mm 1,7 UV-I 471 W/m 13,0 C 14,8 C 6,4 km/h (2 Bft) 100,00 %
26.05.2016 08:45 14,9 C 89 % 1015,9 hPa 0,0 l/m 3,4 km/h (1 Bft) S-SW 208 1 min 0,000 mm 1,6 UV-I 454 W/m 13,1 C 14,9 C 6,4 km/h (2 Bft) 100,00 %
26.05.2016 08:46 14,8 C 88 % 1015,9 hPa 0,0 l/m 2,5 km/h (1 Bft) S-SW 196 1 min 0,000 mm 1,6 UV-I 454 W/m 12,8 C 14,8 C 6,4 km/h (2 Bft) 100,00 %
26.05.2016 08:47 14,8 C 88 % 1015,9 hPa 0,0 l/m 4,6 km/h (1 Bft) S 188 1 min 0,000 mm 1,7 UV-I 461 W/m 12,8 C 14,8 C 6,4 km/h (2 Bft) 100,00 %
26.05.2016 08:48 14,8 C 88 % 1015,9 hPa 0,0 l/m 3,0 km/h (1 Bft) W 260 1 min 0,000 mm 1,6 UV-I 432 W/m 12,8 C 14,8 C 4,8 km/h (1 Bft) 96,15 %
26.05.2016 08:49 14,8 C 88 % 1015,9 hPa 0,0 l/m 2,7 km/h (1 Bft) W 260 0 min 0,000 mm 1,5 UV-I 265 W/m 12,8 C 14,8 C 4,8 km/h (1 Bft) 100,00 %
26.05.2016 08:50 14,9 C 90 % 1015,9 hPa 0,0 l/m 2,6 km/h (1 Bft) W-NW 293 1 min 0,000 mm 1,8 UV-I 360 W/m 13,3 C 14,9 C 4,8 km/h (1 Bft) 95,65 %
26.05.2016 08:51 15,1 C 88 % 1015,9 hPa 0,0 l/m 3,7 km/h (1 Bft) W-NW 302 1 min 0,000 mm 1,8 UV-I 491 W/m 13,1 C 15,1 C 6,4 km/h (2 Bft) 100,00 %
26.05.2016 08:52 15,1 C 88 % 1015,9 hPa 0,0 l/m 1,0 km/h (0 Bft) NW 306 1 min 0,000 mm 1,8 UV-I 470 W/m 13,1 C 15,1 C 3,2 km/h (1 Bft) 95,65 %
26.05.2016 08:53 15,2 C 88 % 1015,9 hPa 0,0 l/m 0,6 km/h (0 Bft) W 274 1 min 0,000 mm 1,8 UV-I 414 W/m 13,2 C 15,2 C 4,8 km/h (1 Bft) 100,00 %
26.05.2016 08:54 15,3 C 88 % 1015,8 hPa 0,0 l/m 2,7 km/h (1 Bft) W-NW 293 1 min 0,000 mm 1,9 UV-I 406 W/m 13,3 C 15,3 C 4,8 km/h (1 Bft) 95,65 %
26.05.2016 08:55 15,3 C 86 % 1015,9 hPa 0,0 l/m 3,4 km/h (1 Bft) NW 313 1 min 0,000 mm 1,9 UV-I 442 W/m 13,0 C 15,3 C 4,8 km/h (1 Bft) 96,30 %
26.05.2016 08:56 15,3 C 87 % 1015,9 hPa 0,0 l/m 3,1 km/h (1 Bft) W-NW 284 1 min 0,000 mm 1,9 UV-I 502 W/m 13,1 C 15,3 C 4,8 km/h (1 Bft) 96,15 %
26.05.2016 08:57 15,4 C 87 % 1015,8 hPa 0,0 l/m 3,6 km/h (1 Bft) W-NW 282 1 min 0,000 mm 1,9 UV-I 478 W/m 13,2 C 15,4 C 4,8 km/h (1 Bft) 100,00 %
26.05.2016 08:58 15,5 C 86 % 1015,8 hPa 0,0 l/m 3,6 km/h (1 Bft) W-SW 250 1 min 0,000 mm 1,8 UV-I 469 W/m 13,2 C 15,5 C 6,4 km/h (2 Bft) 96,55 %
26.05.2016 08:59 15,5 C 87 % 1015,8 hPa 0,0 l/m 2,7 km/h (1 Bft) W-SW 250 1 min 0,000 mm 1,9 UV-I 471 W/m 13,3 C 15,5 C 4,8 km/h (1 Bft) 95,83 %
26.05.2016 09:00 15,6 C 86 % 1015,8 hPa 0,0 l/m 2,2 km/h (1 Bft) W-SW 250 1 min 0,000 mm 2,0 UV-I 522 W/m 13,3 C 15,6 C 4,8 km/h (1 Bft) 95,65 %
26.05.2016 09:02 15,6 C 86 % 1015,7 hPa 0,0 l/m 3,3 km/h (1 Bft) W-SW 244 2 min 0,203 mm 2,1 UV-I 506 W/m 13,3 C 15,6 C 6,4 km/h (2 Bft) 98,00 %
26.05.2016 09:03 15,6 C 85 % 1015,7 hPa 0,0 l/m 7,0 km/h (2 Bft) W-SW 243 1 min 0,000 mm 2,0 UV-I 416 W/m 13,1 C 15,3 C 8,0 km/h (2 Bft) 91,67 %
26.05.2016 09:04 15,6 C 86 % 1015,8 hPa 0,0 l/m 4,5 km/h (1 Bft) W 261 1 min 0,000 mm 2,1 UV-I 380 W/m 13,3 C 15,6 C 6,4 km/h (2 Bft) 100,00 %
26.05.2016 09:05 15,6 C 85 % 1015,8 hPa 0,0 l/m 4,3 km/h (1 Bft) W-SW 244 1 min 0,000 mm 2,2 UV-I 523 W/m 13,1 C 15,6 C 4,8 km/h (1 Bft) 96,15 %
26.05.2016 09:06 15,5 C 85 % 1015,8 hPa 0,0 l/m 1,9 km/h (1 Bft) W-SW 244 1 min 0,000 mm 2,1 UV-I 492 W/m 13,0 C 15,5 C 4,8 km/h (1 Bft) 95,83 %
26.05.2016 09:07 15,6 C 88 % 1015,8 hPa 0,0 l/m 2,0 km/h (1 Bft) W 279 1 min 0,000 mm 2,0 UV-I 414 W/m 13,6 C 15,6 C 3,2 km/h (1 Bft) 100,00 %
26.05.2016 09:08 15,7 C 87 % 1015,8 hPa 0,0 l/m 2,0 km/h (1 Bft) W 281 1 min 0,000 mm 1,9 UV-I 364 W/m 13,5 C 15,7 C 3,2 km/h (1 Bft) 96,30 %
26.05.2016 09:09 15,6 C 86 % 1015,8 hPa 0,0 l/m 0,5 km/h (0 Bft) N-NW 330 1 min 0,000 mm 1,8 UV-I 334 W/m 13,3 C 15,6 C 1,6 km/h (1 Bft) 90,91 %
26.05.2016 09:10 15,7 C 87 % 1015,8 hPa 0,0 l/m 2,3 km/h (1 Bft) N-NW 343 1 min 0,000 mm 1,9 UV-I 358 W/m 13,5 C 15,7 C 3,2 km/h (1 Bft) 96,30 %
26.05.2016 09:11 15,7 C 86 % 1015,8 hPa 0,0 l/m 3,5 km/h (1 Bft) N 5 1 min 0,000 mm 1,8 UV-I 334 W/m 13,4 C 15,7 C 4,8 km/h (1 Bft) 100,00 %
26.05.2016 09:12 15,7 C 85 % 1015,8 hPa 0,0 l/m 3,4 km/h (1 Bft) N 5 0 min 0,000 mm 1,9 UV-I 325 W/m 13,2 C 15,7 C 4,8 km/h (1 Bft) 95,83 %
26.05.2016 09:13 15,7 C 85 % 1015,8 hPa 0,0 l/m 3,0 km/h (1 Bft) N 5 0 min 0,000 mm 1,8 UV-I 296 W/m 13,2 C 15,7 C 4,8 km/h (1 Bft) 95,65 %
26.05.2016 09:14 15,7 C 86 % 1015,8 hPa 0,0 l/m 2,5 km/h (1 Bft) N 5 0 min 0,000 mm 1,8 UV-I 322 W/m 13,4 C 15,7 C 3,2 km/h (1 Bft) 95,83 %
26.05.2016 09:15 15,7 C 86 % 1015,8 hPa 0,0 l/m 2,3 km/h (1 Bft) N 5 1 min 0,000 mm 1,9 UV-I 333 W/m 13,4 C 15,7 C 3,2 km/h (1 Bft) 95,65 %
26.05.2016 09:16 15,8 C 88 % 1015,8 hPa 0,0 l/m 1,4 km/h (1 Bft) N 5 0 min 0,000 mm 1,9 UV-I 333 W/m 13,8 C 15,8 C 3,2 km/h (1 Bft) 100,00 %
26.05.2016 09:17 15,8 C 86 % 1015,8 hPa 0,0 l/m 1,4 km/h (1 Bft) N 5 0 min 0,000 mm 1,8 UV-I 327 W/m 13,5 C 15,8 C 3,2 km/h (1 Bft) 96,30 %
26.05.2016 09:18 15,7 C 85 % 1015,8 hPa 0,0 l/m 2,6 km/h (1 Bft) N 5 0 min 0,000 mm 1,9 UV-I 278 W/m 13,2 C 15,7 C 3,2 km/h (1 Bft) 100,00 %
26.05.2016 09:19 15,8 C 86 % 1015,8 hPa 0,0 l/m 1,6 km/h (1 Bft) N 5 0 min 0,000 mm 2,2 UV-I 328 W/m 13,5 C 15,8 C 3,2 km/h (1 Bft) 96,15 %
26.05.2016 09:20 15,8 C 86 % 1015,8 hPa 0,0 l/m 1,9 km/h (1 Bft) N 5 1 min 0,000 mm 2,1 UV-I 445 W/m 13,5 C 15,8 C 3,2 km/h (1 Bft) 95,83 %
26.05.2016 09:21 15,9 C 85 % 1015,7 hPa 0,0 l/m 3,0 km/h (1 Bft) N 5 1 min 0,000 mm 2,1 UV-I 408 W/m 13,4 C 15,9 C 4,8 km/h (1 Bft) 100,00 %
26.05.2016 09:22 15,9 C 86 % 1015,7 hPa 0,0 l/m 3,7 km/h (1 Bft) NO 34 1 min 0,000 mm 2,3 UV-I 390 W/m 13,6 C 15,9 C 4,8 km/h (1 Bft) 100,00 %
26.05.2016 09:23 16,0 C 84 % 1015,7 hPa 0,0 l/m 3,2 km/h (1 Bft) NO 35 1 min 0,000 mm 2,4 UV-I 390 W/m 13,3 C 16,0 C 4,8 km/h (1 Bft) 96,30 %
26.05.2016 09:24 16,0 C 84 % 1015,7 hPa 0,0 l/m 4,8 km/h (1 Bft) NO 56 1 min 0,000 mm 2,4 UV-I 473 W/m 13,3 C 16,0 C 6,4 km/h (2 Bft) 100,00 %
26.05.2016 09:25 16,1 C 85 % 1015,7 hPa 0,0 l/m 5,7 km/h (1 Bft) O-NO 65 1 min 0,000 mm 2,5 UV-I 473 W/m 13,6 C 16,1 C 8,0 km/h (2 Bft) 100,00 %
26.05.2016 09:26 16,1 C 84 % 1015,7 hPa 0,0 l/m 2,2 km/h (1 Bft) O-NO 65 1 min 0,000 mm 2,3 UV-I 473 W/m 13,4 C 16,1 C 4,8 km/h (1 Bft) 100,00 %
26.05.2016 09:27 16,0 C 84 % 1015,6 hPa 0,0 l/m 2,6 km/h (1 Bft) O-NO 65 1 min 0,000 mm 2,1 UV-I 355 W/m 13,3 C 16,0 C 4,8 km/h (1 Bft) 100,00 %
26.05.2016 09:28 15,9 C 84 % 1015,7 hPa 0,0 l/m 4,8 km/h (1 Bft) O 95 0 min 0,000 mm 2,1 UV-I 342 W/m 13,2 C 15,9 C 6,4 km/h (2 Bft) 100,00 %
26.05.2016 09:29 15,8 C 83 % 1015,7 hPa 0,0 l/m 3,4 km/h (1 Bft) SO 124 0 min 0,000 mm 2,5 UV-I 343 W/m 12,9 C 15,8 C 4,8 km/h (1 Bft) 100,00 %
26.05.2016 09:30 15,7 C 83 % 1015,7 hPa 0,0 l/m 3,0 km/h (1 Bft) SO 127 0 min 0,000 mm 2,5 UV-I 343 W/m 12,8 C 15,7 C 4,8 km/h (1 Bft) 91,30 %
26.05.2016 09:31 15,7 C 85 % 1015,7 hPa 0,0 l/m 1,7 km/h (1 Bft) SO 127 1 min 0,000 mm 2,7 UV-I 471 W/m 13,2 C 15,7 C 3,2 km/h (1 Bft) 100,00 %
26.05.2016 09:32 15,8 C 84 % 1015,7 hPa 0,0 l/m 0,7 km/h (0 Bft) SO 127 1 min 0,000 mm 2,7 UV-I 632 W/m 13,1 C 15,8 C 1,6 km/h (1 Bft) 100,00 %
26.05.2016 09:33 15,8 C 86 % 1015,7 hPa 0,0 l/m 0,2 km/h (0 Bft) SO 127 1 min 0,000 mm 2,7 UV-I 643 W/m 13,5 C 15,8 C 1,6 km/h (1 Bft) 95,83 %
26.05.2016 09:34 15,9 C 85 % 1015,7 hPa 0,0 l/m 0,1 km/h (0 Bft) SO 127 1 min 0,000 mm 2,7 UV-I 656 W/m 13,4 C 15,9 C 1,6 km/h (1 Bft) 100,00 %
26.05.2016 09:35 15,9 C 84 % 1015,7 hPa 0,0 l/m 0,1 km/h (0 Bft) SO 127 1 min 0,000 mm 2,8 UV-I 671 W/m 13,2 C 15,9 C 1,6 km/h (1 Bft) 100,00 %
26.05.2016 09:36 16,0 C 84 % 1015,7 hPa 0,0 l/m 0,6 km/h (0 Bft) SO 127 1 min 0,000 mm 2,8 UV-I 680 W/m 13,3 C 16,0 C 1,6 km/h (1 Bft) 100,00 %
26.05.2016 09:37 16,0 C 84 % 1015,7 hPa 0,0 l/m 0,7 km/h (0 Bft) SO 127 1 min 0,000 mm 2,8 UV-I 691 W/m 13,3 C 16,0 C 3,2 km/h (1 Bft) 100,00 %
26.05.2016 09:38 16,1 C 84 % 1015,7 hPa 0,0 l/m 0,2 km/h (0 Bft) SO 127 1 min 0,000 mm 2,9 UV-I 703 W/m 13,4 C 16,1 C 1,6 km/h (1 Bft) 100,00 %
26.05.2016 09:39 16,2 C 83 % 1015,7 hPa 0,0 l/m 0,8 km/h (0 Bft) SO 127 1 min 0,000 mm 2,8 UV-I 702 W/m 13,3 C 16,2 C 1,6 km/h (1 Bft) 100,00 %
26.05.2016 09:40 16,2 C 84 % 1015,7 hPa 0,0 l/m 2,0 km/h (1 Bft) O-SO 111 1 min 0,000 mm 2,9 UV-I 706 W/m 13,5 C 16,2 C 3,2 km/h (1 Bft) 100,00 %
26.05.2016 09:41 16,3 C 84 % 1015,7 hPa 0,0 l/m 1,9 km/h (1 Bft) O-NO 67 1 min 0,000 mm 2,9 UV-I 722 W/m 13,6 C 16,3 C 6,4 km/h (2 Bft) 96,55 %
26.05.2016 09:42 16,3 C 85 % 1015,7 hPa 0,0 l/m 4,8 km/h (1 Bft) NO 41 1 min 0,000 mm 2,7 UV-I 715 W/m 13,8 C 16,3 C 6,4 km/h (2 Bft) 100,00 %
26.05.2016 09:43 16,6 C 86 % 1015,7 hPa 0,0 l/m 6,0 km/h (2 Bft) NO 49 1 min 0,000 mm 2,8 UV-I 693 W/m 14,2 C 16,6 C 8,0 km/h (2 Bft) 100,00 %
26.05.2016 09:44 16,7 C 84 % 1015,7 hPa 0,0 l/m 4,8 km/h (1 Bft) N-NO 26 1 min 0,000 mm 2,4 UV-I 528 W/m 14,0 C 16,7 C 6,4 km/h (2 Bft) 100,00 %
26.05.2016 09:45 16,8 C 83 % 1015,7 hPa 0,0 l/m 4,2 km/h (1 Bft) N-NO 26 1 min 0,000 mm 2,6 UV-I 413 W/m 13,9 C 16,8 C 4,8 km/h (1 Bft) 100,00 %
26.05.2016 09:46 16,8 C 81 % 1015,8 hPa 0,0 l/m 4,8 km/h (1 Bft) NO 42 1 min 0,000 mm 2,9 UV-I 708 W/m 13,5 C 16,8 C 6,4 km/h (2 Bft) 100,00 %
26.05.2016 09:47 16,8 C 82 % 1015,7 hPa 0,0 l/m 3,6 km/h (1 Bft) NO 42 1 min 0,000 mm 2,7 UV-I 735 W/m 13,7 C 16,8 C 6,4 km/h (2 Bft) 100,00 %
26.05.2016 09:48 16,8 C 82 % 1015,7 hPa 0,0 l/m 3,7 km/h (1 Bft) N-NO 33 1 min 0,000 mm 2,9 UV-I 735 W/m 13,7 C 16,8 C 4,8 km/h (1 Bft) 96,30 %
26.05.2016 09:49 16,8 C 82 % 1015,8 hPa 0,0 l/m 2,1 km/h (1 Bft) N-NO 33 1 min 0,000 mm 3,1 UV-I 710 W/m 13,7 C 16,8 C 4,8 km/h (1 Bft) 98,55 %
26.05.2016 09:50 16,9 C 81 % 1015,8 hPa 0,0 l/m 1,7 km/h (1 Bft) NO 36 1 min 0,000 mm 3,1 UV-I 709 W/m 13,6 C 16,9 C 3,2 km/h (1 Bft) 100,00 %
26.05.2016 09:51 16,8 C 82 % 1015,8 hPa 0,0 l/m 2,5 km/h (1 Bft) NO 38 1 min 0,000 mm 3,1 UV-I 725 W/m 13,7 C 16,8 C 3,2 km/h (1 Bft) 100,00 %
26.05.2016 09:52 16,8 C 81 % 1015,8 hPa 0,0 l/m 1,9 km/h (1 Bft) NO 38 1 min 0,000 mm 3,0 UV-I 691 W/m 13,5 C 16,8 C 3,2 km/h (1 Bft) 96,30 %
26.05.2016 09:53 16,8 C 83 % 1015,8 hPa 0,0 l/m 0,9 km/h (0 Bft) NO 38 1 min 0,000 mm 2,9 UV-I 687 W/m 13,9 C 16,8 C 1,6 km/h (1 Bft) 98,55 %
26.05.2016 09:54 16,8 C 81 % 1015,8 hPa 0,0 l/m 0,6 km/h (0 Bft) NO 38 1 min 0,000 mm 3,1 UV-I 659 W/m 13,5 C 16,8 C 1,6 km/h (1 Bft) 100,00 %
26.05.2016 09:55 16,8 C 83 % 1015,8 hPa 0,0 l/m 1,2 km/h (1 Bft) NO 38 1 min 0,000 mm 3,2 UV-I 679 W/m 13,9 C 16,8 C 3,2 km/h (1 Bft) 100,00 %
26.05.2016 09:56 17,0 C 83 % 1015,8 hPa 0,0 l/m 0,8 km/h (0 Bft) NO 38 1 min 0,000 mm 3,3 UV-I 765 W/m 14,1 C 17,0 C 1,6 km/h (1 Bft) 100,00 %
26.05.2016 09:57 17,1 C 84 % 1015,8 hPa 0,0 l/m 2,0 km/h (1 Bft) NO 34 1 min 0,000 mm 3,3 UV-I 772 W/m 14,4 C 17,1 C 4,8 km/h (1 Bft) 100,00 %
26.05.2016 09:58 17,2 C 82 % 1015,8 hPa 0,0 l/m 3,4 km/h (1 Bft) N 9 1 min 0,000 mm 3,4 UV-I 797 W/m 14,1 C 17,2 C 4,8 km/h (1 Bft) 100,00 %
26.05.2016 09:59 17,2 C 81 % 1015,7 hPa 0,0 l/m 3,6 km/h (1 Bft) N-NO 19 1 min 0,000 mm 3,5 UV-I 841 W/m 13,9 C 17,2 C 6,4 km/h (2 Bft) 100,00 %
26.05.2016 10:00 17,4 C 85 % 1015,7 hPa 0,0 l/m 3,2 km/h (1 Bft) N 350 1 min 0,305 mm 3,5 UV-I 860 W/m 14,8 C 17,4 C 4,8 km/h (1 Bft) 100,00 %
26.05.2016 10:02 17,7 C 82 % 1015,7 hPa 0,0 l/m 2,0 km/h (1 Bft) NW 304 2 min 0,000 mm 3,6 UV-I 852 W/m 14,6 C 17,7 C 4,8 km/h (1 Bft) 97,87 %
26.05.2016 10:03 17,8 C 80 % 1015,7 hPa 0,0 l/m 3,9 km/h (1 Bft) NW 309 1 min 0,000 mm 3,6 UV-I 882 W/m 14,3 C 17,8 C 6,4 km/h (2 Bft) 100,00 %
26.05.2016 10:04 17,7 C 80 % 1015,7 hPa 0,0 l/m 3,5 km/h (1 Bft) NW 324 1 min 0,000 mm 3,6 UV-I 926 W/m 14,2 C 17,7 C 6,4 km/h (2 Bft) 100,00 %
26.05.2016 10:05 17,7 C 78 % 1015,7 hPa 0,0 l/m 1,9 km/h (1 Bft) W-NW 286 1 min 0,000 mm 3,8 UV-I 932 W/m 13,8 C 17,7 C 4,8 km/h (1 Bft) 100,00 %
26.05.2016 10:06 17,6 C 79 % 1015,8 hPa 0,0 l/m 2,9 km/h (1 Bft) W-SW 252 1 min 0,000 mm 3,8 UV-I 923 W/m 13,9 C 17,6 C 6,4 km/h (2 Bft) 100,00 %
26.05.2016 10:07 17,6 C 80 % 1015,8 hPa 0,0 l/m 4,4 km/h (1 Bft) W 265 1 min 0,000 mm 3,5 UV-I 887 W/m 14,1 C 17,6 C 6,4 km/h (2 Bft) 100,00 %
26.05.2016 10:08 17,6 C 78 % 1015,8 hPa 0,0 l/m 2,0 km/h (1 Bft) W 265 1 min 0,000 mm 3,5 UV-I 847 W/m 13,7 C 17,6 C 3,2 km/h (1 Bft) 90,91 %
26.05.2016 10:09 17,4 C 79 % 1015,7 hPa 0,0 l/m 0,2 km/h (0 Bft) W 265 1 min 0,000 mm 3,3 UV-I 847 W/m 13,7 C 17,4 C 1,6 km/h (1 Bft) 96,67 %
26.05.2016 10:10 17,4 C 81 % 1015,7 hPa 0,0 l/m 1,8 km/h (1 Bft) N 10 1 min 0,000 mm 2,8 UV-I 847 W/m 14,1 C 17,4 C 4,8 km/h (1 Bft) 100,00 %
26.05.2016 10:11 17,6 C 83 % 1015,7 hPa 0,0 l/m 2,1 km/h (1 Bft) N 355 1 min 0,000 mm 2,8 UV-I 743 W/m 14,7 C 17,6 C 6,4 km/h (2 Bft) 100,00 %
26.05.2016 10:12 17,6 C 81 % 1015,8 hPa 0,0 l/m 1,8 km/h (1 Bft) N 355 1 min 0,000 mm 2,8 UV-I 492 W/m 14,3 C 17,6 C 3,2 km/h (1 Bft) 100,00 %
26.05.2016 10:13 17,5 C 80 % 1015,7 hPa 0,0 l/m 1,0 km/h (0 Bft) N 355 1 min 0,000 mm 3,2 UV-I 594 W/m 14,0 C 17,5 C 1,6 km/h (1 Bft) 100,00 %
26.05.2016 10:14 17,5 C 80 % 1015,8 hPa 0,0 l/m 1,0 km/h (0 Bft) N 355 1 min 0,000 mm 3,0 UV-I 673 W/m 14,0 C 17,5 C 1,6 km/h (1 Bft) 98,60 %
26.05.2016 10:15 17,4 C 80 % 1015,8 hPa 0,0 l/m 1,0 km/h (0 Bft) N 355 1 min 0,000 mm 3,3 UV-I 608 W/m 13,9 C 17,4 C 1,6 km/h (1 Bft) 100,00 %
26.05.2016 10:16 17,3 C 79 % 1015,8 hPa 0,0 l/m 0,1 km/h (0 Bft) N 360 1 min 0,000 mm 3,4 UV-I 604 W/m 13,6 C 17,3 C 1,6 km/h (1 Bft) 100,00 %
26.05.2016 10:17 17,2 C 80 % 1015,8 hPa 0,0 l/m 0,4 km/h (0 Bft) N 360 1 min 0,000 mm 2,9 UV-I 657 W/m 13,7 C 17,2 C 1,6 km/h (1 Bft) 100,00 %
26.05.2016 10:18 17,1 C 79 % 1015,8 hPa 0,0 l/m 3,6 km/h (1 Bft) N-NO 20 1 min 0,000 mm 2,7 UV-I 598 W/m 13,4 C 17,1 C 6,4 km/h (2 Bft) 100,00 %
26.05.2016 10:19 17,1 C 84 % 1015,8 hPa 0,0 l/m 5,1 km/h (1 Bft) N-NO 15 1 min 0,000 mm 2,7 UV-I 487 W/m 14,4 C 17,1 C 6,4 km/h (2 Bft) 100,00 %
26.05.2016 10:20 17,2 C 81 % 1015,8 hPa 0,0 l/m 4,0 km/h (1 Bft) N-NO 13 1 min 0,000 mm 2,6 UV-I 432 W/m 13,9 C 17,2 C 6,4 km/h (2 Bft) 100,00 %
26.05.2016 10:21 17,2 C 84 % 1015,8 hPa 0,0 l/m 2,8 km/h (1 Bft) N-NW 330 1 min 0,000 mm 2,7 UV-I 416 W/m 14,5 C 17,2 C 4,8 km/h (1 Bft) 100,00 %
26.05.2016 10:22 17,3 C 83 % 1015,8 hPa 0,0 l/m 1,6 km/h (1 Bft) NW 325 1 min 0,000 mm 2,9 UV-I 496 W/m 14,4 C 17,3 C 4,8 km/h (1 Bft) 100,00 %
26.05.2016 10:23 17,3 C 81 % 1015,8 hPa 0,0 l/m 2,5 km/h (1 Bft) N 355 1 min 0,000 mm 2,9 UV-I 467 W/m 14,0 C 17,3 C 4,8 km/h (1 Bft) 100,00 %
26.05.2016 10:24 17,3 C 81 % 1015,8 hPa 0,0 l/m 4,1 km/h (1 Bft) N-NO 31 1 min 0,000 mm 3,4 UV-I 503 W/m 14,0 C 17,3 C 8,0 km/h (2 Bft) 100,00 %
26.05.2016 10:25 17,4 C 83 % 1015,8 hPa 0,0 l/m 4,5 km/h (1 Bft) N-NO 31 1 min 0,000 mm 3,2 UV-I 503 W/m 14,5 C 17,4 C 6,4 km/h (2 Bft) 100,00 %
26.05.2016 10:26 17,5 C 80 % 1015,8 hPa 0,0 l/m 1,6 km/h (1 Bft) N-NW 327 1 min 0,000 mm 3,0 UV-I 503 W/m 14,0 C 17,5 C 3,2 km/h (1 Bft) 100,00 %
26.05.2016 10:27 17,6 C 81 % 1015,8 hPa 0,0 l/m 1,7 km/h (1 Bft) N-NW 333 1 min 0,000 mm 3,2 UV-I 503 W/m 14,3 C 17,6 C 4,8 km/h (1 Bft) 100,00 %
26.05.2016 10:28 17,6 C 80 % 1015,8 hPa 0,0 l/m 3,9 km/h (1 Bft) N-NO 15 1 min 0,000 mm 3,2 UV-I 511 W/m 14,1 C 17,6 C 6,4 km/h (2 Bft) 92,59 %
26.05.2016 10:29 17,6 C 81 % 1015,8 hPa 0,0 l/m 4,8 km/h (1 Bft) N-NO 32 1 min 0,000 mm 3,2 UV-I 534 W/m 14,3 C 17,6 C 6,4 km/h (2 Bft) 100,00 %
26.05.2016 10:30 17,6 C 79 % 1015,8 hPa 0,0 l/m 4,4 km/h (1 Bft) N-NO 22 1 min 0,000 mm 3,8 UV-I 534 W/m 13,9 C 17,6 C 4,8 km/h (1 Bft) 100,00 %
26.05.2016 10:31 17,6 C 80 % 1015,8 hPa 0,0 l/m 3,8 km/h (1 Bft) N-NO 26 1 min 0,000 mm 4,2 UV-I 534 W/m 14,1 C 17,6 C 4,8 km/h (1 Bft) 100,00 %
26.05.2016 10:32 17,7 C 79 % 1015,8 hPa 0,0 l/m 5,2 km/h (1 Bft) NO 52 1 min 0,000 mm 4,4 UV-I 534 W/m 14,0 C 17,7 C 6,4 km/h (2 Bft) 100,00 %
26.05.2016 10:33 17,7 C 80 % 1015,8 hPa 0,0 l/m 4,6 km/h (1 Bft) N 9 1 min 0,000 mm 3,9 UV-I 962 W/m 14,2 C 17,7 C 6,4 km/h (2 Bft) 100,00 %
26.05.2016 10:34 17,7 C 78 % 1015,8 hPa 0,0 l/m 1,5 km/h (1 Bft) N 9 1 min 0,000 mm 4,5 UV-I 1009 W/m 13,8 C 17,7 C 3,2 km/h (1 Bft) 100,00 %
26.05.2016 10:35 17,7 C 77 % 1015,8 hPa 0,0 l/m 1,3 km/h (1 Bft) N 350 1 min 0,000 mm 4,6 UV-I 1020 W/m 13,6 C 17,7 C 1,6 km/h (1 Bft) 100,00 %
26.05.2016 10:36 17,8 C 81 % 1015,8 hPa 0,0 l/m 1,2 km/h (1 Bft) N-NW 346 1 min 0,000 mm 4,3 UV-I 1007 W/m 14,5 C 17,8 C 3,2 km/h (1 Bft) 100,00 %
26.05.2016 10:37 17,8 C 81 % 1015,8 hPa 0,0 l/m 3,6 km/h (1 Bft) N-NO 23 1 min 0,000 mm 4,2 UV-I 1007 W/m 14,5 C 17,8 C 4,8 km/h (1 Bft) 100,00 %
26.05.2016 10:38 17,8 C 80 % 1015,8 hPa 0,0 l/m 2,8 km/h (1 Bft) NW 326 1 min 0,000 mm 4,1 UV-I 1007 W/m 14,3 C 17,8 C 3,2 km/h (1 Bft) 100,00 %
26.05.2016 10:39 17,9 C 81 % 1015,8 hPa 0,0 l/m 2,7 km/h (1 Bft) N 5 1 min 0,000 mm 3,5 UV-I 544 W/m 14,6 C 17,9 C 4,8 km/h (1 Bft) 100,00 %
26.05.2016 10:40 17,9 C 82 % 1015,8 hPa 0,0 l/m 2,3 km/h (1 Bft) O-NO 67 1 min 0,000 mm 3,1 UV-I 460 W/m 14,8 C 17,9 C 3,2 km/h (1 Bft) 100,00 %
26.05.2016 10:41 17,9 C 83 % 1015,8 hPa 0,0 l/m 2,4 km/h (1 Bft) N-NO 22 1 min 0,000 mm 3,0 UV-I 431 W/m 15,0 C 17,9 C 6,4 km/h (2 Bft) 100,00 %
26.05.2016 10:42 17,8 C 80 % 1015,8 hPa 0,0 l/m 2,1 km/h (1 Bft) N-NW 344 0 min 0,000 mm 2,9 UV-I 416 W/m 14,3 C 17,8 C 3,2 km/h (1 Bft) 95,65 %
26.05.2016 10:43 17,7 C 81 % 1015,8 hPa 0,0 l/m 4,5 km/h (1 Bft) N 9 0 min 0,000 mm 3,0 UV-I 409 W/m 14,4 C 17,7 C 8,0 km/h (2 Bft) 100,00 %
26.05.2016 10:44 17,5 C 81 % 1015,7 hPa 0,0 l/m 5,6 km/h (1 Bft) N-NO 13 1 min 0,000 mm 2,7 UV-I 448 W/m 14,2 C 17,5 C 12,9 km/h (3 Bft) 100,00 %
26.05.2016 10:45 17,5 C 82 % 1015,8 hPa 0,0 l/m 4,0 km/h (1 Bft) NO 45 1 min 0,000 mm 3,1 UV-I 468 W/m 14,4 C 17,5 C 6,4 km/h (2 Bft) 100,00 %
26.05.2016 10:46 17,4 C 81 % 1015,8 hPa 0,0 l/m 5,7 km/h (1 Bft) NO 51 1 min 0,000 mm 3,3 UV-I 466 W/m 14,1 C 17,4 C 11,3 km/h (2 Bft) 96,15 %
26.05.2016 10:47 17,6 C 82 % 1015,7 hPa 0,0 l/m 5,7 km/h (1 Bft) N-NO 33 1 min 0,000 mm 4,5 UV-I 466 W/m 14,5 C 17,6 C 9,7 km/h (2 Bft) 100,00 %
26.05.2016 10:48 17,7 C 82 % 1015,8 hPa 0,0 l/m 7,9 km/h (2 Bft) NO 46 1 min 0,000 mm 4,8 UV-I 738 W/m 14,6 C 17,0 C 11,3 km/h (2 Bft) 100,00 %
26.05.2016 10:49 17,9 C 85 % 1015,7 hPa 0,0 l/m 5,9 km/h (2 Bft) NO 38 1 min 0,000 mm 4,7 UV-I 1052 W/m 15,3 C 17,9 C 11,3 km/h (2 Bft) 96,30 %
26.05.2016 10:50 18,2 C 81 % 1015,8 hPa 0,0 l/m 7,9 km/h (2 Bft) NO 46 1 min 0,000 mm 4,9 UV-I 967 W/m 14,9 C 17,5 C 11,3 km/h (2 Bft) 96,55 %
26.05.2016 10:51 18,3 C 82 % 1015,8 hPa 0,0 l/m 3,0 km/h (1 Bft) NO 38 1 min 0,000 mm 4,8 UV-I 904 W/m 15,2 C 18,3 C 6,4 km/h (2 Bft) 100,00 %
26.05.2016 10:52 18,4 C 83 % 1015,8 hPa 0,0 l/m 1,9 km/h (1 Bft) N 5 1 min 0,000 mm 4,1 UV-I 863 W/m 15,5 C 18,4 C 3,2 km/h (1 Bft) 92,86 %
26.05.2016 10:53 18,3 C 79 % 1015,7 hPa 0,0 l/m 2,0 km/h (1 Bft) N-NW 333 1 min 0,000 mm 3,7 UV-I 766 W/m 14,6 C 18,3 C 4,8 km/h (1 Bft) 100,00 %
26.05.2016 10:54 18,2 C 78 % 1015,8 hPa 0,0 l/m 2,7 km/h (1 Bft) N-NW 342 1 min 0,000 mm 3,6 UV-I 766 W/m 14,3 C 18,2 C 4,8 km/h (1 Bft) 93,10 %
26.05.2016 10:55 18,0 C 76 % 1015,8 hPa 0,0 l/m 1,9 km/h (1 Bft) N 355 1 min 0,000 mm 3,8 UV-I 766 W/m 13,7 C 18,0 C 3,2 km/h (1 Bft) 100,00 %
26.05.2016 10:56 17,9 C 80 % 1015,8 hPa 0,0 l/m 1,7 km/h (1 Bft) N-NO 26 1 min 0,000 mm 4,4 UV-I 667 W/m 14,4 C 17,9 C 4,8 km/h (1 Bft) 96,15 %
26.05.2016 10:57 17,8 C 77 % 1015,8 hPa 0,0 l/m 3,1 km/h (1 Bft) N-NO 30 1 min 0,000 mm 4,3 UV-I 664 W/m 13,7 C 17,8 C 4,8 km/h (1 Bft) 95,83 %
26.05.2016 10:58 17,7 C 77 % 1015,8 hPa 0,0 l/m 3,1 km/h (1 Bft) NO 47 1 min 0,000 mm 4,4 UV-I 730 W/m 13,6 C 17,7 C 6,4 km/h (2 Bft) 100,00 %
26.05.2016 10:59 17,8 C 79 % 1015,7 hPa 0,0 l/m 5,0 km/h (1 Bft) N 11 1 min 0,000 mm 4,6 UV-I 900 W/m 14,1 C 17,8 C 9,7 km/h (2 Bft) 91,67 %
26.05.2016 11:00 17,9 C 83 % 1015,7 hPa 0,0 l/m 8,0 km/h (2 Bft) NO 46 1 min 0,000 mm 4,6 UV-I 905 W/m 15,0 C 17,1 C 12,9 km/h (3 Bft) 95,65 %
26.05.2016 11:02 17,9 C 77 % 1015,7 hPa 0,0 l/m 5,4 km/h (1 Bft) N 5 2 min 0,381 mm 4,3 UV-I 679 W/m 13,8 C 17,9 C 8,0 km/h (2 Bft) 97,78 %
26.05.2016 11:03 17,9 C 78 % 1015,7 hPa 0,0 l/m 3,1 km/h (1 Bft) N 5 1 min 0,000 mm 4,8 UV-I 690 W/m 14,0 C 17,9 C 4,8 km/h (1 Bft) 96,15 %
26.05.2016 11:04 17,9 C 80 % 1015,7 hPa 0,0 l/m 4,0 km/h (1 Bft) N-NO 26 1 min 0,000 mm 4,9 UV-I 865 W/m 14,4 C 17,9 C 4,8 km/h (1 Bft) 100,00 %
26.05.2016 11:05 18,1 C 83 % 1015,7 hPa 0,0 l/m 4,8 km/h (1 Bft) N-NO 32 1 min 0,000 mm 4,7 UV-I 861 W/m 15,2 C 18,1 C 6,4 km/h (2 Bft) 95,65 %
26.05.2016 11:06 18,2 C 80 % 1015,6 hPa 0,0 l/m 2,9 km/h (1 Bft) N-NO 24 1 min 0,000 mm 4,8 UV-I 782 W/m 14,7 C 18,2 C 4,8 km/h (1 Bft) 96,30 %
26.05.2016 11:07 18,3 C 81 % 1015,6 hPa 0,0 l/m 3,6 km/h (1 Bft) W-NW 303 1 min 0,000 mm 4,8 UV-I 729 W/m 15,0 C 18,3 C 6,4 km/h (2 Bft) 100,00 %
26.05.2016 11:08 18,3 C 76 % 1015,6 hPa 0,0 l/m 2,5 km/h (1 Bft) NW 308 1 min 0,000 mm 4,9 UV-I 879 W/m 14,0 C 18,3 C 3,2 km/h (1 Bft) 96,77 %
26.05.2016 11:09 18,3 C 77 % 1015,6 hPa 0,0 l/m 2,7 km/h (1 Bft) N-NW 329 1 min 0,000 mm 4,9 UV-I 865 W/m 14,2 C 18,3 C 4,8 km/h (1 Bft) 100,00 %
26.05.2016 11:10 18,4 C 77 % 1015,6 hPa 0,0 l/m 3,4 km/h (1 Bft) N 5 1 min 0,000 mm 4,9 UV-I 854 W/m 14,3 C 18,4 C 4,8 km/h (1 Bft) 96,30 %
26.05.2016 11:11 18,5 C 76 % 1015,6 hPa 0,0 l/m 2,1 km/h (1 Bft) N-NW 333 1 min 0,000 mm 4,7 UV-I 867 W/m 14,2 C 18,5 C 3,2 km/h (1 Bft) 100,00 %
26.05.2016 11:12 18,6 C 78 % 1015,6 hPa 0,0 l/m 2,5 km/h (1 Bft) NW 304 1 min 0,000 mm 4,2 UV-I 867 W/m 14,7 C 18,6 C 4,8 km/h (1 Bft) 95,83 %
26.05.2016 11:13 18,6 C 76 % 1015,6 hPa 0,0 l/m 3,2 km/h (1 Bft) NW 315 1 min 0,000 mm 4,2 UV-I 867 W/m 14,3 C 18,6 C 4,8 km/h (1 Bft) 95,65 %
26.05.2016 11:14 18,6 C 76 % 1015,6 hPa 0,0 l/m 2,8 km/h (1 Bft) W-NW 300 1 min 0,000 mm 4,7 UV-I 867 W/m 14,3 C 18,6 C 6,4 km/h (2 Bft) 100,00 %
26.05.2016 11:15 18,5 C 76 % 1015,6 hPa 0,0 l/m 3,4 km/h (1 Bft) NW 317 1 min 0,000 mm 5,1 UV-I 871 W/m 14,2 C 18,5 C 6,4 km/h (2 Bft) 100,00 %
26.05.2016 11:16 18,4 C 76 % 1015,6 hPa 0,0 l/m 2,9 km/h (1 Bft) W-SW 255 1 min 0,000 mm 5,2 UV-I 917 W/m 14,1 C 18,4 C 4,8 km/h (1 Bft) 96,55 %
26.05.2016 11:17 18,3 C 74 % 1015,6 hPa 0,0 l/m 5,2 km/h (1 Bft) W-SW 237 1 min 0,000 mm 5,2 UV-I 929 W/m 13,6 C 18,3 C 8,0 km/h (2 Bft) 96,15 %
26.05.2016 11:18 18,2 C 77 % 1015,7 hPa 0,0 l/m 2,0 km/h (1 Bft) S-SW 212 1 min 0,000 mm 5,3 UV-I 947 W/m 14,1 C 18,2 C 4,8 km/h (1 Bft) 100,00 %
26.05.2016 11:19 18,2 C 75 % 1015,6 hPa 0,0 l/m 2,4 km/h (1 Bft) SO 129 1 min 0,000 mm 5,5 UV-I 916 W/m 13,7 C 18,2 C 3,2 km/h (1 Bft) 83,33 %
26.05.2016 11:20 18,1 C 74 % 1015,6 hPa 0,0 l/m 4,9 km/h (1 Bft) NO 53 1 min 0,000 mm 5,4 UV-I 983 W/m 13,4 C 18,1 C 8,0 km/h (2 Bft) 96,15 %
26.05.2016 11:21 18,2 C 73 % 1015,6 hPa 0,0 l/m 1,4 km/h (1 Bft) N 11 1 min 0,000 mm 5,5 UV-I 960 W/m 13,3 C 18,2 C 4,8 km/h (1 Bft) 96,30 %
26.05.2016 11:22 18,3 C 77 % 1015,6 hPa 0,0 l/m 1,8 km/h (1 Bft) N 5 1 min 0,000 mm 5,5 UV-I 993 W/m 14,2 C 18,3 C 3,2 km/h (1 Bft) 100,00 %
26.05.2016 11:23 18,4 C 77 % 1015,6 hPa 0,0 l/m 2,5 km/h (1 Bft) NO 49 1 min 0,000 mm 5,2 UV-I 1005 W/m 14,3 C 18,4 C 4,8 km/h (1 Bft) 100,00 %
26.05.2016 11:24 18,5 C 79 % 1015,6 hPa 0,0 l/m 2,7 km/h (1 Bft) N-NO 24 1 min 0,000 mm 5,3 UV-I 1005 W/m 14,8 C 18,5 C 4,8 km/h (1 Bft) 96,15 %
26.05.2016 11:25 18,7 C 81 % 1015,6 hPa 0,0 l/m 2,6 km/h (1 Bft) N-NO 32 1 min 0,000 mm 5,5 UV-I 999 W/m 15,4 C 18,7 C 6,4 km/h (2 Bft) 100,00 %
26.05.2016 11:26 18,8 C 78 % 1015,6 hPa 0,0 l/m 4,1 km/h (1 Bft) N-NO 22 1 min 0,000 mm 5,4 UV-I 983 W/m 14,9 C 18,8 C 8,0 km/h (2 Bft) 92,86 %
26.05.2016 11:27 18,8 C 77 % 1015,6 hPa 0,0 l/m 5,1 km/h (1 Bft) NO 40 1 min 0,000 mm 5,6 UV-I 1003 W/m 14,7 C 18,8 C 8,0 km/h (2 Bft) 100,00 %
26.05.2016 11:28 18,8 C 75 % 1015,6 hPa 0,0 l/m 3,9 km/h (1 Bft) NO 37 1 min 0,000 mm 5,7 UV-I 1017 W/m 14,3 C 18,8 C 4,8 km/h (1 Bft) 100,00 %
26.05.2016 11:29 18,8 C 79 % 1015,6 hPa 0,0 l/m 2,8 km/h (1 Bft) W-NW 291 1 min 0,000 mm 5,7 UV-I 1004 W/m 15,1 C 18,8 C 6,4 km/h (2 Bft) 100,00 %
26.05.2016 11:30 18,9 C 77 % 1015,6 hPa 0,0 l/m 3,2 km/h (1 Bft) N-NW 340 1 min 0,000 mm 5,6 UV-I 981 W/m 14,8 C 18,9 C 6,4 km/h (2 Bft) 100,00 %
26.05.2016 11:31 19,1 C 76 % 1015,6 hPa 0,0 l/m 3,3 km/h (1 Bft) N-NW 332 1 min 0,000 mm 5,6 UV-I 990 W/m 14,8 C 19,1 C 4,8 km/h (1 Bft) 93,33 %
26.05.2016 11:32 19,1 C 77 % 1015,6 hPa 0,0 l/m 3,4 km/h (1 Bft) NO 45 1 min 0,000 mm 5,6 UV-I 988 W/m 15,0 C 19,1 C 6,4 km/h (2 Bft) 100,00 %
26.05.2016 11:33 19,1 C 76 % 1015,6 hPa 0,0 l/m 2,8 km/h (1 Bft) NO 46 1 min 0,000 mm 5,2 UV-I 946 W/m 14,8 C 19,1 C 4,8 km/h (1 Bft) 100,00 %
26.05.2016 11:34 18,9 C 72 % 1015,6 hPa 0,0 l/m 2,5 km/h (1 Bft) NW 306 1 min 0,000 mm 5,4 UV-I 937 W/m 13,7 C 18,9 C 6,4 km/h (2 Bft) 100,00 %
26.05.2016 11:35 18,8 C 71 % 1015,6 hPa 0,0 l/m 3,5 km/h (1 Bft) W-NW 290 1 min 0,000 mm 5,6 UV-I 958 W/m 13,4 C 18,8 C 4,8 km/h (1 Bft) 96,15 %
26.05.2016 11:36 18,8 C 73 % 1015,6 hPa 0,0 l/m 4,3 km/h (1 Bft) NW 317 1 min 0,000 mm 5,6 UV-I 955 W/m 13,9 C 18,8 C 6,4 km/h (2 Bft) 100,00 %
26.05.2016 11:37 18,8 C 73 % 1015,6 hPa 0,0 l/m 5,6 km/h (1 Bft) W-NW 284 1 min 0,000 mm 5,5 UV-I 933 W/m 13,9 C 18,8 C 9,7 km/h (2 Bft) 100,00 %
26.05.2016 11:38 18,8 C 69 % 1015,6 hPa 0,0 l/m 5,8 km/h (2 Bft) N-NW 333 1 min 0,000 mm 5,5 UV-I 928 W/m 13,0 C 18,8 C 6,4 km/h (2 Bft) 100,00 %
26.05.2016 11:39 18,8 C 73 % 1015,6 hPa 0,0 l/m 2,9 km/h (1 Bft) N 355 1 min 0,000 mm 5,5 UV-I 920 W/m 13,9 C 18,8 C 4,8 km/h (1 Bft) 100,00 %
26.05.2016 11:40 18,9 C 73 % 1015,5 hPa 0,0 l/m 2,4 km/h (1 Bft) NW 322 1 min 0,000 mm 5,6 UV-I 942 W/m 13,9 C 18,9 C 3,2 km/h (1 Bft) 100,00 %
26.05.2016 11:41 18,9 C 75 % 1015,5 hPa 0,0 l/m 2,1 km/h (1 Bft) N 360 1 min 0,000 mm 5,6 UV-I 958 W/m 14,4 C 18,9 C 3,2 km/h (1 Bft) 91,30 %
26.05.2016 11:42 18,9 C 72 % 1015,6 hPa 0,0 l/m 2,9 km/h (1 Bft) NW 309 1 min 0,000 mm 5,6 UV-I 953 W/m 13,7 C 18,9 C 4,8 km/h (1 Bft) 95,83 %
26.05.2016 11:43 18,9 C 72 % 1015,5 hPa 0,0 l/m 3,1 km/h (1 Bft) N-NW 333 1 min 0,000 mm 5,6 UV-I 947 W/m 13,7 C 18,9 C 4,8 km/h (1 Bft) 100,00 %
26.05.2016 11:44 19,0 C 79 % 1015,6 hPa 0,0 l/m 1,9 km/h (1 Bft) N 355 1 min 0,000 mm 5,6 UV-I 941 W/m 15,3 C 19,0 C 3,2 km/h (1 Bft) 100,00 %
26.05.2016 11:45 19,1 C 75 % 1015,6 hPa 0,0 l/m 3,7 km/h (1 Bft) N-NW 347 1 min 0,000 mm 5,6 UV-I 945 W/m 14,6 C 19,1 C 6,4 km/h (2 Bft) 100,00 %
26.05.2016 11:46 19,1 C 73 % 1015,6 hPa 0,0 l/m 5,6 km/h (1 Bft) NW 314 1 min 0,000 mm 5,5 UV-I 922 W/m 14,1 C 19,1 C 8,0 km/h (2 Bft) 100,00 %
26.05.2016 11:47 19,0 C 75 % 1015,6 hPa 0,0 l/m 3,4 km/h (1 Bft) N-NW 330 1 min 0,000 mm 5,3 UV-I 927 W/m 14,5 C 19,0 C 8,0 km/h (2 Bft) 96,15 %
26.05.2016 11:48 19,0 C 75 % 1015,6 hPa 0,0 l/m 1,4 km/h (1 Bft) N-NW 333 1 min 0,000 mm 5,1 UV-I 956 W/m 14,5 C 19,0 C 3,2 km/h (1 Bft) 100,00 %
26.05.2016 11:49 19,1 C 78 % 1015,6 hPa 0,0 l/m 3,2 km/h (1 Bft) N-NW 337 1 min 0,000 mm 4,8 UV-I 956 W/m 15,2 C 19,1 C 8,0 km/h (2 Bft) 100,00 %
26.05.2016 11:50 19,1 C 73 % 1015,6 hPa 0,0 l/m 4,0 km/h (1 Bft) NW 317 1 min 0,000 mm 4,2 UV-I 858 W/m 14,1 C 19,1 C 4,8 km/h (1 Bft) 100,00 %
26.05.2016 11:51 19,1 C 76 % 1015,6 hPa 0,0 l/m 2,6 km/h (1 Bft) N-NO 15 1 min 0,000 mm 4,4 UV-I 564 W/m 14,8 C 19,1 C 4,8 km/h (1 Bft) 100,00 %
26.05.2016 11:52 19,0 C 72 % 1015,6 hPa 0,0 l/m 3,5 km/h (1 Bft) N-NO 15 1 min 0,000 mm 4,0 UV-I 564 W/m 13,8 C 19,0 C 4,8 km/h (1 Bft) 100,00 %
26.05.2016 11:53 18,9 C 74 % 1015,6 hPa 0,0 l/m 3,0 km/h (1 Bft) N-NO 15 1 min 0,000 mm 4,6 UV-I 564 W/m 14,2 C 18,9 C 4,8 km/h (1 Bft) 100,00 %
26.05.2016 11:54 18,9 C 76 % 1015,5 hPa 0,0 l/m 3,5 km/h (1 Bft) N-NO 28 1 min 0,000 mm 5,0 UV-I 564 W/m 14,6 C 18,9 C 6,4 km/h (2 Bft) 100,00 %
26.05.2016 11:55 18,9 C 74 % 1015,5 hPa 0,0 l/m 4,6 km/h (1 Bft) NO 34 1 min 0,000 mm 4,6 UV-I 564 W/m 14,2 C 18,9 C 6,4 km/h (2 Bft) 100,00 %
26.05.2016 11:56 19,0 C 76 % 1015,6 hPa 0,0 l/m 1,4 km/h (1 Bft) N-NO 13 1 min 0,000 mm 5,5 UV-I 643 W/m 14,7 C 19,0 C 4,8 km/h (1 Bft) 100,00 %
26.05.2016 11:57 19,1 C 78 % 1015,5 hPa 0,0 l/m 4,0 km/h (1 Bft) N 11 1 min 0,000 mm 5,6 UV-I 926 W/m 15,2 C 19,1 C 8,0 km/h (2 Bft) 100,00 %
26.05.2016 11:58 19,3 C 75 % 1015,5 hPa 0,0 l/m 3,9 km/h (1 Bft) N-NW 346 1 min 0,000 mm 5,7 UV-I 893 W/m 14,8 C 19,3 C 6,4 km/h (2 Bft) 100,00 %
26.05.2016 11:59 19,3 C 76 % 1015,5 hPa 0,0 l/m 3,6 km/h (1 Bft) N-NO 16 1 min 0,000 mm 5,6 UV-I 901 W/m 15,0 C 19,3 C 8,0 km/h (2 Bft) 100,00 %
26.05.2016 12:00 19,3 C 72 % 1015,5 hPa 0,0 l/m 3,8 km/h (1 Bft) N-NW 338 1 min 0,000 mm 5,6 UV-I 927 W/m 14,1 C 19,3 C 9,7 km/h (2 Bft) 100,00 %
26.05.2016 12:02 19,3 C 69 % 1015,6 hPa 0,0 l/m 3,7 km/h (1 Bft) N-NW 332 2 min 0,483 mm 5,7 UV-I 944 W/m 13,5 C 19,3 C 11,3 km/h (2 Bft) 100,00 %
26.05.2016 12:03 19,2 C 74 % 1015,5 hPa 0,0 l/m 2,4 km/h (1 Bft) W-NW 299 1 min 0,000 mm 4,4 UV-I 942 W/m 14,4 C 19,2 C 4,8 km/h (1 Bft) 100,00 %
26.05.2016 12:04 19,1 C 71 % 1015,6 hPa 0,0 l/m 2,1 km/h (1 Bft) N-NO 16 1 min 0,000 mm 5,6 UV-I 908 W/m 13,7 C 19,1 C 4,8 km/h (1 Bft) 100,00 %
26.05.2016 12:05 19,1 C 74 % 1015,5 hPa 0,0 l/m 5,3 km/h (1 Bft) N-NO 19 1 min 0,000 mm 5,5 UV-I 923 W/m 14,4 C 19,1 C 8,0 km/h (2 Bft) 100,00 %
26.05.2016 12:06 19,1 C 73 % 1015,5 hPa 0,0 l/m 1,4 km/h (1 Bft) N 11 1 min 0,000 mm 4,3 UV-I 930 W/m 14,1 C 19,1 C 3,2 km/h (1 Bft) 100,00 %
26.05.2016 12:07 19,1 C 72 % 1015,5 hPa 0,0 l/m 2,1 km/h (1 Bft) NW 324 1 min 0,000 mm 4,3 UV-I 930 W/m 13,9 C 19,1 C 3,2 km/h (1 Bft) 100,00 %
26.05.2016 12:08 19,1 C 73 % 1015,5 hPa 0,0 l/m 1,7 km/h (1 Bft) W-NW 296 1 min 0,000 mm 4,2 UV-I 930 W/m 14,1 C 19,1 C 3,2 km/h (1 Bft) 100,00 %
26.05.2016 12:09 19,1 C 74 % 1015,5 hPa 0,0 l/m 5,2 km/h (1 Bft) NW 323 1 min 0,000 mm 5,8 UV-I 941 W/m 14,4 C 19,1 C 9,7 km/h (2 Bft) 100,00 %
26.05.2016 12:10 19,1 C 72 % 1015,6 hPa 0,0 l/m 4,4 km/h (1 Bft) NW 322 1 min 0,000 mm 5,8 UV-I 948 W/m 13,9 C 19,1 C 11,3 km/h (2 Bft) 96,15 %
26.05.2016 12:14 19,1 C 72 % 1015,6 hPa 0,0 l/m 0,0 km/h (0 Bft) NW 322 4 min 0,000 mm 5,0 UV-I 919 W/m 13,9 C 19,1 C 0,0 km/h (0 Bft) 100,00 %
26.05.2016 12:15 19,1 C 69 % 1015,4 hPa 0,0 l/m 3,3 km/h (1 Bft) NW 312 1 min 0,000 mm 4,7 UV-I 919 W/m 13,3 C 19,1 C 4,8 km/h (1 Bft) 97,56 %
26.05.2016 12:16 19,1 C 69 % 1015,4 hPa 0,0 l/m 3,2 km/h (1 Bft) NW 316 1 min 0,000 mm 4,4 UV-I 919 W/m 13,3 C 19,1 C 4,8 km/h (1 Bft) 100,00 %
26.05.2016 12:17 19,0 C 69 % 1015,4 hPa 0,0 l/m 2,7 km/h (1 Bft) NW 308 1 min 0,000 mm 4,4 UV-I 919 W/m 13,2 C 19,0 C 4,8 km/h (1 Bft) 100,00 %
26.05.2016 12:18 19,0 C 72 % 1015,5 hPa 0,0 l/m 2,7 km/h (1 Bft) N-NW 335 1 min 0,000 mm 5,2 UV-I 919 W/m 13,8 C 19,0 C 6,4 km/h (2 Bft) 100,00 %
26.05.2016 12:19 19,1 C 71 % 1015,5 hPa 0,0 l/m 1,3 km/h (1 Bft) N-NO 13 1 min 0,000 mm 4,8 UV-I 919 W/m 13,7 C 19,1 C 1,6 km/h (1 Bft) 100,00 %
26.05.2016 12:20 19,0 C 70 % 1015,4 hPa 0,0 l/m 1,0 km/h (0 Bft) N-NW 339 1 min 0,000 mm 5,2 UV-I 906 W/m 13,4 C 19,0 C 3,2 km/h (1 Bft) 100,00 %
26.05.2016 12:21 18,9 C 69 % 1015,4 hPa 0,0 l/m 3,5 km/h (1 Bft) W 272 1 min 0,000 mm 5,8 UV-I 914 W/m 13,1 C 18,9 C 6,4 km/h (2 Bft) 100,00 %
26.05.2016 12:22 18,9 C 70 % 1015,4 hPa 0,0 l/m 2,2 km/h (1 Bft) W 272 1 min 0,000 mm 5,7 UV-I 946 W/m 13,3 C 18,9 C 4,8 km/h (1 Bft) 100,00 %
26.05.2016 12:23 18,9 C 71 % 1015,4 hPa 0,0 l/m 0,9 km/h (0 Bft) N 360 1 min 0,000 mm 5,7 UV-I 872 W/m 13,5 C 18,9 C 1,6 km/h (1 Bft) 100,00 %
26.05.2016 12:24 19,1 C 74 % 1015,4 hPa 0,0 l/m 4,1 km/h (1 Bft) NO 44 1 min 0,000 mm 5,8 UV-I 893 W/m 14,4 C 19,1 C 6,4 km/h (2 Bft) 100,00 %
26.05.2016 12:25 19,2 C 74 % 1015,4 hPa 0,0 l/m 2,7 km/h (1 Bft) NW 314 1 min 0,000 mm 5,8 UV-I 824 W/m 14,4 C 19,2 C 4,8 km/h (1 Bft) 100,00 %
26.05.2016 12:26 19,3 C 72 % 1015,4 hPa 0,0 l/m 1,1 km/h (1 Bft) NW 321 1 min 0,000 mm 5,8 UV-I 887 W/m 14,1 C 19,3 C 1,6 km/h (1 Bft) 99,65 %
26.05.2016 12:27 19,4 C 76 % 1015,4 hPa 0,0 l/m 3,2 km/h (1 Bft) N-NO 16 1 min 0,000 mm 5,8 UV-I 886 W/m 15,1 C 19,4 C 8,0 km/h (2 Bft) 97,37 %
26.05.2016 12:28 19,6 C 76 % 1015,4 hPa 0,0 l/m 3,8 km/h (1 Bft) N-NO 14 1 min 0,000 mm 5,8 UV-I 883 W/m 15,2 C 19,6 C 8,0 km/h (2 Bft) 100,00 %
26.05.2016 12:29 19,6 C 73 % 1015,4 hPa 0,0 l/m 2,7 km/h (1 Bft) N 5 1 min 0,000 mm 5,8 UV-I 880 W/m 14,6 C 19,6 C 4,8 km/h (1 Bft) 100,00 %
26.05.2016 12:30 19,6 C 72 % 1015,4 hPa 0,0 l/m 2,0 km/h (1 Bft) N 355 1 min 0,000 mm 5,8 UV-I 877 W/m 14,4 C 19,6 C 4,8 km/h (1 Bft) 100,00 %
26.05.2016 12:31 19,5 C 69 % 1015,4 hPa 0,0 l/m 3,4 km/h (1 Bft) N-NO 32 1 min 0,000 mm 5,8 UV-I 870 W/m 13,7 C 19,5 C 9,7 km/h (2 Bft) 100,00 %
26.05.2016 12:32 19,6 C 75 % 1015,4 hPa 0,0 l/m 7,0 km/h (2 Bft) N-NO 13 1 min 0,000 mm 5,8 UV-I 827 W/m 15,0 C 19,3 C 11,3 km/h (2 Bft) 100,00 %
26.05.2016 12:33 19,6 C 73 % 1015,4 hPa 0,0 l/m 4,7 km/h (1 Bft) N-NO 13 1 min 0,000 mm 5,8 UV-I 668 W/m 14,6 C 19,6 C 6,4 km/h (2 Bft) 100,00 %
26.05.2016 12:34 19,4 C 68 % 1015,4 hPa 0,0 l/m 1,8 km/h (1 Bft) N-NO 13 1 min 0,000 mm 5,8 UV-I 668 W/m 13,3 C 19,4 C 4,8 km/h (1 Bft) 96,30 %
26.05.2016 12:35 19,3 C 69 % 1015,4 hPa 0,0 l/m 3,1 km/h (1 Bft) N-NO 25 1 min 0,000 mm 5,8 UV-I 812 W/m 13,5 C 19,3 C 4,8 km/h (1 Bft) 100,00 %
26.05.2016 12:36 19,3 C 73 % 1015,3 hPa 0,0 l/m 2,3 km/h (1 Bft) N-NO 17 1 min 0,000 mm 5,8 UV-I 861 W/m 14,3 C 19,3 C 4,8 km/h (1 Bft) 100,00 %
26.05.2016 12:37 19,4 C 72 % 1015,4 hPa 0,0 l/m 1,9 km/h (1 Bft) N 355 1 min 0,000 mm 5,2 UV-I 866 W/m 14,2 C 19,4 C 4,8 km/h (1 Bft) 100,00 %
26.05.2016 12:38 19,5 C 76 % 1015,3 hPa 0,0 l/m 3,4 km/h (1 Bft) N-NO 24 1 min 0,000 mm 5,0 UV-I 866 W/m 15,2 C 19,5 C 6,4 km/h (2 Bft) 100,00 %
26.05.2016 12:39 19,6 C 70 % 1015,3 hPa 0,0 l/m 2,7 km/h (1 Bft) N-NO 20 1 min 0,000 mm 5,9 UV-I 865 W/m 14,0 C 19,6 C 4,8 km/h (1 Bft) 97,73 %
26.05.2016 12:40 19,7 C 69 % 1015,3 hPa 0,0 l/m 2,2 km/h (1 Bft) N-NO 20 1 min 0,000 mm 5,9 UV-I 870 W/m 13,8 C 19,7 C 3,2 km/h (1 Bft) 95,83 %
26.05.2016 12:41 19,7 C 70 % 1015,3 hPa 0,0 l/m 1,0 km/h (0 Bft) N-NO 18 1 min 0,000 mm 5,9 UV-I 872 W/m 14,1 C 19,7 C 3,2 km/h (1 Bft) 100,00 %
26.05.2016 12:42 19,6 C 66 % 1015,3 hPa 0,0 l/m 1,9 km/h (1 Bft) N 351 1 min 0,000 mm 5,9 UV-I 874 W/m 13,1 C 19,6 C 3,2 km/h (1 Bft) 95,83 %
26.05.2016 12:43 19,5 C 67 % 1015,3 hPa 0,0 l/m 2,0 km/h (1 Bft) O-NO 73 1 min 0,000 mm 5,9 UV-I 870 W/m 13,2 C 19,5 C 3,2 km/h (1 Bft) 100,00 %
26.05.2016 12:44 19,4 C 67 % 1015,3 hPa 0,0 l/m 1,1 km/h (1 Bft) O-NO 73 1 min 0,000 mm 5,9 UV-I 870 W/m 13,1 C 19,4 C 3,2 km/h (1 Bft) 95,83 %
26.05.2016 12:45 19,4 C 66 % 1015,3 hPa 0,0 l/m 0,8 km/h (0 Bft) O-SO 121 1 min 0,000 mm 5,9 UV-I 871 W/m 12,9 C 19,4 C 3,2 km/h (1 Bft) 96,15 %
26.05.2016 12:46 19,6 C 69 % 1015,3 hPa 0,0 l/m 1,2 km/h (1 Bft) SW 231 1 min 0,000 mm 6,0 UV-I 873 W/m 13,8 C 19,6 C 3,2 km/h (1 Bft) 98,93 %
26.05.2016 12:47 19,7 C 74 % 1015,3 hPa 0,0 l/m 1,9 km/h (1 Bft) N-NW 336 1 min 0,000 mm 6,0 UV-I 878 W/m 14,9 C 19,7 C 3,2 km/h (1 Bft) 97,62 %
26.05.2016 12:48 19,8 C 70 % 1015,3 hPa 0,0 l/m 3,3 km/h (1 Bft) N-NW 332 1 min 0,000 mm 6,0 UV-I 882 W/m 14,2 C 19,8 C 6,4 km/h (2 Bft) 100,00 %
26.05.2016 12:49 19,8 C 70 % 1015,3 hPa 0,0 l/m 3,4 km/h (1 Bft) N-NW 328 1 min 0,000 mm 6,0 UV-I 882 W/m 14,2 C 19,8 C 4,8 km/h (1 Bft) 91,67 %
26.05.2016 12:50 19,8 C 66 % 1015,3 hPa 0,0 l/m 3,4 km/h (1 Bft) NW 310 1 min 0,000 mm 6,0 UV-I 882 W/m 13,3 C 19,8 C 4,8 km/h (1 Bft) 100,00 %
26.05.2016 12:51 19,8 C 71 % 1015,3 hPa 0,0 l/m 5,4 km/h (1 Bft) N-NW 339 1 min 0,000 mm 6,0 UV-I 882 W/m 14,4 C 19,8 C 8,0 km/h (2 Bft) 95,83 %
26.05.2016 12:52 19,8 C 69 % 1015,3 hPa 0,0 l/m 3,9 km/h (1 Bft) W-NW 297 1 min 0,000 mm 6,0 UV-I 873 W/m 13,9 C 19,8 C 11,3 km/h (2 Bft) 96,15 %
26.05.2016 12:53 19,8 C 65 % 1015,3 hPa 0,0 l/m 7,0 km/h (2 Bft) W 266 1 min 0,000 mm 6,0 UV-I 879 W/m 13,0 C 19,6 C 9,7 km/h (2 Bft) 100,00 %
26.05.2016 12:54 19,8 C 65 % 1015,3 hPa 0,0 l/m 8,1 km/h (2 Bft) W-NW 286 1 min 0,000 mm 6,0 UV-I 884 W/m 13,0 C 19,1 C 12,9 km/h (3 Bft) 95,65 %
26.05.2016 12:55 19,8 C 66 % 1015,3 hPa 0,0 l/m 3,0 km/h (1 Bft) W-NW 292 1 min 0,000 mm 6,0 UV-I 886 W/m 13,3 C 19,8 C 4,8 km/h (1 Bft) 100,00 %
26.05.2016 12:56 19,8 C 67 % 1015,3 hPa 0,0 l/m 4,1 km/h (1 Bft) W 264 1 min 0,000 mm 6,0 UV-I 889 W/m 13,5 C 19,8 C 6,4 km/h (2 Bft) 96,15 %
26.05.2016 12:57 19,9 C 65 % 1015,3 hPa 0,0 l/m 3,4 km/h (1 Bft) W 264 1 min 0,000 mm 6,0 UV-I 887 W/m 13,1 C 19,9 C 4,8 km/h (1 Bft) 100,00 %
26.05.2016 12:58 19,9 C 67 % 1015,3 hPa 0,0 l/m 1,5 km/h (1 Bft) S-SW 195 1 min 0,000 mm 6,1 UV-I 847 W/m 13,6 C 19,9 C 4,8 km/h (1 Bft) 95,65 %
26.05.2016 12:59 19,9 C 64 % 1015,3 hPa 0,0 l/m 2,5 km/h (1 Bft) S-SW 195 1 min 0,000 mm 6,1 UV-I 916 W/m 12,9 C 19,9 C 4,8 km/h (1 Bft) 96,30 %
26.05.2016 13:00 19,9 C 66 % 1015,3 hPa 0,0 l/m 1,2 km/h (1 Bft) S-SW 195 1 min 0,000 mm 6,0 UV-I 930 W/m 13,4 C 19,9 C 1,6 km/h (1 Bft) 100,00 %
26.05.2016 13:01 20,0 C 65 % 1015,2 hPa 0,0 l/m 0,8 km/h (0 Bft) S-SW 195 1 min 0,482 mm 6,1 UV-I 918 W/m 13,2 C 20,0 C 1,6 km/h (1 Bft) 93,33 %
26.05.2016 13:02 20,0 C 67 % 1015,2 hPa 0,0 l/m 2,3 km/h (1 Bft) S 191 1 min 0,000 mm 6,1 UV-I 906 W/m 13,7 C 20,0 C 4,8 km/h (1 Bft) 100,00 %
26.05.2016 13:03 20,1 C 63 % 1015,2 hPa 0,0 l/m 2,1 km/h (1 Bft) S 184 1 min 0,000 mm 6,1 UV-I 904 W/m 12,8 C 20,1 C 3,2 km/h (1 Bft) 96,30 %
26.05.2016 13:04 20,1 C 62 % 1015,2 hPa 0,0 l/m 2,5 km/h (1 Bft) O-NO 65 1 min 0,000 mm 6,1 UV-I 901 W/m 12,6 C 20,1 C 4,8 km/h (1 Bft) 95,65 %
26.05.2016 13:05 20,1 C 63 % 1015,2 hPa 0,0 l/m 2,7 km/h (1 Bft) O-NO 65 1 min 0,000 mm 6,1 UV-I 896 W/m 12,8 C 20,1 C 3,2 km/h (1 Bft) 95,83 %
26.05.2016 13:06 20,1 C 64 % 1015,2 hPa 0,0 l/m 3,8 km/h (1 Bft) N 9 1 min 0,000 mm 6,1 UV-I 893 W/m 13,1 C 20,1 C 6,4 km/h (2 Bft) 96,15 %
26.05.2016 13:07 20,3 C 69 % 1015,2 hPa 0,0 l/m 2,1 km/h (1 Bft) N 5 1 min 0,000 mm 6,1 UV-I 892 W/m 14,4 C 20,3 C 4,8 km/h (1 Bft) 100,00 %
26.05.2016 13:08 20,3 C 67 % 1015,2 hPa 0,0 l/m 4,2 km/h (1 Bft) N-NW 340 1 min 0,000 mm 6,0 UV-I 892 W/m 14,0 C 20,3 C 6,4 km/h (2 Bft) 100,00 %
26.05.2016 13:09 20,3 C 67 % 1015,2 hPa 0,0 l/m 3,2 km/h (1 Bft) NW 322 1 min 0,000 mm 6,1 UV-I 896 W/m 14,0 C 20,3 C 6,4 km/h (2 Bft) 96,15 %
26.05.2016 13:10 20,4 C 67 % 1015,2 hPa 0,0 l/m 3,3 km/h (1 Bft) NW 309 1 min 0,000 mm 6,1 UV-I 902 W/m 14,1 C 20,4 C 6,4 km/h (2 Bft) 96,30 %
26.05.2016 13:11 20,5 C 64 % 1015,1 hPa 0,0 l/m 1,9 km/h (1 Bft) N-NW 334 1 min 0,000 mm 6,1 UV-I 910 W/m 13,5 C 20,5 C 4,8 km/h (1 Bft) 95,65 %
26.05.2016 13:12 20,6 C 67 % 1015,1 hPa 0,0 l/m 3,1 km/h (1 Bft) N-NO 13 1 min 0,000 mm 6,0 UV-I 906 W/m 14,3 C 20,6 C 4,8 km/h (1 Bft) 87,50 %
26.05.2016 13:13 20,7 C 64 % 1015,1 hPa 0,0 l/m 1,4 km/h (1 Bft) N 5 1 min 0,000 mm 5,9 UV-I 859 W/m 13,6 C 20,7 C 3,2 km/h (1 Bft) 96,15 %
26.05.2016 13:14 20,6 C 61 % 1015,1 hPa 0,0 l/m 1,8 km/h (1 Bft) NW 319 1 min 0,000 mm 5,7 UV-I 832 W/m 12,8 C 20,6 C 3,2 km/h (1 Bft) 96,30 %
26.05.2016 13:15 20,4 C 57 % 1015,1 hPa 0,0 l/m 0,9 km/h (0 Bft) NW 321 1 min 0,000 mm 5,9 UV-I 840 W/m 11,6 C 20,4 C 1,6 km/h (1 Bft) 100,00 %
26.05.2016 13:16 20,3 C 58 % 1015,1 hPa 0,0 l/m 1,9 km/h (1 Bft) NW 326 1 min 0,000 mm 6,0 UV-I 826 W/m 11,8 C 20,3 C 3,2 km/h (1 Bft) 96,67 %
26.05.2016 13:17 20,3 C 59 % 1015,1 hPa 0,0 l/m 2,3 km/h (1 Bft) W-NW 301 1 min 0,000 mm 6,2 UV-I 866 W/m 12,0 C 20,3 C 4,8 km/h (1 Bft) 100,00 %
26.05.2016 13:18 20,3 C 61 % 1015,1 hPa 0,0 l/m 1,3 km/h (1 Bft) N-NW 327 1 min 0,000 mm 6,1 UV-I 900 W/m 12,5 C 20,3 C 3,2 km/h (1 Bft) 100,00 %
26.05.2016 13:19 20,4 C 60 % 1015,1 hPa 0,0 l/m 2,7 km/h (1 Bft) N-NO 15 1 min 0,000 mm 6,0 UV-I 896 W/m 12,4 C 20,4 C 6,4 km/h (2 Bft) 95,65 %
26.05.2016 13:20 20,5 C 60 % 1015,1 hPa 0,0 l/m 1,1 km/h (1 Bft) NW 314 1 min 0,000 mm 6,0 UV-I 882 W/m 12,5 C 20,5 C 3,2 km/h (1 Bft) 100,00 %
26.05.2016 13:21 20,6 C 68 % 1015,1 hPa 0,0 l/m 3,8 km/h (1 Bft) NW 306 1 min 0,000 mm 5,6 UV-I 892 W/m 14,5 C 20,6 C 6,4 km/h (2 Bft) 96,55 %
26.05.2016 13:22 20,7 C 62 % 1015,1 hPa 0,0 l/m 2,7 km/h (1 Bft) W-NW 294 1 min 0,000 mm 5,8 UV-I 898 W/m 13,2 C 20,7 C 4,8 km/h (1 Bft) 100,00 %
26.05.2016 13:23 20,7 C 59 % 1015,1 hPa 0,0 l/m 4,4 km/h (1 Bft) NW 313 1 min 0,000 mm 6,0 UV-I 886 W/m 12,4 C 20,7 C 6,4 km/h (2 Bft) 95,65 %
26.05.2016 13:24 20,7 C 59 % 1015,1 hPa 0,0 l/m 2,7 km/h (1 Bft) NW 313 1 min 0,000 mm 6,0 UV-I 866 W/m 12,4 C 20,7 C 4,8 km/h (1 Bft) 100,00 %
26.05.2016 13:25 20,8 C 62 % 1015,1 hPa 0,0 l/m 2,3 km/h (1 Bft) N 5 1 min 0,000 mm 6,1 UV-I 890 W/m 13,2 C 20,8 C 4,8 km/h (1 Bft) 93,33 %
26.05.2016 13:26 20,8 C 64 % 1015,1 hPa 0,0 l/m 2,6 km/h (1 Bft) N-NW 331 1 min 0,000 mm 6,0 UV-I 885 W/m 13,7 C 20,8 C 6,4 km/h (2 Bft) 100,00 %
26.05.2016 13:27 20,8 C 50 % 1015,1 hPa 0,0 l/m 1,8 km/h (1 Bft) N-NW 340 1 min 0,000 mm 6,0 UV-I 878 W/m 10,0 C 20,8 C 3,2 km/h (1 Bft) 92,31 %
26.05.2016 13:28 20,8 C 56 % 1015,1 hPa 0,0 l/m 2,2 km/h (1 Bft) NW 317 1 min 0,000 mm 6,0 UV-I 870 W/m 11,7 C 20,8 C 4,8 km/h (1 Bft) 100,00 %
26.05.2016 13:29 20,7 C 55 % 1015,1 hPa 0,0 l/m 2,0 km/h (1 Bft) NW 325 1 min 0,000 mm 6,0 UV-I 874 W/m 11,3 C 20,7 C 4,8 km/h (1 Bft) 100,00 %
26.05.2016 13:30 20,7 C 53 % 1015,0 hPa 0,0 l/m 2,9 km/h (1 Bft) NW 323 1 min 0,000 mm 6,0 UV-I 873 W/m 10,8 C 20,7 C 4,8 km/h (1 Bft) 100,00 %
26.05.2016 13:31 20,7 C 54 % 1015,1 hPa 0,0 l/m 1,8 km/h (1 Bft) NW 325 1 min 0,000 mm 5,9 UV-I 869 W/m 11,1 C 20,7 C 3,2 km/h (1 Bft) 92,59 %
26.05.2016 13:32 20,7 C 58 % 1015,0 hPa 0,0 l/m 2,8 km/h (1 Bft) N 351 1 min 0,000 mm 5,9 UV-I 873 W/m 12,1 C 20,7 C 4,8 km/h (1 Bft) 100,00 %
26.05.2016 13:33 20,6 C 59 % 1015,1 hPa 0,0 l/m 2,8 km/h (1 Bft) N-NO 13 1 min 0,000 mm 6,0 UV-I 878 W/m 12,3 C 20,6 C 4,8 km/h (1 Bft) 100,00 %
26.05.2016 13:34 20,7 C 67 % 1015,1 hPa 0,0 l/m 1,4 km/h (1 Bft) N-NO 16 1 min 0,000 mm 6,0 UV-I 877 W/m 14,3 C 20,7 C 3,2 km/h (1 Bft) 96,15 %
26.05.2016 13:35 20,8 C 63 % 1015,0 hPa 0,0 l/m 3,1 km/h (1 Bft) N-NO 16 1 min 0,000 mm 6,0 UV-I 881 W/m 13,5 C 20,8 C 4,8 km/h (1 Bft) 96,30 %
26.05.2016 13:36 20,9 C 58 % 1015,0 hPa 0,0 l/m 0,8 km/h (0 Bft) N-NO 16 1 min 0,000 mm 6,0 UV-I 879 W/m 12,3 C 20,9 C 1,6 km/h (1 Bft) 100,00 %
26.05.2016 13:37 21,0 C 62 % 1015,1 hPa 0,0 l/m 1,3 km/h (1 Bft) N-NO 16 1 min 0,000 mm 5,9 UV-I 873 W/m 13,4 C 21,0 C 3,2 km/h (1 Bft) 100,00 %
26.05.2016 13:38 21,1 C 60 % 1015,1 hPa 0,0 l/m 1,7 km/h (1 Bft) N-NW 344 1 min 0,000 mm 5,9 UV-I 871 W/m 13,0 C 21,1 C 4,8 km/h (1 Bft) 97,91 %
26.05.2016 13:39 21,1 C 60 % 1015,1 hPa 0,0 l/m 4,7 km/h (1 Bft) N-NW 332 1 min 0,000 mm 5,9 UV-I 869 W/m 13,0 C 21,1 C 6,4 km/h (2 Bft) 100,00 %
26.05.2016 13:40 21,0 C 63 % 1015,1 hPa 0,0 l/m 1,9 km/h (1 Bft) W-NW 303 1 min 0,000 mm 5,9 UV-I 868 W/m 13,7 C 21,0 C 3,2 km/h (1 Bft) 93,33 %
26.05.2016 13:41 20,9 C 61 % 1015,0 hPa 0,0 l/m 3,0 km/h (1 Bft) NW 318 1 min 0,000 mm 5,9 UV-I 868 W/m 13,1 C 20,9 C 4,8 km/h (1 Bft) 97,56 %
26.05.2016 13:42 20,9 C 61 % 1015,1 hPa 0,0 l/m 1,9 km/h (1 Bft) N-NW 330 1 min 0,000 mm 5,9 UV-I 868 W/m 13,1 C 20,9 C 3,2 km/h (1 Bft) 100,00 %
26.05.2016 13:43 20,8 C 64 % 1015,1 hPa 0,0 l/m 2,3 km/h (1 Bft) N-NW 336 1 min 0,000 mm 5,9 UV-I 865 W/m 13,7 C 20,8 C 6,4 km/h (2 Bft) 100,00 %
26.05.2016 13:44 20,8 C 62 % 1015,0 hPa 0,0 l/m 5,5 km/h (1 Bft) N-NW 333 1 min 0,000 mm 5,9 UV-I 866 W/m 13,2 C 20,8 C 11,3 km/h (2 Bft) 100,00 %
26.05.2016 13:45 20,8 C 60 % 1015,0 hPa 0,0 l/m 2,2 km/h (1 Bft) NW 312 1 min 0,000 mm 5,9 UV-I 864 W/m 12,7 C 20,8 C 4,8 km/h (1 Bft) 100,00 %
26.05.2016 13:46 20,8 C 56 % 1015,0 hPa 0,0 l/m 2,9 km/h (1 Bft) W-NW 296 1 min 0,000 mm 5,9 UV-I 866 W/m 11,7 C 20,8 C 4,8 km/h (1 Bft) 100,00 %
26.05.2016 13:47 20,9 C 63 % 1015,0 hPa 0,0 l/m 2,8 km/h (1 Bft) W-NW 294 1 min 0,000 mm 5,9 UV-I 867 W/m 13,6 C 20,9 C 4,8 km/h (1 Bft) 96,88 %
26.05.2016 13:48 21,0 C 55 % 1015,0 hPa 0,0 l/m 2,5 km/h (1 Bft) W-NW 284 1 min 0,000 mm 5,8 UV-I 869 W/m 11,6 C 21,0 C 4,8 km/h (1 Bft) 100,00 %
26.05.2016 13:49 21,1 C 56 % 1015,0 hPa 0,0 l/m 6,0 km/h (2 Bft) W 266 1 min 0,000 mm 5,4 UV-I 870 W/m 12,0 C 21,1 C 8,0 km/h (2 Bft) 100,00 %
26.05.2016 13:50 21,1 C 55 % 1015,1 hPa 0,0 l/m 5,2 km/h (1 Bft) W-SW 258 1 min 0,000 mm 5,9 UV-I 868 W/m 11,7 C 21,1 C 6,4 km/h (2 Bft) 98,04 %
26.05.2016 13:51 21,1 C 54 % 1015,0 hPa 0,0 l/m 4,8 km/h (1 Bft) W-SW 247 1 min 0,000 mm 5,9 UV-I 868 W/m 11,4 C 21,1 C 6,4 km/h (2 Bft) 97,73 %
26.05.2016 13:52 21,0 C 55 % 1015,0 hPa 0,0 l/m 1,6 km/h (1 Bft) W-SW 247 1 min 0,000 mm 5,8 UV-I 870 W/m 11,6 C 21,0 C 4,8 km/h (1 Bft) 100,00 %
26.05.2016 13:53 21,0 C 57 % 1015,0 hPa 0,0 l/m 2,8 km/h (1 Bft) W-NW 292 1 min 0,000 mm 5,8 UV-I 863 W/m 12,1 C 21,0 C 4,8 km/h (1 Bft) 100,00 %
26.05.2016 13:54 21,0 C 53 % 1015,0 hPa 0,0 l/m 3,2 km/h (1 Bft) W-NW 286 1 min 0,000 mm 5,8 UV-I 863 W/m 11,0 C 21,0 C 4,8 km/h (1 Bft) 95,83 %
26.05.2016 13:55 21,1 C 54 % 1015,0 hPa 0,0 l/m 1,9 km/h (1 Bft) W-NW 286 1 min 0,000 mm 5,8 UV-I 862 W/m 11,4 C 21,1 C 4,8 km/h (1 Bft) 100,00 %
26.05.2016 13:56 21,2 C 55 % 1015,0 hPa 0,0 l/m 0,7 km/h (0 Bft) W-NW 286 1 min 0,000 mm 5,8 UV-I 860 W/m 11,8 C 21,2 C 1,6 km/h (1 Bft) 100,00 %
26.05.2016 13:57 21,3 C 55 % 1015,0 hPa 0,0 l/m 2,2 km/h (1 Bft) N-NO 14 1 min 0,000 mm 5,8 UV-I 858 W/m 11,9 C 21,3 C 4,8 km/h (1 Bft) 96,15 %
26.05.2016 13:58 21,3 C 57 % 1014,9 hPa 0,0 l/m 3,2 km/h (1 Bft) N-NW 328 1 min 0,000 mm 5,8 UV-I 858 W/m 12,4 C 21,3 C 4,8 km/h (1 Bft) 100,00 %
26.05.2016 13:59 21,4 C 60 % 1014,9 hPa 0,0 l/m 4,9 km/h (1 Bft) NW 313 1 min 0,000 mm 5,8 UV-I 858 W/m 13,3 C 21,4 C 8,0 km/h (2 Bft) 96,15 %
26.05.2016 14:00 21,4 C 57 % 1014,9 hPa 0,0 l/m 1,3 km/h (1 Bft) W-NW 292 1 min 0,534 mm 5,8 UV-I 856 W/m 12,5 C 21,4 C 1,6 km/h (1 Bft) 100,00 %
26.05.2016 14:02 21,3 C 57 % 1015,0 hPa 0,0 l/m 2,1 km/h (1 Bft) N-NO 13 2 min 0,000 mm 5,7 UV-I 855 W/m 12,4 C 21,3 C 4,8 km/h (1 Bft) 100,00 %
26.05.2016 14:03 21,2 C 58 % 1014,9 hPa 0,0 l/m 1,9 km/h (1 Bft) N-NO 13 1 min 0,000 mm 5,7 UV-I 853 W/m 12,6 C 21,2 C 3,2 km/h (1 Bft) 100,00 %
26.05.2016 14:04 21,3 C 63 % 1014,9 hPa 0,0 l/m 1,6 km/h (1 Bft) N-NO 12 1 min 0,000 mm 5,7 UV-I 853 W/m 14,0 C 21,3 C 3,2 km/h (1 Bft) 100,00 %
26.05.2016 14:05 21,4 C 64 % 1014,9 hPa 0,0 l/m 3,2 km/h (1 Bft) NW 307 1 min 0,000 mm 5,7 UV-I 851 W/m 14,3 C 21,4 C 6,4 km/h (2 Bft) 93,33 %
26.05.2016 14:06 21,6 C 63 % 1014,9 hPa 0,0 l/m 3,4 km/h (1 Bft) N-NW 332 1 min 0,000 mm 5,7 UV-I 851 W/m 14,2 C 21,6 C 8,0 km/h (2 Bft) 92,31 %
26.05.2016 14:07 21,5 C 57 % 1014,9 hPa 0,0 l/m 2,8 km/h (1 Bft) NW 322 1 min 0,000 mm 5,7 UV-I 851 W/m 12,6 C 21,5 C 6,4 km/h (2 Bft) 100,00 %
26.05.2016 14:08 21,4 C 55 % 1014,9 hPa 0,0 l/m 4,2 km/h (1 Bft) N-NW 329 1 min 0,000 mm 5,7 UV-I 852 W/m 12,0 C 21,4 C 6,4 km/h (2 Bft) 100,00 %
26.05.2016 14:09 21,3 C 54 % 1014,9 hPa 0,0 l/m 2,6 km/h (1 Bft) N-NW 329 1 min 0,000 mm 5,7 UV-I 851 W/m 11,6 C 21,3 C 6,4 km/h (2 Bft) 100,00 %
26.05.2016 14:10 21,3 C 55 % 1014,8 hPa 0,0 l/m 2,7 km/h (1 Bft) W-NW 291 1 min 0,000 mm 5,6 UV-I 849 W/m 11,9 C 21,3 C 6,4 km/h (2 Bft) 100,00 %
26.05.2016 14:11 21,3 C 62 % 1014,8 hPa 0,0 l/m 3,6 km/h (1 Bft) NW 322 1 min 0,000 mm 5,6 UV-I 848 W/m 13,7 C 21,3 C 4,8 km/h (1 Bft) 100,00 %
26.05.2016 14:12 21,3 C 56 % 1014,8 hPa 0,0 l/m 3,7 km/h (1 Bft) W-NW 298 1 min 0,000 mm 5,6 UV-I 848 W/m 12,2 C 21,3 C 4,8 km/h (1 Bft) 100,00 %
26.05.2016 14:13 21,3 C 57 % 1014,8 hPa 0,0 l/m 1,9 km/h (1 Bft) NW 314 1 min 0,000 mm 5,6 UV-I 848 W/m 12,4 C 21,3 C 3,2 km/h (1 Bft) 100,00 %
26.05.2016 14:14 21,4 C 57 % 1014,8 hPa 0,0 l/m 1,8 km/h (1 Bft) NW 304 1 min 0,000 mm 5,6 UV-I 846 W/m 12,5 C 21,4 C 3,2 km/h (1 Bft) 100,00 %
26.05.2016 14:15 21,4 C 54 % 1014,8 hPa 0,0 l/m 3,3 km/h (1 Bft) W-NW 296 1 min 0,000 mm 5,6 UV-I 844 W/m 11,7 C 21,4 C 4,8 km/h (1 Bft) 100,00 %
26.05.2016 14:16 21,4 C 52 % 1014,8 hPa 0,0 l/m 3,4 km/h (1 Bft) NW 322 1 min 0,000 mm 5,6 UV-I 846 W/m 11,1 C 21,4 C 6,4 km/h (2 Bft) 100,00 %
26.05.2016 14:17 21,4 C 52 % 1014,7 hPa 0,0 l/m 2,3 km/h (1 Bft) SW 231 1 min 0,000 mm 5,6 UV-I 846 W/m 11,1 C 21,4 C 6,4 km/h (2 Bft) 100,00 %
26.05.2016 14:18 21,4 C 56 % 1014,7 hPa 0,0 l/m 4,4 km/h (1 Bft) W-SW 239 1 min 0,000 mm 5,5 UV-I 844 W/m 12,3 C 21,4 C 8,0 km/h (2 Bft) 100,00 %
26.05.2016 14:19 21,6 C 57 % 1014,7 hPa 0,0 l/m 2,1 km/h (1 Bft) S-SO 155 1 min 0,000 mm 5,5 UV-I 842 W/m 12,7 C 21,6 C 3,2 km/h (1 Bft) 100,00 %
26.05.2016 14:20 21,7 C 59 % 1014,7 hPa 0,0 l/m 1,2 km/h (1 Bft) W-NW 286 1 min 0,000 mm 5,5 UV-I 843 W/m 13,3 C 21,7 C 3,2 km/h (1 Bft) 100,00 %
26.05.2016 14:21 21,8 C 59 % 1014,7 hPa 0,0 l/m 2,6 km/h (1 Bft) W-NW 297 1 min 0,000 mm 5,5 UV-I 842 W/m 13,4 C 21,8 C 6,4 km/h (2 Bft) 95,83 %
26.05.2016 14:22 21,7 C 52 % 1014,7 hPa 0,0 l/m 4,1 km/h (1 Bft) W 265 1 min 0,000 mm 5,5 UV-I 838 W/m 11,4 C 21,7 C 6,4 km/h (2 Bft) 100,00 %
26.05.2016 14:23 21,7 C 51 % 1014,7 hPa 0,0 l/m 4,9 km/h (1 Bft) W 274 1 min 0,000 mm 5,5 UV-I 840 W/m 11,1 C 21,7 C 6,4 km/h (2 Bft) 100,00 %
26.05.2016 14:24 21,7 C 54 % 1014,7 hPa 0,0 l/m 2,2 km/h (1 Bft) W 274 1 min 0,000 mm 5,5 UV-I 838 W/m 12,0 C 21,7 C 3,2 km/h (1 Bft) 96,30 %
26.05.2016 14:25 21,7 C 57 % 1014,7 hPa 0,0 l/m 1,0 km/h (0 Bft) NW 319 1 min 0,000 mm 5,4 UV-I 837 W/m 12,8 C 21,7 C 3,2 km/h (1 Bft) 100,00 %
26.05.2016 14:26 21,7 C 57 % 1014,7 hPa 0,0 l/m 2,7 km/h (1 Bft) N-NO 17 1 min 0,000 mm 5,4 UV-I 834 W/m 12,8 C 21,7 C 4,8 km/h (1 Bft) 100,00 %
26.05.2016 14:27 21,7 C 56 % 1014,6 hPa 0,0 l/m 2,5 km/h (1 Bft) SO 129 1 min 0,000 mm 5,4 UV-I 835 W/m 12,5 C 21,7 C 4,8 km/h (1 Bft) 100,00 %
26.05.2016 14:28 21,7 C 57 % 1014,7 hPa 0,0 l/m 2,8 km/h (1 Bft) NW 306 1 min 0,000 mm 5,4 UV-I 835 W/m 12,8 C 21,7 C 4,8 km/h (1 Bft) 100,00 %
26.05.2016 14:29 21,6 C 53 % 1014,7 hPa 0,0 l/m 4,4 km/h (1 Bft) W-NW 290 1 min 0,000 mm 5,4 UV-I 831 W/m 11,6 C 21,6 C 6,4 km/h (2 Bft) 100,00 %
26.05.2016 14:30 21,6 C 53 % 1014,6 hPa 0,0 l/m 2,9 km/h (1 Bft) W-NW 291 1 min 0,000 mm 5,4 UV-I 831 W/m 11,6 C 21,6 C 4,8 km/h (1 Bft) 100,00 %
26.05.2016 14:31 21,6 C 56 % 1014,6 hPa 0,0 l/m 3,6 km/h (1 Bft) W-NW 286 1 min 0,000 mm 5,3 UV-I 831 W/m 12,4 C 21,6 C 11,3 km/h (2 Bft) 100,00 %
26.05.2016 14:32 21,7 C 53 % 1014,6 hPa 0,0 l/m 4,1 km/h (1 Bft) W-NW 291 1 min 0,000 mm 5,3 UV-I 828 W/m 11,7 C 21,7 C 4,8 km/h (1 Bft) 100,00 %
26.05.2016 14:33 21,7 C 54 % 1014,7 hPa 0,0 l/m 2,9 km/h (1 Bft) NW 317 1 min 0,000 mm 5,3 UV-I 828 W/m 12,0 C 21,7 C 4,8 km/h (1 Bft) 100,00 %
26.05.2016 14:34 21,7 C 51 % 1014,6 hPa 0,0 l/m 3,2 km/h (1 Bft) W-SW 255 1 min 0,000 mm 5,3 UV-I 826 W/m 11,1 C 21,7 C 4,8 km/h (1 Bft) 100,00 %
26.05.2016 14:35 21,7 C 53 % 1014,6 hPa 0,0 l/m 6,7 km/h (2 Bft) W-NW 284 1 min 0,000 mm 5,2 UV-I 824 W/m 11,7 C 21,6 C 11,3 km/h (2 Bft) 96,55 %
26.05.2016 14:36 21,8 C 54 % 1014,6 hPa 0,0 l/m 7,4 km/h (2 Bft) S 190 1 min 0,000 mm 5,2 UV-I 824 W/m 12,1 C 21,4 C 11,3 km/h (2 Bft) 100,00 %
26.05.2016 14:37 21,8 C 50 % 1014,6 hPa 0,0 l/m 6,9 km/h (2 Bft) W-SW 242 1 min 0,000 mm 5,2 UV-I 822 W/m 10,9 C 21,6 C 9,7 km/h (2 Bft) 100,00 %
26.05.2016 14:38 21,8 C 50 % 1014,6 hPa 0,0 l/m 4,7 km/h (1 Bft) W-SW 248 1 min 0,000 mm 5,2 UV-I 818 W/m 10,9 C 21,8 C 6,4 km/h (2 Bft) 100,00 %
26.05.2016 14:39 21,8 C 50 % 1014,6 hPa 0,0 l/m 3,7 km/h (1 Bft) W-SW 255 1 min 0,000 mm 5,2 UV-I 821 W/m 10,9 C 21,8 C 4,8 km/h (1 Bft) 96,15 %
26.05.2016 14:40 21,8 C 52 % 1014,6 hPa 0,0 l/m 3,1 km/h (1 Bft) W-SW 257 1 min 0,000 mm 5,1 UV-I 816 W/m 11,5 C 21,8 C 4,8 km/h (1 Bft) 92,59 %
26.05.2016 14:41 21,8 C 53 % 1014,5 hPa 0,0 l/m 2,7 km/h (1 Bft) NW 308 1 min 0,000 mm 5,1 UV-I 814 W/m 11,8 C 21,8 C 4,8 km/h (1 Bft) 100,00 %
26.05.2016 14:42 21,8 C 55 % 1014,6 hPa 0,0 l/m 2,7 km/h (1 Bft) NO 34 1 min 0,000 mm 5,1 UV-I 811 W/m 12,4 C 21,8 C 4,8 km/h (1 Bft) 96,88 %
26.05.2016 14:43 21,8 C 58 % 1014,5 hPa 0,0 l/m 7,9 km/h (2 Bft) N-NO 22 1 min 0,000 mm 5,1 UV-I 810 W/m 13,2 C 21,3 C 12,9 km/h (3 Bft) 96,15 %
26.05.2016 14:44 21,9 C 60 % 1014,5 hPa 0,0 l/m 6,8 km/h (2 Bft) NO 37 1 min 0,000 mm 5,0 UV-I 808 W/m 13,8 C 21,8 C 8,0 km/h (2 Bft) 91,67 %
26.05.2016 14:45 21,9 C 60 % 1014,6 hPa 0,0 l/m 7,3 km/h (2 Bft) NO 36 1 min 0,000 mm 5,0 UV-I 809 W/m 13,8 C 21,6 C 11,3 km/h (2 Bft) 100,00 %
26.05.2016 14:46 21,9 C 56 % 1014,6 hPa 0,0 l/m 4,0 km/h (1 Bft) N-NO 19 1 min 0,000 mm 5,0 UV-I 807 W/m 12,7 C 21,9 C 6,4 km/h (2 Bft) 95,12 %
26.05.2016 14:47 21,9 C 55 % 1014,6 hPa 0,0 l/m 3,6 km/h (1 Bft) NW 319 1 min 0,000 mm 5,0 UV-I 807 W/m 12,4 C 21,9 C 6,4 km/h (2 Bft) 95,83 %
26.05.2016 14:48 21,9 C 56 % 1014,6 hPa 0,0 l/m 2,1 km/h (1 Bft) W-NW 293 1 min 0,000 mm 5,0 UV-I 807 W/m 12,7 C 21,9 C 3,2 km/h (1 Bft) 100,00 %
26.05.2016 14:49 22,0 C 52 % 1014,5 hPa 0,0 l/m 1,3 km/h (1 Bft) N-NW 336 1 min 0,000 mm 5,0 UV-I 804 W/m 11,7 C 22,0 C 3,2 km/h (1 Bft) 95,83 %
26.05.2016 14:50 22,0 C 52 % 1014,5 hPa 0,0 l/m 3,8 km/h (1 Bft) NW 318 1 min 0,000 mm 4,9 UV-I 802 W/m 11,7 C 22,0 C 6,4 km/h (2 Bft) 95,65 %
26.05.2016 14:51 22,0 C 51 % 1014,5 hPa 0,0 l/m 1,4 km/h (1 Bft) NW 307 1 min 0,000 mm 4,9 UV-I 803 W/m 11,4 C 22,0 C 3,2 km/h (1 Bft) 100,00 %
26.05.2016 14:52 22,1 C 51 % 1014,5 hPa 0,0 l/m 2,3 km/h (1 Bft) W 277 1 min 0,000 mm 4,9 UV-I 802 W/m 11,5 C 22,1 C 3,2 km/h (1 Bft) 92,31 %
26.05.2016 14:53 22,1 C 50 % 1014,5 hPa 0,0 l/m 4,3 km/h (1 Bft) W 279 1 min 0,000 mm 4,9 UV-I 801 W/m 11,2 C 22,1 C 6,4 km/h (2 Bft) 100,00 %
26.05.2016 14:54 22,0 C 51 % 1014,5 hPa 0,0 l/m 4,0 km/h (1 Bft) W 272 1 min 0,000 mm 4,9 UV-I 800 W/m 11,4 C 22,0 C 4,8 km/h (1 Bft) 95,65 %
26.05.2016 14:55 21,9 C 48 % 1014,5 hPa 0,0 l/m 3,5 km/h (1 Bft) NW 323 1 min 0,000 mm 4,9 UV-I 798 W/m 10,4 C 21,9 C 4,8 km/h (1 Bft) 100,00 %
26.05.2016 14:56 21,9 C 50 % 1014,5 hPa 0,0 l/m 1,9 km/h (1 Bft) NW 323 1 min 0,000 mm 4,9 UV-I 798 W/m 11,0 C 21,9 C 3,2 km/h (1 Bft) 95,65 %
26.05.2016 14:57 21,9 C 49 % 1014,5 hPa 0,0 l/m 2,1 km/h (1 Bft) W-SW 258 1 min 0,000 mm 4,8 UV-I 794 W/m 10,7 C 21,9 C 6,4 km/h (2 Bft) 91,67 %
26.05.2016 14:58 22,0 C 53 % 1014,5 hPa 0,0 l/m 2,7 km/h (1 Bft) W 273 1 min 0,000 mm 4,8 UV-I 792 W/m 12,0 C 22,0 C 6,4 km/h (2 Bft) 96,55 %
26.05.2016 14:59 22,1 C 53 % 1014,5 hPa 0,0 l/m 2,6 km/h (1 Bft) NW 309 1 min 0,000 mm 4,8 UV-I 792 W/m 12,1 C 22,1 C 4,8 km/h (1 Bft) 96,30 %
26.05.2016 15:00 22,1 C 51 % 1014,5 hPa 0,0 l/m 2,6 km/h (1 Bft) N 5 1 min 0,508 mm 4,8 UV-I 790 W/m 11,5 C 22,1 C 4,8 km/h (1 Bft) 100,00 %
26.05.2016 15:02 22,0 C 54 % 1014,4 hPa 0,0 l/m 3,8 km/h (1 Bft) W 263 2 min 0,000 mm 4,7 UV-I 789 W/m 12,3 C 22,0 C 11,3 km/h (2 Bft) 98,11 %
26.05.2016 15:03 22,1 C 54 % 1014,4 hPa 0,0 l/m 2,7 km/h (1 Bft) N-NW 332 1 min 0,000 mm 4,7 UV-I 787 W/m 12,3 C 22,1 C 4,8 km/h (1 Bft) 95,83 %
26.05.2016 15:04 22,3 C 58 % 1014,4 hPa 0,0 l/m 5,3 km/h (1 Bft) NO 34 1 min 0,000 mm 4,7 UV-I 782 W/m 13,6 C 22,3 C 9,7 km/h (2 Bft) 100,00 %
26.05.2016 15:05 22,3 C 53 % 1014,4 hPa 0,0 l/m 2,5 km/h (1 Bft) N-NO 28 1 min 0,000 mm 4,7 UV-I 782 W/m 12,2 C 22,3 C 4,8 km/h (1 Bft) 92,31 %
26.05.2016 15:06 22,3 C 53 % 1014,4 hPa 0,0 l/m 5,0 km/h (1 Bft) NO 35 1 min 0,000 mm 4,6 UV-I 781 W/m 12,2 C 22,3 C 6,4 km/h (2 Bft) 100,00 %
26.05.2016 15:07 22,4 C 56 % 1014,4 hPa 0,0 l/m 4,4 km/h (1 Bft) NO 39 1 min 0,000 mm 4,6 UV-I 781 W/m 13,2 C 22,4 C 6,4 km/h (2 Bft) 95,65 %
26.05.2016 15:08 22,3 C 51 % 1014,4 hPa 0,0 l/m 2,5 km/h (1 Bft) NO 44 1 min 0,000 mm 4,6 UV-I 780 W/m 11,7 C 22,3 C 4,8 km/h (1 Bft) 100,00 %
26.05.2016 15:09 22,4 C 55 % 1014,4 hPa 0,0 l/m 5,6 km/h (1 Bft) N-NO 28 1 min 0,000 mm 4,6 UV-I 777 W/m 12,9 C 22,4 C 8,0 km/h (2 Bft) 95,65 %
26.05.2016 15:10 22,3 C 55 % 1014,4 hPa 0,0 l/m 3,6 km/h (1 Bft) N-NO 30 1 min 0,000 mm 4,6 UV-I 777 W/m 12,8 C 22,3 C 4,8 km/h (1 Bft) 96,30 %
26.05.2016 15:11 22,3 C 55 % 1014,4 hPa 0,0 l/m 3,4 km/h (1 Bft) N-NO 30 1 min 0,000 mm 4,5 UV-I 774 W/m 12,8 C 22,3 C 4,8 km/h (1 Bft) 100,00 %
26.05.2016 15:12 22,3 C 54 % 1014,4 hPa 0,0 l/m 3,4 km/h (1 Bft) N-NO 22 1 min 0,000 mm 4,5 UV-I 774 W/m 12,5 C 22,3 C 9,7 km/h (2 Bft) 100,00 %
26.05.2016 15:13 22,3 C 54 % 1014,4 hPa 0,0 l/m 8,0 km/h (2 Bft) N-NO 26 1 min 0,000 mm 4,2 UV-I 774 W/m 12,5 C 21,8 C 9,7 km/h (2 Bft) 100,00 %
26.05.2016 15:14 22,2 C 51 % 1014,4 hPa 0,0 l/m 5,3 km/h (1 Bft) NO 55 1 min 0,000 mm 4,4 UV-I 771 W/m 11,6 C 22,2 C 8,0 km/h (2 Bft) 100,00 %
26.05.2016 15:15 22,2 C 55 % 1014,4 hPa 0,0 l/m 2,3 km/h (1 Bft) N-NO 26 1 min 0,000 mm 4,4 UV-I 765 W/m 12,7 C 22,2 C 4,8 km/h (1 Bft) 100,00 %
26.05.2016 15:16 22,3 C 56 % 1014,3 hPa 0,0 l/m 4,0 km/h (1 Bft) NO 41 1 min 0,000 mm 4,4 UV-I 765 W/m 13,1 C 22,3 C 6,4 km/h (2 Bft) 100,00 %
26.05.2016 15:17 22,4 C 59 % 1014,4 hPa 0,0 l/m 5,2 km/h (1 Bft) O-NO 59 1 min 0,000 mm 4,4 UV-I 764 W/m 14,0 C 22,4 C 6,4 km/h (2 Bft) 100,00 %
26.05.2016 15:18 22,4 C 53 % 1014,3 hPa 0,0 l/m 2,6 km/h (1 Bft) O-NO 59 1 min 0,000 mm 4,4 UV-I 761 W/m 12,3 C 22,4 C 4,8 km/h (1 Bft) 100,00 %
26.05.2016 15:19 22,4 C 54 % 1014,4 hPa 0,0 l/m 2,0 km/h (1 Bft) O-NO 59 1 min 0,000 mm 4,3 UV-I 755 W/m 12,6 C 22,4 C 3,2 km/h (1 Bft) 96,15 %
26.05.2016 15:20 22,4 C 51 % 1014,4 hPa 0,0 l/m 1,9 km/h (1 Bft) O-NO 59 1 min 0,000 mm 4,3 UV-I 754 W/m 11,8 C 22,4 C 3,2 km/h (1 Bft) 100,00 %
26.05.2016 15:21 22,4 C 51 % 1014,3 hPa 0,0 l/m 2,2 km/h (1 Bft) O-NO 59 1 min 0,000 mm 4,3 UV-I 752 W/m 11,8 C 22,4 C 3,2 km/h (1 Bft) 100,00 %
26.05.2016 15:22 22,4 C 53 % 1014,4 hPa 0,0 l/m 2,7 km/h (1 Bft) W 272 1 min 0,000 mm 4,3 UV-I 754 W/m 12,3 C 22,4 C 9,7 km/h (2 Bft) 100,00 %
26.05.2016 15:23 22,4 C 50 % 1014,3 hPa 0,0 l/m 7,1 km/h (2 Bft) W 263 1 min 0,000 mm 4,3 UV-I 753 W/m 11,5 C 22,2 C 9,7 km/h (2 Bft) 100,00 %
26.05.2016 15:24 22,4 C 51 % 1014,3 hPa 0,0 l/m 5,5 km/h (1 Bft) W 277 1 min 0,000 mm 4,2 UV-I 751 W/m 11,8 C 22,4 C 6,4 km/h (2 Bft) 100,00 %
26.05.2016 15:25 22,3 C 51 % 1014,3 hPa 0,0 l/m 1,9 km/h (1 Bft) W 277 1 min 0,000 mm 4,2 UV-I 748 W/m 11,7 C 22,3 C 3,2 km/h (1 Bft) 100,00 %
26.05.2016 15:26 22,3 C 52 % 1014,3 hPa 0,0 l/m 1,8 km/h (1 Bft) W 277 1 min 0,000 mm 4,2 UV-I 745 W/m 12,0 C 22,3 C 3,2 km/h (1 Bft) 100,00 %
26.05.2016 15:27 22,3 C 53 % 1014,3 hPa 0,0 l/m 1,0 km/h (0 Bft) W 277 1 min 0,000 mm 4,1 UV-I 743 W/m 12,2 C 22,3 C 3,2 km/h (1 Bft) 100,00 %
26.05.2016 15:28 22,3 C 50 % 1014,3 hPa 0,0 l/m 1,3 km/h (1 Bft) W-NW 294 1 min 0,000 mm 4,1 UV-I 740 W/m 11,4 C 22,3 C 3,2 km/h (1 Bft) 95,65 %
26.05.2016 15:29 22,3 C 53 % 1014,3 hPa 0,0 l/m 3,1 km/h (1 Bft) W-NW 302 1 min 0,000 mm 4,1 UV-I 738 W/m 12,2 C 22,3 C 4,8 km/h (1 Bft) 100,00 %
26.05.2016 15:30 22,3 C 51 % 1014,3 hPa 0,0 l/m 3,2 km/h (1 Bft) W-NW 299 1 min 0,000 mm 4,0 UV-I 736 W/m 11,7 C 22,3 C 4,8 km/h (1 Bft) 100,00 %
26.05.2016 15:31 22,3 C 51 % 1014,3 hPa 0,0 l/m 2,5 km/h (1 Bft) NW 304 1 min 0,000 mm 4,0 UV-I 731 W/m 11,7 C 22,3 C 4,8 km/h (1 Bft) 100,00 %
26.05.2016 15:32 22,3 C 51 % 1014,2 hPa 0,0 l/m 1,6 km/h (1 Bft) NW 304 1 min 0,000 mm 4,0 UV-I 731 W/m 11,7 C 22,3 C 3,2 km/h (1 Bft) 100,00 %
26.05.2016 15:33 22,2 C 52 % 1014,2 hPa 0,0 l/m 1,2 km/h (1 Bft) NW 304 1 min 0,000 mm 4,0 UV-I 732 W/m 11,9 C 22,2 C 1,6 km/h (1 Bft) 100,00 %
26.05.2016 15:34 22,2 C 51 % 1014,2 hPa 0,0 l/m 1,1 km/h (1 Bft) NW 304 1 min 0,000 mm 4,0 UV-I 728 W/m 11,6 C 22,2 C 1,6 km/h (1 Bft) 100,00 %
26.05.2016 15:35 22,3 C 56 % 1014,2 hPa 0,0 l/m 3,6 km/h (1 Bft) NO 38 1 min 0,000 mm 4,0 UV-I 727 W/m 13,1 C 22,3 C 6,4 km/h (2 Bft) 100,00 %
26.05.2016 15:36 22,4 C 56 % 1014,2 hPa 0,0 l/m 1,5 km/h (1 Bft) N-NO 12 1 min 0,000 mm 3,9 UV-I 725 W/m 13,2 C 22,4 C 3,2 km/h (1 Bft) 98,29 %
26.05.2016 15:37 22,6 C 56 % 1014,2 hPa 0,0 l/m 2,7 km/h (1 Bft) N-NO 28 1 min 0,000 mm 3,9 UV-I 722 W/m 13,4 C 22,6 C 4,8 km/h (1 Bft) 100,00 %
26.05.2016 15:38 22,7 C 56 % 1014,2 hPa 0,0 l/m 1,5 km/h (1 Bft) N-NW 338 1 min 0,000 mm 3,9 UV-I 722 W/m 13,5 C 22,7 C 3,2 km/h (1 Bft) 96,15 %
26.05.2016 15:39 22,7 C 55 % 1014,2 hPa 0,0 l/m 1,9 km/h (1 Bft) N-NW 347 1 min 0,000 mm 3,9 UV-I 719 W/m 13,2 C 22,7 C 4,8 km/h (1 Bft) 100,00 %
26.05.2016 15:40 22,6 C 55 % 1014,2 hPa 0,0 l/m 6,2 km/h (2 Bft) N-NW 336 1 min 0,000 mm 3,9 UV-I 719 W/m 13,1 C 22,6 C 14,5 km/h (3 Bft) 100,00 %
26.05.2016 15:41 22,6 C 53 % 1014,2 hPa 0,0 l/m 4,7 km/h (1 Bft) N-NW 331 1 min 0,000 mm 3,9 UV-I 716 W/m 12,5 C 22,6 C 6,4 km/h (2 Bft) 100,00 %
26.05.2016 15:42 22,6 C 50 % 1014,2 hPa 0,0 l/m 4,5 km/h (1 Bft) W-SW 254 1 min 0,000 mm 3,8 UV-I 711 W/m 11,6 C 22,6 C 8,0 km/h (2 Bft) 100,00 %
26.05.2016 15:43 22,6 C 50 % 1014,2 hPa 0,0 l/m 2,5 km/h (1 Bft) W-SW 254 1 min 0,000 mm 3,7 UV-I 708 W/m 11,6 C 22,6 C 4,8 km/h (1 Bft) 95,65 %
26.05.2016 15:44 22,6 C 53 % 1014,2 hPa 0,0 l/m 0,4 km/h (0 Bft) W-SW 257 1 min 0,000 mm 3,7 UV-I 705 W/m 12,5 C 22,6 C 3,2 km/h (1 Bft) 100,00 %
26.05.2016 15:45 22,7 C 51 % 1014,2 hPa 0,0 l/m 3,6 km/h (1 Bft) N-NW 340 1 min 0,000 mm 3,7 UV-I 705 W/m 12,0 C 22,7 C 4,8 km/h (1 Bft) 100,00 %
26.05.2016 15:46 22,7 C 53 % 1014,2 hPa 0,0 l/m 3,7 km/h (1 Bft) NW 314 1 min 0,000 mm 3,7 UV-I 702 W/m 12,6 C 22,7 C 8,0 km/h (2 Bft) 100,00 %
26.05.2016 15:47 22,7 C 54 % 1014,2 hPa 0,0 l/m 3,4 km/h (1 Bft) NW 323 1 min 0,000 mm 3,7 UV-I 698 W/m 12,9 C 22,7 C 4,8 km/h (1 Bft) 100,00 %
26.05.2016 15:48 22,7 C 51 % 1014,1 hPa 0,0 l/m 1,7 km/h (1 Bft) NW 323 1 min 0,000 mm 3,6 UV-I 697 W/m 12,0 C 22,7 C 4,8 km/h (1 Bft) 100,00 %
26.05.2016 15:49 22,7 C 54 % 1014,1 hPa 0,0 l/m 1,6 km/h (1 Bft) S 182 1 min 0,000 mm 3,6 UV-I 694 W/m 12,9 C 22,7 C 3,2 km/h (1 Bft) 100,00 %
26.05.2016 15:50 22,7 C 51 % 1014,1 hPa 0,0 l/m 2,3 km/h (1 Bft) O-NO 67 1 min 0,000 mm 3,6 UV-I 694 W/m 12,0 C 22,7 C 4,8 km/h (1 Bft) 100,00 %
26.05.2016 15:51 22,8 C 54 % 1014,1 hPa 0,0 l/m 1,6 km/h (1 Bft) O-NO 78 1 min 0,000 mm 3,6 UV-I 694 W/m 13,0 C 22,8 C 3,2 km/h (1 Bft) 98,37 %
26.05.2016 15:52 22,8 C 53 % 1014,1 hPa 0,0 l/m 3,8 km/h (1 Bft) W-NW 293 1 min 0,000 mm 3,6 UV-I 690 W/m 12,7 C 22,8 C 9,7 km/h (2 Bft) 100,00 %
26.05.2016 15:53 22,8 C 52 % 1014,1 hPa 0,0 l/m 3,2 km/h (1 Bft) W-NW 302 1 min 0,000 mm 3,5 UV-I 685 W/m 12,4 C 22,8 C 4,8 km/h (1 Bft) 96,15 %
26.05.2016 15:54 22,8 C 50 % 1014,2 hPa 0,0 l/m 4,3 km/h (1 Bft) W-NW 297 1 min 0,000 mm 3,5 UV-I 680 W/m 11,8 C 22,8 C 6,4 km/h (2 Bft) 100,00 %
26.05.2016 15:55 22,8 C 50 % 1014,1 hPa 0,0 l/m 3,0 km/h (1 Bft) W-SW 255 1 min 0,000 mm 3,4 UV-I 679 W/m 11,8 C 22,8 C 4,8 km/h (1 Bft) 100,00 %
26.05.2016 15:56 22,8 C 53 % 1014,1 hPa 0,0 l/m 2,3 km/h (1 Bft) NW 317 1 min 0,000 mm 3,4 UV-I 679 W/m 12,7 C 22,8 C 4,8 km/h (1 Bft) 95,83 %
26.05.2016 15:57 22,8 C 52 % 1014,1 hPa 0,0 l/m 4,1 km/h (1 Bft) N-NW 329 1 min 0,000 mm 3,4 UV-I 678 W/m 12,4 C 22,8 C 6,4 km/h (2 Bft) 100,00 %
26.05.2016 15:58 22,8 C 52 % 1014,1 hPa 0,0 l/m 1,9 km/h (1 Bft) NW 314 1 min 0,000 mm 3,4 UV-I 678 W/m 12,4 C 22,8 C 3,2 km/h (1 Bft) 96,30 %
26.05.2016 15:59 22,8 C 56 % 1014,1 hPa 0,0 l/m 2,2 km/h (1 Bft) W-NW 290 1 min 0,000 mm 3,4 UV-I 676 W/m 13,6 C 22,8 C 4,8 km/h (1 Bft) 100,00 %
26.05.2016 16:00 22,8 C 51 % 1014,1 hPa 0,0 l/m 3,4 km/h (1 Bft) W-NW 297 1 min 0,000 mm 3,4 UV-I 673 W/m 12,1 C 22,8 C 4,8 km/h (1 Bft) 100,00 %
26.05.2016 16:02 22,7 C 52 % 1014,1 hPa 0,0 l/m 1,5 km/h (1 Bft) W-NW 302 2 min 0,457 mm 3,3 UV-I 662 W/m 12,3 C 22,7 C 3,2 km/h (1 Bft) 100,00 %
26.05.2016 16:03 22,7 C 52 % 1014,1 hPa 0,0 l/m 2,5 km/h (1 Bft) N-NW 329 1 min 0,000 mm 3,3 UV-I 662 W/m 12,3 C 22,7 C 4,8 km/h (1 Bft) 100,00 %
26.05.2016 16:04 22,7 C 52 % 1014,1 hPa 0,0 l/m 1,5 km/h (1 Bft) N-NW 331 1 min 0,000 mm 3,2 UV-I 644 W/m 12,3 C 22,7 C 3,2 km/h (1 Bft) 96,15 %
26.05.2016 16:05 22,8 C 53 % 1014,1 hPa 0,0 l/m 3,6 km/h (1 Bft) W-SW 244 1 min 0,000 mm 3,2 UV-I 656 W/m 12,7 C 22,8 C 6,4 km/h (2 Bft) 100,00 %
26.05.2016 16:06 22,8 C 49 % 1014,1 hPa 0,0 l/m 6,0 km/h (2 Bft) S 185 1 min 0,000 mm 3,3 UV-I 668 W/m 11,5 C 22,8 C 8,0 km/h (2 Bft) 100,00 %
26.05.2016 16:07 22,8 C 51 % 1014,0 hPa 0,0 l/m 6,8 km/h (2 Bft) S-SW 209 1 min 0,000 mm 3,2 UV-I 668 W/m 12,1 C 22,7 C 9,7 km/h (2 Bft) 100,00 %
26.05.2016 16:08 22,8 C 50 % 1014,0 hPa 0,0 l/m 1,3 km/h (1 Bft) S 174 1 min 0,000 mm 3,2 UV-I 663 W/m 11,8 C 22,8 C 3,2 km/h (1 Bft) 100,00 %
26.05.2016 16:09 22,8 C 50 % 1014,0 hPa 0,0 l/m 2,8 km/h (1 Bft) S 187 1 min 0,000 mm 3,2 UV-I 660 W/m 11,8 C 22,8 C 6,4 km/h (2 Bft) 100,00 %
26.05.2016 16:10 22,7 C 51 % 1014,0 hPa 0,0 l/m 2,0 km/h (1 Bft) S 177 1 min 0,000 mm 3,2 UV-I 659 W/m 12,0 C 22,7 C 3,2 km/h (1 Bft) 100,00 %
26.05.2016 16:11 22,7 C 50 % 1014,0 hPa 0,0 l/m 4,4 km/h (1 Bft) SO 142 1 min 0,000 mm 3,2 UV-I 657 W/m 11,7 C 22,7 C 6,4 km/h (2 Bft) 100,00 %
26.05.2016 16:12 22,7 C 52 % 1014,0 hPa 0,0 l/m 3,9 km/h (1 Bft) SO 142 1 min 0,000 mm 3,1 UV-I 654 W/m 12,3 C 22,7 C 6,4 km/h (2 Bft) 100,00 %
26.05.2016 16:13 22,7 C 51 % 1014,0 hPa 0,0 l/m 1,8 km/h (1 Bft) SO 142 1 min 0,000 mm 3,1 UV-I 641 W/m 12,0 C 22,7 C 3,2 km/h (1 Bft) 100,00 %
26.05.2016 16:14 22,7 C 50 % 1014,0 hPa 0,0 l/m 1,1 km/h (1 Bft) SO 142 1 min 0,000 mm 3,1 UV-I 640 W/m 11,7 C 22,7 C 1,6 km/h (1 Bft) 96,15 %
26.05.2016 16:15 22,8 C 51 % 1014,0 hPa 0,0 l/m 3,2 km/h (1 Bft) N-NO 26 1 min 0,000 mm 3,1 UV-I 634 W/m 12,1 C 22,8 C 6,4 km/h (2 Bft) 100,00 %
26.05.2016 16:16 22,8 C 56 % 1014,0 hPa 0,0 l/m 3,6 km/h (1 Bft) NO 43 1 min 0,000 mm 2,9 UV-I 628 W/m 13,6 C 22,8 C 6,4 km/h (2 Bft) 100,00 %
26.05.2016 16:17 22,8 C 58 % 1013,9 hPa 0,0 l/m 3,0 km/h (1 Bft) W-NW 297 1 min 0,000 mm 2,8 UV-I 628 W/m 14,1 C 22,8 C 6,4 km/h (2 Bft) 100,00 %
26.05.2016 16:18 22,8 C 54 % 1013,9 hPa 0,0 l/m 3,6 km/h (1 Bft) NW 323 1 min 0,000 mm 2,9 UV-I 626 W/m 13,0 C 22,8 C 6,4 km/h (2 Bft) 100,00 %
26.05.2016 16:19 22,9 C 58 % 1013,9 hPa 0,0 l/m 3,7 km/h (1 Bft) N-NW 341 1 min 0,000 mm 2,9 UV-I 624 W/m 14,2 C 22,9 C 6,4 km/h (2 Bft) 100,00 %
26.05.2016 16:20 22,9 C 50 % 1013,9 hPa 0,0 l/m 1,7 km/h (1 Bft) NW 324 1 min 0,000 mm 3,0 UV-I 626 W/m 11,9 C 22,9 C 4,8 km/h (1 Bft) 100,00 %
26.05.2016 16:21 22,9 C 54 % 1013,9 hPa 0,0 l/m 3,2 km/h (1 Bft) NW 306 1 min 0,000 mm 3,0 UV-I 639 W/m 13,1 C 22,9 C 6,4 km/h (2 Bft) 95,83 %
26.05.2016 16:22 22,9 C 53 % 1013,9 hPa 0,0 l/m 3,4 km/h (1 Bft) N-NW 331 1 min 0,000 mm 2,9 UV-I 637 W/m 12,8 C 22,9 C 4,8 km/h (1 Bft) 100,00 %
26.05.2016 16:23 22,9 C 49 % 1013,9 hPa 0,0 l/m 1,2 km/h (1 Bft) N-NW 331 1 min 0,000 mm 2,9 UV-I 634 W/m 11,6 C 22,9 C 3,2 km/h (1 Bft) 100,00 %
26.05.2016 16:24 22,9 C 52 % 1013,9 hPa 0,0 l/m 2,3 km/h (1 Bft) N-NO 20 1 min 0,000 mm 2,9 UV-I 636 W/m 12,5 C 22,9 C 4,8 km/h (1 Bft) 100,00 %
26.05.2016 16:25 23,0 C 52 % 1013,9 hPa 0,0 l/m 1,4 km/h (1 Bft) N-NO 22 1 min 0,000 mm 2,9 UV-I 618 W/m 12,6 C 23,0 C 3,2 km/h (1 Bft) 96,15 %
26.05.2016 16:26 23,1 C 51 % 1013,8 hPa 0,0 l/m 1,5 km/h (1 Bft) N-NO 19 1 min 0,000 mm 2,8 UV-I 604 W/m 12,4 C 23,1 C 3,2 km/h (1 Bft) 100,00 %
26.05.2016 16:27 23,0 C 49 % 1013,8 hPa 0,0 l/m 3,0 km/h (1 Bft) N-NW 327 1 min 0,000 mm 2,8 UV-I 619 W/m 11,7 C 23,0 C 4,8 km/h (1 Bft) 100,00 %
26.05.2016 16:28 23,0 C 50 % 1013,8 hPa 0,0 l/m 4,0 km/h (1 Bft) N-NW 332 1 min 0,000 mm 2,8 UV-I 620 W/m 12,0 C 23,0 C 6,4 km/h (2 Bft) 100,00 %
26.05.2016 16:29 22,9 C 51 % 1013,8 hPa 0,0 l/m 2,3 km/h (1 Bft) N 11 1 min 0,000 mm 2,8 UV-I 617 W/m 12,2 C 22,9 C 4,8 km/h (1 Bft) 96,15 %
26.05.2016 16:30 22,9 C 53 % 1013,8 hPa 0,0 l/m 2,9 km/h (1 Bft) N-NW 339 1 min 0,000 mm 2,8 UV-I 619 W/m 12,8 C 22,9 C 4,8 km/h (1 Bft) 100,00 %
26.05.2016 16:31 22,9 C 55 % 1013,8 hPa 0,0 l/m 4,0 km/h (1 Bft) NW 306 1 min 0,000 mm 2,8 UV-I 621 W/m 13,4 C 22,9 C 8,0 km/h (2 Bft) 92,86 %
26.05.2016 16:32 22,8 C 55 % 1013,8 hPa 0,0 l/m 3,0 km/h (1 Bft) N-NW 348 1 min 0,000 mm 2,7 UV-I 619 W/m 13,3 C 22,8 C 6,4 km/h (2 Bft) 100,00 %
26.05.2016 16:33 22,8 C 52 % 1013,8 hPa 0,0 l/m 2,5 km/h (1 Bft) N 355 1 min 0,000 mm 2,7 UV-I 616 W/m 12,4 C 22,8 C 4,8 km/h (1 Bft) 96,55 %
26.05.2016 16:34 22,7 C 50 % 1013,8 hPa 0,0 l/m 3,6 km/h (1 Bft) NW 306 1 min 0,000 mm 2,7 UV-I 612 W/m 11,7 C 22,7 C 6,4 km/h (2 Bft) 95,83 %
26.05.2016 16:35 22,7 C 48 % 1013,8 hPa 0,0 l/m 1,9 km/h (1 Bft) N-NW 327 1 min 0,000 mm 2,6 UV-I 597 W/m 11,1 C 22,7 C 3,2 km/h (1 Bft) 100,00 %
26.05.2016 16:36 22,7 C 51 % 1013,8 hPa 0,0 l/m 1,6 km/h (1 Bft) N-NW 327 1 min 0,000 mm 2,6 UV-I 588 W/m 12,0 C 22,7 C 3,2 km/h (1 Bft) 100,00 %
26.05.2016 16:37 22,8 C 47 % 1013,7 hPa 0,0 l/m 1,4 km/h (1 Bft) N-NW 327 1 min 0,000 mm 2,6 UV-I 585 W/m 10,9 C 22,8 C 3,2 km/h (1 Bft) 96,55 %
26.05.2016 16:38 22,9 C 49 % 1013,8 hPa 0,0 l/m 0,8 km/h (0 Bft) NW 325 1 min 0,000 mm 2,5 UV-I 575 W/m 11,6 C 22,9 C 3,2 km/h (1 Bft) 95,83 %
26.05.2016 16:39 22,9 C 45 % 1013,7 hPa 0,0 l/m 0,6 km/h (0 Bft) NW 325 1 min 0,000 mm 2,5 UV-I 581 W/m 10,3 C 22,9 C 1,6 km/h (1 Bft) 100,00 %
26.05.2016 16:40 23,1 C 50 % 1013,7 hPa 0,0 l/m 1,0 km/h (0 Bft) N-NW 334 1 min 0,000 mm 2,5 UV-I 595 W/m 12,1 C 23,1 C 3,2 km/h (1 Bft) 95,83 %
26.05.2016 16:41 23,1 C 49 % 1013,7 hPa 0,0 l/m 3,0 km/h (1 Bft) N-NW 348 1 min 0,000 mm 2,5 UV-I 593 W/m 11,8 C 23,1 C 6,4 km/h (2 Bft) 100,00 %
26.05.2016 16:42 23,1 C 48 % 1013,7 hPa 0,0 l/m 3,1 km/h (1 Bft) NW 326 1 min 0,000 mm 2,5 UV-I 587 W/m 11,5 C 23,1 C 6,4 km/h (2 Bft) 91,67 %
26.05.2016 16:43 23,1 C 49 % 1013,8 hPa 0,0 l/m 1,2 km/h (1 Bft) NW 323 1 min 0,000 mm 2,5 UV-I 585 W/m 11,8 C 23,1 C 3,2 km/h (1 Bft) 100,00 %
26.05.2016 16:44 23,1 C 50 % 1013,8 hPa 0,0 l/m 1,8 km/h (1 Bft) N-NO 20 1 min 0,000 mm 2,4 UV-I 585 W/m 12,1 C 23,1 C 3,2 km/h (1 Bft) 91,30 %
26.05.2016 16:45 23,0 C 53 % 1013,7 hPa 0,0 l/m 3,0 km/h (1 Bft) N-NW 344 1 min 0,000 mm 2,4 UV-I 585 W/m 12,9 C 23,0 C 6,4 km/h (2 Bft) 100,00 %
26.05.2016 16:46 23,1 C 54 % 1013,7 hPa 0,0 l/m 1,8 km/h (1 Bft) N 11 1 min 0,000 mm 2,4 UV-I 583 W/m 13,3 C 23,1 C 3,2 km/h (1 Bft) 97,56 %
26.05.2016 16:47 23,1 C 52 % 1013,8 hPa 0,0 l/m 1,7 km/h (1 Bft) N 11 1 min 0,000 mm 2,4 UV-I 580 W/m 12,7 C 23,1 C 3,2 km/h (1 Bft) 95,83 %
26.05.2016 16:48 23,1 C 53 % 1013,7 hPa 0,0 l/m 1,8 km/h (1 Bft) NW 316 1 min 0,000 mm 2,4 UV-I 578 W/m 13,0 C 23,1 C 3,2 km/h (1 Bft) 100,00 %
26.05.2016 16:49 23,0 C 49 % 1013,7 hPa 0,0 l/m 2,6 km/h (1 Bft) W-NW 303 1 min 0,000 mm 2,4 UV-I 562 W/m 11,7 C 23,0 C 4,8 km/h (1 Bft) 95,83 %
26.05.2016 16:50 22,9 C 48 % 1013,7 hPa 0,0 l/m 1,9 km/h (1 Bft) N-NW 330 1 min 0,000 mm 2,2 UV-I 533 W/m 11,3 C 22,9 C 4,8 km/h (1 Bft) 100,00 %
26.05.2016 16:51 22,9 C 50 % 1013,7 hPa 0,0 l/m 2,5 km/h (1 Bft) N 5 1 min 0,000 mm 2,3 UV-I 568 W/m 11,9 C 22,9 C 4,8 km/h (1 Bft) 96,30 %
26.05.2016 16:52 22,9 C 54 % 1013,7 hPa 0,0 l/m 3,2 km/h (1 Bft) W-NW 297 1 min 0,000 mm 2,3 UV-I 576 W/m 13,1 C 22,9 C 6,4 km/h (2 Bft) 96,55 %
26.05.2016 16:53 22,9 C 48 % 1013,7 hPa 0,0 l/m 2,9 km/h (1 Bft) N-NW 345 1 min 0,000 mm 2,3 UV-I 571 W/m 11,3 C 22,9 C 4,8 km/h (1 Bft) 100,00 %
26.05.2016 16:54 22,9 C 53 % 1013,7 hPa 0,0 l/m 1,7 km/h (1 Bft) N-NO 16 1 min 0,000 mm 2,2 UV-I 554 W/m 12,8 C 22,9 C 3,2 km/h (1 Bft) 100,00 %
26.05.2016 16:55 22,9 C 50 % 1013,6 hPa 0,0 l/m 1,0 km/h (0 Bft) N 11 1 min 0,000 mm 2,2 UV-I 522 W/m 11,9 C 22,9 C 3,2 km/h (1 Bft) 100,00 %
26.05.2016 16:56 23,0 C 51 % 1013,6 hPa 0,0 l/m 1,8 km/h (1 Bft) NW 322 1 min 0,000 mm 2,2 UV-I 532 W/m 12,3 C 23,0 C 4,8 km/h (1 Bft) 96,15 %
26.05.2016 16:57 23,0 C 45 % 1013,6 hPa 0,0 l/m 1,4 km/h (1 Bft) N-NW 329 1 min 0,000 mm 2,2 UV-I 537 W/m 10,4 C 23,0 C 3,2 km/h (1 Bft) 96,30 %
26.05.2016 16:58 23,1 C 45 % 1013,6 hPa 0,0 l/m 1,5 km/h (1 Bft) N 10 1 min 0,000 mm 2,1 UV-I 540 W/m 10,5 C 23,1 C 3,2 km/h (1 Bft) 91,67 %
26.05.2016 16:59 23,1 C 47 % 1013,6 hPa 0,0 l/m 3,5 km/h (1 Bft) N-NO 13 1 min 0,000 mm 2,1 UV-I 528 W/m 11,2 C 23,1 C 6,4 km/h (2 Bft) 100,00 %
26.05.2016 17:00 23,1 C 51 % 1013,6 hPa 0,0 l/m 2,0 km/h (1 Bft) N 9 1 min 0,381 mm 2,1 UV-I 554 W/m 12,4 C 23,1 C 3,2 km/h (1 Bft) 95,83 %
26.05.2016 17:02 23,0 C 49 % 1013,6 hPa 0,0 l/m 2,0 km/h (1 Bft) N-NW 329 2 min 0,000 mm 2,1 UV-I 546 W/m 11,7 C 23,0 C 4,8 km/h (1 Bft) 98,00 %
26.05.2016 17:03 23,1 C 49 % 1013,6 hPa 0,0 l/m 2,4 km/h (1 Bft) N 351 1 min 0,000 mm 2,1 UV-I 538 W/m 11,8 C 23,1 C 4,8 km/h (1 Bft) 100,00 %
26.05.2016 17:04 23,1 C 48 % 1013,6 hPa 0,0 l/m 2,3 km/h (1 Bft) N 11 1 min 0,000 mm 2,0 UV-I 538 W/m 11,5 C 23,1 C 3,2 km/h (1 Bft) 100,00 %
26.05.2016 17:05 23,1 C 48 % 1013,6 hPa 0,0 l/m 2,1 km/h (1 Bft) N 10 1 min 0,000 mm 2,0 UV-I 540 W/m 11,5 C 23,1 C 3,2 km/h (1 Bft) 100,00 %
26.05.2016 17:06 23,2 C 52 % 1013,6 hPa 0,0 l/m 2,8 km/h (1 Bft) N-NO 19 1 min 0,000 mm 2,0 UV-I 525 W/m 12,8 C 23,2 C 8,0 km/h (2 Bft) 100,00 %
26.05.2016 17:07 23,1 C 56 % 1013,6 hPa 0,0 l/m 3,2 km/h (1 Bft) N-NW 327 1 min 0,000 mm 2,0 UV-I 497 W/m 13,8 C 23,1 C 4,8 km/h (1 Bft) 86,96 %
26.05.2016 17:08 23,0 C 55 % 1013,6 hPa 0,0 l/m 6,2 km/h (2 Bft) N-NO 15 1 min 0,000 mm 1,9 UV-I 521 W/m 13,5 C 23,0 C 11,3 km/h (2 Bft) 100,00 %
26.05.2016 17:09 23,1 C 51 % 1013,6 hPa 0,0 l/m 3,1 km/h (1 Bft) N-NO 15 1 min 0,000 mm 1,9 UV-I 508 W/m 12,4 C 23,1 C 4,8 km/h (1 Bft) 100,00 %
26.05.2016 17:10 23,0 C 45 % 1013,6 hPa 0,0 l/m 1,7 km/h (1 Bft) N-NW 347 1 min 0,000 mm 1,9 UV-I 487 W/m 10,4 C 23,0 C 3,2 km/h (1 Bft) 100,00 %
26.05.2016 17:11 22,9 C 46 % 1013,6 hPa 0,0 l/m 2,9 km/h (1 Bft) N 349 1 min 0,000 mm 1,8 UV-I 483 W/m 10,7 C 22,9 C 4,8 km/h (1 Bft) 100,00 %
26.05.2016 17:12 22,9 C 46 % 1013,6 hPa 0,0 l/m 1,8 km/h (1 Bft) N 349 1 min 0,000 mm 1,8 UV-I 504 W/m 10,7 C 22,9 C 3,2 km/h (1 Bft) 100,00 %
26.05.2016 17:13 23,1 C 51 % 1013,6 hPa 0,0 l/m 1,9 km/h (1 Bft) N-NW 339 1 min 0,000 mm 1,9 UV-I 504 W/m 12,4 C 23,1 C 3,2 km/h (1 Bft) 100,00 %
26.05.2016 17:14 23,1 C 47 % 1013,6 hPa 0,0 l/m 2,1 km/h (1 Bft) N-NW 338 1 min 0,000 mm 1,8 UV-I 503 W/m 11,2 C 23,1 C 4,8 km/h (1 Bft) 100,00 %
26.05.2016 17:15 23,1 C 47 % 1013,6 hPa 0,0 l/m 2,5 km/h (1 Bft) N 355 1 min 0,000 mm 1,8 UV-I 503 W/m 11,2 C 23,1 C 4,8 km/h (1 Bft) 100,00 %
26.05.2016 17:16 23,1 C 47 % 1013,5 hPa 0,0 l/m 2,6 km/h (1 Bft) NW 309 1 min 0,000 mm 1,8 UV-I 503 W/m 11,2 C 23,1 C 4,8 km/h (1 Bft) 100,00 %
26.05.2016 17:17 23,1 C 46 % 1013,6 hPa 0,0 l/m 2,7 km/h (1 Bft) NW 307 1 min 0,000 mm 1,8 UV-I 497 W/m 10,8 C 23,1 C 4,8 km/h (1 Bft) 100,00 %
26.05.2016 17:18 23,1 C 51 % 1013,6 hPa 0,0 l/m 0,9 km/h (0 Bft) NW 309 1 min 0,000 mm 1,8 UV-I 494 W/m 12,4 C 23,1 C 1,6 km/h (1 Bft) 100,00 %
26.05.2016 17:19 23,2 C 49 % 1013,6 hPa 0,0 l/m 0,9 km/h (0 Bft) NW 309 1 min 0,000 mm 1,7 UV-I 491 W/m 11,9 C 23,2 C 3,2 km/h (1 Bft) 100,00 %
26.05.2016 17:20 23,2 C 47 % 1013,5 hPa 0,0 l/m 1,2 km/h (1 Bft) NW 309 1 min 0,000 mm 1,7 UV-I 488 W/m 11,3 C 23,2 C 3,2 km/h (1 Bft) 100,00 %
26.05.2016 17:21 23,3 C 49 % 1013,6 hPa 0,0 l/m 1,0 km/h (0 Bft) NW 309 1 min 0,000 mm 1,7 UV-I 486 W/m 12,0 C 23,3 C 1,6 km/h (1 Bft) 100,00 %
26.05.2016 17:22 23,3 C 54 % 1013,6 hPa 0,0 l/m 1,4 km/h (1 Bft) NW 309 1 min 0,000 mm 1,7 UV-I 483 W/m 13,5 C 23,3 C 3,2 km/h (1 Bft) 100,00 %
26.05.2016 17:23 23,3 C 52 % 1013,6 hPa 0,0 l/m 0,9 km/h (0 Bft) NW 309 1 min 0,000 mm 1,7 UV-I 482 W/m 12,9 C 23,3 C 3,2 km/h (1 Bft) 100,00 %
26.05.2016 17:24 23,3 C 51 % 1013,5 hPa 0,0 l/m 2,2 km/h (1 Bft) N-NO 28 1 min 0,000 mm 1,6 UV-I 478 W/m 12,6 C 23,3 C 3,2 km/h (1 Bft) 100,00 %
26.05.2016 17:25 23,3 C 51 % 1013,6 hPa 0,0 l/m 1,8 km/h (1 Bft) N 360 1 min 0,000 mm 1,6 UV-I 476 W/m 12,6 C 23,3 C 4,8 km/h (1 Bft) 100,00 %
26.05.2016 17:26 23,2 C 55 % 1013,6 hPa 0,0 l/m 2,7 km/h (1 Bft) N-NW 338 1 min 0,000 mm 1,6 UV-I 471 W/m 13,6 C 23,2 C 4,8 km/h (1 Bft) 100,00 %
26.05.2016 17:27 23,1 C 49 % 1013,5 hPa 0,0 l/m 1,3 km/h (1 Bft) N-NW 346 1 min 0,000 mm 1,6 UV-I 459 W/m 11,8 C 23,1 C 3,2 km/h (1 Bft) 100,00 %
26.05.2016 17:28 23,1 C 50 % 1013,6 hPa 0,0 l/m 0,6 km/h (0 Bft) N-NW 346 1 min 0,000 mm 1,5 UV-I 452 W/m 12,1 C 23,1 C 1,6 km/h (1 Bft) 100,00 %
26.05.2016 17:29 23,1 C 48 % 1013,5 hPa 0,0 l/m 0,5 km/h (0 Bft) N 355 1 min 0,000 mm 1,5 UV-I 446 W/m 11,5 C 23,1 C 3,2 km/h (1 Bft) 100,00 %
26.05.2016 17:30 23,2 C 50 % 1013,5 hPa 0,0 l/m 1,4 km/h (1 Bft) N-NW 340 1 min 0,000 mm 1,5 UV-I 413 W/m 12,2 C 23,2 C 3,2 km/h (1 Bft) 100,00 %
26.05.2016 17:31 23,2 C 55 % 1013,5 hPa 0,0 l/m 2,7 km/h (1 Bft) W-NW 284 1 min 0,000 mm 1,5 UV-I 425 W/m 13,6 C 23,2 C 4,8 km/h (1 Bft) 100,00 %
26.05.2016 17:32 23,3 C 49 % 1013,6 hPa 0,0 l/m 4,0 km/h (1 Bft) W-NW 289 1 min 0,000 mm 1,5 UV-I 443 W/m 12,0 C 23,3 C 6,4 km/h (2 Bft) 100,00 %
26.05.2016 17:33 23,3 C 46 % 1013,6 hPa 0,0 l/m 3,4 km/h (1 Bft) W-NW 289 1 min 0,000 mm 1,5 UV-I 455 W/m 11,0 C 23,3 C 4,8 km/h (1 Bft) 100,00 %
26.05.2016 17:34 23,3 C 48 % 1013,6 hPa 0,0 l/m 2,2 km/h (1 Bft) NW 311 1 min 0,000 mm 1,5 UV-I 452 W/m 11,7 C 23,3 C 4,8 km/h (1 Bft) 100,00 %
26.05.2016 17:35 23,3 C 45 % 1013,6 hPa 0,0 l/m 2,1 km/h (1 Bft) NW 311 1 min 0,000 mm 1,4 UV-I 448 W/m 10,7 C 23,3 C 4,8 km/h (1 Bft) 100,00 %
26.05.2016 17:36 23,3 C 46 % 1013,6 hPa 0,0 l/m 2,2 km/h (1 Bft) W-NW 302 1 min 0,000 mm 1,4 UV-I 444 W/m 11,0 C 23,3 C 4,8 km/h (1 Bft) 100,00 %
26.05.2016 17:37 23,2 C 46 % 1013,6 hPa 0,0 l/m 1,0 km/h (0 Bft) N-NO 17 1 min 0,000 mm 1,4 UV-I 440 W/m 10,9 C 23,2 C 1,6 km/h (1 Bft) 100,00 %
26.05.2016 17:38 23,2 C 52 % 1013,6 hPa 0,0 l/m 2,4 km/h (1 Bft) W-NW 284 1 min 0,000 mm 1,4 UV-I 437 W/m 12,8 C 23,2 C 4,8 km/h (1 Bft) 100,00 %
26.05.2016 17:39 23,2 C 49 % 1013,6 hPa 0,0 l/m 2,8 km/h (1 Bft) NW 304 1 min 0,000 mm 1,4 UV-I 433 W/m 11,9 C 23,2 C 6,4 km/h (2 Bft) 100,00 %
26.05.2016 17:40 23,1 C 46 % 1013,6 hPa 0,0 l/m 4,3 km/h (1 Bft) NW 310 1 min 0,000 mm 1,3 UV-I 427 W/m 10,8 C 23,1 C 4,8 km/h (1 Bft) 100,00 %
26.05.2016 17:41 23,1 C 47 % 1013,6 hPa 0,0 l/m 4,4 km/h (1 Bft) W-NW 292 1 min 0,000 mm 1,3 UV-I 423 W/m 11,2 C 23,1 C 6,4 km/h (2 Bft) 100,00 %
26.05.2016 17:42 23,1 C 46 % 1013,6 hPa 0,0 l/m 1,1 km/h (1 Bft) W-NW 292 1 min 0,000 mm 1,3 UV-I 427 W/m 10,8 C 23,1 C 3,2 km/h (1 Bft) 100,00 %
26.05.2016 17:43 23,0 C 52 % 1013,6 hPa 0,0 l/m 0,7 km/h (0 Bft) W-NW 292 1 min 0,000 mm 1,3 UV-I 424 W/m 12,6 C 23,0 C 1,6 km/h (1 Bft) 100,00 %
26.05.2016 17:44 22,9 C 46 % 1013,6 hPa 0,0 l/m 2,9 km/h (1 Bft) N-NO 20 1 min 0,000 mm 1,3 UV-I 421 W/m 10,7 C 22,9 C 4,8 km/h (1 Bft) 100,00 %
26.05.2016 17:45 23,0 C 53 % 1013,6 hPa 0,0 l/m 2,9 km/h (1 Bft) N-NO 14 1 min 0,000 mm 1,3 UV-I 408 W/m 12,9 C 23,0 C 6,4 km/h (2 Bft) 100,00 %
26.05.2016 17:46 22,9 C 54 % 1013,6 hPa 0,0 l/m 2,3 km/h (1 Bft) N-NO 13 1 min 0,000 mm 1,3 UV-I 415 W/m 13,1 C 22,9 C 4,8 km/h (1 Bft) 100,00 %
26.05.2016 17:47 22,8 C 54 % 1013,6 hPa 0,0 l/m 5,5 km/h (1 Bft) NO 37 1 min 0,000 mm 1,3 UV-I 412 W/m 13,0 C 22,8 C 6,4 km/h (2 Bft) 100,00 %
26.05.2016 17:48 22,9 C 55 % 1013,6 hPa 0,0 l/m 2,2 km/h (1 Bft) NO 37 1 min 0,000 mm 1,2 UV-I 405 W/m 13,4 C 22,9 C 3,2 km/h (1 Bft) 100,00 %
26.05.2016 17:49 22,9 C 49 % 1013,6 hPa 0,0 l/m 3,1 km/h (1 Bft) NO 37 1 min 0,000 mm 1,2 UV-I 404 W/m 11,6 C 22,9 C 4,8 km/h (1 Bft) 96,15 %
26.05.2016 17:50 22,9 C 51 % 1013,6 hPa 0,0 l/m 2,8 km/h (1 Bft) NO 37 1 min 0,000 mm 1,2 UV-I 385 W/m 12,2 C 22,9 C 3,2 km/h (1 Bft) 100,00 %
26.05.2016 17:51 22,9 C 48 % 1013,7 hPa 0,0 l/m 1,5 km/h (1 Bft) NO 37 1 min 0,000 mm 1,2 UV-I 378 W/m 11,3 C 22,9 C 1,6 km/h (1 Bft) 95,65 %
26.05.2016 17:52 23,0 C 46 % 1013,6 hPa 0,0 l/m 1,7 km/h (1 Bft) NO 37 1 min 0,000 mm 1,2 UV-I 396 W/m 10,7 C 23,0 C 3,2 km/h (1 Bft) 100,00 %
26.05.2016 17:53 23,1 C 47 % 1013,6 hPa 0,0 l/m 1,9 km/h (1 Bft) NO 38 1 min 0,000 mm 1,1 UV-I 396 W/m 11,2 C 23,1 C 3,2 km/h (1 Bft) 95,65 %
26.05.2016 17:54 23,1 C 45 % 1013,7 hPa 0,0 l/m 1,9 km/h (1 Bft) NO 38 1 min 0,000 mm 1,1 UV-I 392 W/m 10,5 C 23,1 C 3,2 km/h (1 Bft) 100,00 %
26.05.2016 17:55 23,1 C 44 % 1013,6 hPa 0,0 l/m 1,7 km/h (1 Bft) O-NO 57 1 min 0,000 mm 1,1 UV-I 389 W/m 10,2 C 23,1 C 3,2 km/h (1 Bft) 100,00 %
26.05.2016 17:56 23,1 C 49 % 1013,6 hPa 0,0 l/m 2,5 km/h (1 Bft) O-NO 57 1 min 0,000 mm 1,1 UV-I 386 W/m 11,8 C 23,1 C 4,8 km/h (1 Bft) 100,00 %
26.05.2016 17:57 23,1 C 46 % 1013,6 hPa 0,0 l/m 3,6 km/h (1 Bft) O-NO 57 1 min 0,000 mm 1,1 UV-I 384 W/m 10,8 C 23,1 C 4,8 km/h (1 Bft) 100,00 %
26.05.2016 17:58 23,2 C 47 % 1013,6 hPa 0,0 l/m 3,6 km/h (1 Bft) O-NO 57 1 min 0,000 mm 1,0 UV-I 381 W/m 11,3 C 23,2 C 4,8 km/h (1 Bft) 100,00 %
26.05.2016 17:59 23,2 C 48 % 1013,6 hPa 0,0 l/m 4,5 km/h (1 Bft) NO 55 1 min 0,000 mm 1,0 UV-I 378 W/m 11,6 C 23,2 C 6,4 km/h (2 Bft) 100,00 %
26.05.2016 18:00 23,2 C 46 % 1013,6 hPa 0,0 l/m 4,4 km/h (1 Bft) NO 49 1 min 0,000 mm 1,0 UV-I 372 W/m 10,9 C 23,2 C 6,4 km/h (2 Bft) 96,55 %
26.05.2016 18:02 23,2 C 47 % 1013,6 hPa 0,0 l/m 3,9 km/h (1 Bft) NO 40 2 min 0,305 mm 1,0 UV-I 360 W/m 11,3 C 23,2 C 6,4 km/h (2 Bft) 100,00 %
26.05.2016 18:03 23,2 C 48 % 1013,6 hPa 0,0 l/m 6,0 km/h (2 Bft) NO 46 1 min 0,000 mm 1,0 UV-I 364 W/m 11,6 C 23,2 C 8,0 km/h (2 Bft) 100,00 %
26.05.2016 18:04 23,1 C 47 % 1013,6 hPa 0,0 l/m 4,4 km/h (1 Bft) N-NO 27 1 min 0,000 mm 0,9 UV-I 360 W/m 11,2 C 23,1 C 6,4 km/h (2 Bft) 95,65 %
26.05.2016 18:05 23,1 C 48 % 1013,6 hPa 0,0 l/m 2,2 km/h (1 Bft) N-NO 27 1 min 0,000 mm 0,9 UV-I 360 W/m 11,5 C 23,1 C 3,2 km/h (1 Bft) 100,00 %
26.05.2016 18:06 23,1 C 48 % 1013,5 hPa 0,0 l/m 3,5 km/h (1 Bft) NO 40 1 min 0,000 mm 0,9 UV-I 358 W/m 11,5 C 23,1 C 6,4 km/h (2 Bft) 100,00 %
26.05.2016 18:07 23,1 C 50 % 1013,5 hPa 0,0 l/m 5,0 km/h (1 Bft) NO 43 1 min 0,000 mm 0,9 UV-I 356 W/m 12,1 C 23,1 C 6,4 km/h (2 Bft) 100,00 %
26.05.2016 18:08 23,1 C 50 % 1013,5 hPa 0,0 l/m 5,6 km/h (1 Bft) NO 42 1 min 0,000 mm 0,9 UV-I 354 W/m 12,1 C 23,1 C 6,4 km/h (2 Bft) 100,00 %
26.05.2016 18:09 23,1 C 49 % 1013,5 hPa 0,0 l/m 4,8 km/h (1 Bft) NO 44 1 min 0,000 mm 0,9 UV-I 352 W/m 11,8 C 23,1 C 6,4 km/h (2 Bft) 100,00 %
26.05.2016 18:10 23,1 C 48 % 1013,5 hPa 0,0 l/m 4,1 km/h (1 Bft) NO 53 1 min 0,000 mm 0,9 UV-I 348 W/m 11,5 C 23,1 C 6,4 km/h (2 Bft) 100,00 %
26.05.2016 18:11 23,1 C 50 % 1013,5 hPa 0,0 l/m 6,4 km/h (2 Bft) NO 46 1 min 0,000 mm 0,9 UV-I 346 W/m 12,1 C 23,1 C 8,0 km/h (2 Bft) 93,33 %
26.05.2016 18:12 23,1 C 51 % 1013,4 hPa 0,0 l/m 5,0 km/h (1 Bft) NO 34 1 min 0,000 mm 0,8 UV-I 343 W/m 12,4 C 23,1 C 6,4 km/h (2 Bft) 100,00 %
26.05.2016 18:13 23,0 C 50 % 1013,5 hPa 0,0 l/m 2,3 km/h (1 Bft) N-NO 33 1 min 0,000 mm 0,8 UV-I 340 W/m 12,0 C 23,0 C 4,8 km/h (1 Bft) 100,00 %
26.05.2016 18:14 22,9 C 50 % 1013,4 hPa 0,0 l/m 5,2 km/h (1 Bft) N-NO 22 1 min 0,000 mm 0,8 UV-I 334 W/m 11,9 C 22,9 C 6,4 km/h (2 Bft) 100,00 %
26.05.2016 18:15 22,8 C 52 % 1013,4 hPa 0,0 l/m 2,2 km/h (1 Bft) N-NO 13 1 min 0,000 mm 0,8 UV-I 332 W/m 12,4 C 22,8 C 6,4 km/h (2 Bft) 100,00 %
26.05.2016 18:16 22,8 C 54 % 1013,4 hPa 0,0 l/m 4,9 km/h (1 Bft) N-NO 22 1 min 0,000 mm 0,8 UV-I 330 W/m 13,0 C 22,8 C 6,4 km/h (2 Bft) 100,00 %
26.05.2016 18:17 22,8 C 49 % 1013,4 hPa 0,0 l/m 0,9 km/h (0 Bft) N-NO 22 1 min 0,000 mm 0,8 UV-I 329 W/m 11,5 C 22,8 C 1,6 km/h (1 Bft) 96,30 %
26.05.2016 18:18 22,8 C 53 % 1013,4 hPa 0,0 l/m 1,4 km/h (1 Bft) N 10 1 min 0,000 mm 0,8 UV-I 328 W/m 12,7 C 22,8 C 3,2 km/h (1 Bft) 100,00 %
26.05.2016 18:19 22,8 C 57 % 1013,4 hPa 0,0 l/m 2,7 km/h (1 Bft) N-NO 32 1 min 0,000 mm 0,7 UV-I 326 W/m 13,8 C 22,8 C 8,0 km/h (2 Bft) 95,83 %
26.05.2016 18:20 22,7 C 53 % 1013,4 hPa 0,0 l/m 4,0 km/h (1 Bft) N-NO 22 1 min 0,000 mm 0,7 UV-I 323 W/m 12,6 C 22,7 C 8,0 km/h (2 Bft) 95,83 %
26.05.2016 18:21 22,7 C 52 % 1013,4 hPa 0,0 l/m 3,8 km/h (1 Bft) N-NO 30 1 min 0,000 mm 0,7 UV-I 315 W/m 12,3 C 22,7 C 4,8 km/h (1 Bft) 100,00 %
26.05.2016 18:22 22,7 C 52 % 1013,4 hPa 0,0 l/m 6,1 km/h (2 Bft) N-NO 32 1 min 0,000 mm 0,7 UV-I 313 W/m 12,3 C 22,7 C 8,0 km/h (2 Bft) 100,00 %
26.05.2016 18:23 22,7 C 51 % 1013,4 hPa 0,0 l/m 4,9 km/h (1 Bft) N-NO 32 1 min 0,000 mm 0,7 UV-I 310 W/m 12,0 C 22,7 C 6,4 km/h (2 Bft) 96,88 %
26.05.2016 18:24 22,8 C 49 % 1013,4 hPa 0,0 l/m 3,7 km/h (1 Bft) NO 34 1 min 0,000 mm 0,7 UV-I 311 W/m 11,5 C 22,8 C 4,8 km/h (1 Bft) 96,30 %
26.05.2016 18:25 22,8 C 47 % 1013,4 hPa 0,0 l/m 3,1 km/h (1 Bft) NO 34 1 min 0,000 mm 0,6 UV-I 309 W/m 10,9 C 22,8 C 4,8 km/h (1 Bft) 100,00 %
26.05.2016 18:26 22,8 C 49 % 1013,4 hPa 0,0 l/m 2,0 km/h (1 Bft) NO 34 1 min 0,000 mm 0,7 UV-I 307 W/m 11,5 C 22,8 C 3,2 km/h (1 Bft) 96,67 %
26.05.2016 18:27 22,8 C 49 % 1013,4 hPa 0,0 l/m 1,3 km/h (1 Bft) NO 34 1 min 0,000 mm 0,7 UV-I 304 W/m 11,5 C 22,8 C 3,2 km/h (1 Bft) 96,15 %
26.05.2016 18:28 22,8 C 46 % 1013,5 hPa 0,0 l/m 0,5 km/h (0 Bft) NO 34 1 min 0,000 mm 0,7 UV-I 295 W/m 10,6 C 22,8 C 1,6 km/h (1 Bft) 92,59 %
26.05.2016 18:29 22,8 C 45 % 1013,4 hPa 0,0 l/m 0,6 km/h (0 Bft) NO 34 1 min 0,000 mm 0,6 UV-I 295 W/m 10,2 C 22,8 C 1,6 km/h (1 Bft) 100,00 %
26.05.2016 18:30 22,9 C 47 % 1013,4 hPa 0,0 l/m 1,6 km/h (1 Bft) NO 34 1 min 0,000 mm 0,6 UV-I 291 W/m 11,0 C 22,9 C 3,2 km/h (1 Bft) 95,83 %
26.05.2016 18:31 22,9 C 51 % 1013,4 hPa 0,0 l/m 2,0 km/h (1 Bft) NO 34 1 min 0,000 mm 0,6 UV-I 290 W/m 12,2 C 22,9 C 4,8 km/h (1 Bft) 95,65 %
26.05.2016 18:32 22,9 C 52 % 1013,4 hPa 0,0 l/m 5,3 km/h (1 Bft) N-NO 33 1 min 0,000 mm 0,6 UV-I 289 W/m 12,5 C 22,9 C 6,4 km/h (2 Bft) 100,00 %
26.05.2016 18:33 22,9 C 52 % 1013,4 hPa 0,0 l/m 3,7 km/h (1 Bft) N-NO 33 1 min 0,000 mm 0,6 UV-I 287 W/m 12,5 C 22,9 C 6,4 km/h (2 Bft) 91,30 %
26.05.2016 18:34 22,9 C 52 % 1013,3 hPa 0,0 l/m 3,8 km/h (1 Bft) N-NO 33 1 min 0,000 mm 0,6 UV-I 284 W/m 12,5 C 22,9 C 4,8 km/h (1 Bft) 100,00 %
26.05.2016 18:35 22,9 C 50 % 1013,4 hPa 0,0 l/m 3,7 km/h (1 Bft) N-NO 33 1 min 0,000 mm 0,6 UV-I 280 W/m 11,9 C 22,9 C 4,8 km/h (1 Bft) 96,15 %
26.05.2016 18:36 22,9 C 53 % 1013,4 hPa 0,0 l/m 3,8 km/h (1 Bft) N-NO 33 1 min 0,000 mm 0,6 UV-I 277 W/m 12,8 C 22,9 C 4,8 km/h (1 Bft) 96,30 %
26.05.2016 18:37 22,8 C 49 % 1013,4 hPa 0,0 l/m 3,4 km/h (1 Bft) NO 34 1 min 0,000 mm 0,6 UV-I 274 W/m 11,5 C 22,8 C 4,8 km/h (1 Bft) 100,00 %
26.05.2016 18:38 22,8 C 51 % 1013,4 hPa 0,0 l/m 4,6 km/h (1 Bft) NO 37 1 min 0,000 mm 0,6 UV-I 272 W/m 12,1 C 22,8 C 6,4 km/h (2 Bft) 87,50 %
26.05.2016 18:39 22,8 C 49 % 1013,4 hPa 0,0 l/m 4,3 km/h (1 Bft) NO 42 1 min 0,000 mm 0,6 UV-I 269 W/m 11,5 C 22,8 C 6,4 km/h (2 Bft) 96,15 %
26.05.2016 18:40 22,8 C 48 % 1013,4 hPa 0,0 l/m 2,9 km/h (1 Bft) NO 42 1 min 0,000 mm 0,6 UV-I 265 W/m 11,2 C 22,8 C 3,2 km/h (1 Bft) 95,83 %
26.05.2016 18:41 22,8 C 49 % 1013,4 hPa 0,0 l/m 1,9 km/h (1 Bft) NO 42 1 min 0,000 mm 0,5 UV-I 258 W/m 11,5 C 22,8 C 3,2 km/h (1 Bft) 100,00 %
26.05.2016 18:42 22,8 C 47 % 1013,4 hPa 0,0 l/m 2,8 km/h (1 Bft) NO 42 1 min 0,000 mm 0,5 UV-I 259 W/m 10,9 C 22,8 C 4,8 km/h (1 Bft) 92,31 %
26.05.2016 18:43 22,8 C 47 % 1013,3 hPa 0,0 l/m 4,0 km/h (1 Bft) O-NO 69 1 min 0,000 mm 0,5 UV-I 253 W/m 10,9 C 22,8 C 6,4 km/h (2 Bft) 100,00 %
26.05.2016 18:44 22,9 C 48 % 1013,3 hPa 0,0 l/m 3,4 km/h (1 Bft) O-NO 69 1 min 0,000 mm 0,5 UV-I 251 W/m 11,3 C 22,9 C 6,4 km/h (2 Bft) 96,15 %
26.05.2016 18:45 22,9 C 45 % 1013,3 hPa 0,0 l/m 5,0 km/h (1 Bft) O-NO 69 1 min 0,000 mm 0,5 UV-I 247 W/m 10,3 C 22,9 C 6,4 km/h (2 Bft) 95,83 %
26.05.2016 18:46 22,9 C 45 % 1013,4 hPa 0,0 l/m 3,3 km/h (1 Bft) O-NO 69 1 min 0,000 mm 0,5 UV-I 248 W/m 10,3 C 22,9 C 4,8 km/h (1 Bft) 96,15 %
26.05.2016 18:47 22,9 C 46 % 1013,4 hPa 0,0 l/m 2,6 km/h (1 Bft) O-NO 69 1 min 0,000 mm 0,5 UV-I 246 W/m 10,7 C 22,9 C 4,8 km/h (1 Bft) 95,83 %
26.05.2016 18:48 23,0 C 48 % 1013,3 hPa 0,0 l/m 2,3 km/h (1 Bft) O-NO 69 1 min 0,000 mm 0,5 UV-I 243 W/m 11,4 C 23,0 C 4,8 km/h (1 Bft) 100,00 %
26.05.2016 18:49 23,0 C 46 % 1013,3 hPa 0,0 l/m 3,3 km/h (1 Bft) O-NO 69 1 min 0,000 mm 0,5 UV-I 241 W/m 10,7 C 23,0 C 4,8 km/h (1 Bft) 100,00 %
26.05.2016 18:50 22,9 C 47 % 1013,4 hPa 0,0 l/m 3,0 km/h (1 Bft) O-NO 69 1 min 0,000 mm 0,5 UV-I 237 W/m 11,0 C 22,9 C 4,8 km/h (1 Bft) 100,00 %
26.05.2016 18:51 23,0 C 48 % 1013,4 hPa 0,0 l/m 3,6 km/h (1 Bft) O-NO 69 1 min 0,000 mm 0,1 UV-I 230 W/m 11,4 C 23,0 C 4,8 km/h (1 Bft) 100,00 %
26.05.2016 18:52 23,0 C 47 % 1013,4 hPa 0,0 l/m 2,7 km/h (1 Bft) O-NO 69 1 min 0,000 mm 0,0 UV-I 205 W/m 11,1 C 23,0 C 4,8 km/h (1 Bft) 100,00 %
26.05.2016 18:53 23,0 C 49 % 1013,3 hPa 0,0 l/m 5,0 km/h (1 Bft) NO 51 1 min 0,000 mm 0,0 UV-I 228 W/m 11,7 C 23,0 C 6,4 km/h (2 Bft) 95,83 %
26.05.2016 18:54 22,9 C 50 % 1013,3 hPa 0,0 l/m 3,9 km/h (1 Bft) NO 51 1 min 0,000 mm 0,0 UV-I 226 W/m 11,9 C 22,9 C 6,4 km/h (2 Bft) 96,15 %
26.05.2016 18:55 22,8 C 51 % 1013,4 hPa 0,0 l/m 2,7 km/h (1 Bft) NO 51 1 min 0,000 mm 0,0 UV-I 223 W/m 12,1 C 22,8 C 3,2 km/h (1 Bft) 100,00 %
26.05.2016 18:56 22,8 C 52 % 1013,4 hPa 0,0 l/m 2,5 km/h (1 Bft) NO 51 1 min 0,000 mm 0,0 UV-I 220 W/m 12,4 C 22,8 C 4,8 km/h (1 Bft) 100,00 %
26.05.2016 18:57 22,7 C 52 % 1013,4 hPa 0,0 l/m 4,0 km/h (1 Bft) NO 51 1 min 0,000 mm 0,0 UV-I 217 W/m 12,3 C 22,7 C 6,4 km/h (2 Bft) 100,00 %
26.05.2016 18:58 22,6 C 51 % 1013,4 hPa 0,0 l/m 5,5 km/h (1 Bft) NO 51 1 min 0,000 mm 0,0 UV-I 212 W/m 11,9 C 22,6 C 6,4 km/h (2 Bft) 100,00 %
26.05.2016 18:59 22,6 C 51 % 1013,3 hPa 0,0 l/m 5,7 km/h (1 Bft) NO 51 1 min 0,000 mm 0,0 UV-I 208 W/m 11,9 C 22,6 C 6,4 km/h (2 Bft) 100,00 %
26.05.2016 19:00 22,5 C 51 % 1013,4 hPa 0,0 l/m 5,0 km/h (1 Bft) NO 51 1 min 0,203 mm 0,0 UV-I 203 W/m 11,8 C 22,5 C 6,4 km/h (2 Bft) 100,00 %
26.05.2016 19:02 22,4 C 47 % 1013,4 hPa 0,0 l/m 4,0 km/h (1 Bft) NO 49 2 min 0,000 mm 0,0 UV-I 200 W/m 10,5 C 22,4 C 4,8 km/h (1 Bft) 100,00 %
26.05.2016 19:03 22,5 C 47 % 1013,3 hPa 0,0 l/m 1,3 km/h (1 Bft) NO 49 1 min 0,000 mm 0,0 UV-I 198 W/m 10,6 C 22,5 C 3,2 km/h (1 Bft) 100,00 %
26.05.2016 19:04 22,6 C 46 % 1013,3 hPa 0,0 l/m 3,6 km/h (1 Bft) NO 49 1 min 0,000 mm 0,0 UV-I 192 W/m 10,4 C 22,6 C 4,8 km/h (1 Bft) 95,83 %
26.05.2016 19:05 22,7 C 49 % 1013,3 hPa 0,0 l/m 2,4 km/h (1 Bft) NO 49 1 min 0,000 mm 0,0 UV-I 191 W/m 11,4 C 22,7 C 3,2 km/h (1 Bft) 100,00 %
26.05.2016 19:06 22,7 C 46 % 1013,3 hPa 0,0 l/m 1,4 km/h (1 Bft) NO 49 1 min 0,000 mm 0,0 UV-I 187 W/m 10,5 C 22,7 C 3,2 km/h (1 Bft) 96,30 %
26.05.2016 19:07 22,7 C 46 % 1013,4 hPa 0,0 l/m 1,7 km/h (1 Bft) NO 49 1 min 0,000 mm 0,0 UV-I 185 W/m 10,5 C 22,7 C 3,2 km/h (1 Bft) 100,00 %
26.05.2016 19:08 22,7 C 45 % 1013,4 hPa 0,0 l/m 2,7 km/h (1 Bft) NO 49 1 min 0,000 mm 0,0 UV-I 181 W/m 10,1 C 22,7 C 3,2 km/h (1 Bft) 100,00 %
26.05.2016 19:09 22,8 C 45 % 1013,4 hPa 0,0 l/m 2,0 km/h (1 Bft) NO 49 1 min 0,000 mm 0,0 UV-I 177 W/m 10,2 C 22,8 C 3,2 km/h (1 Bft) 100,00 %
26.05.2016 19:10 22,8 C 46 % 1013,3 hPa 0,0 l/m 1,7 km/h (1 Bft) NO 49 1 min 0,000 mm 0,0 UV-I 173 W/m 10,6 C 22,8 C 3,2 km/h (1 Bft) 100,00 %
26.05.2016 19:11 22,9 C 45 % 1013,3 hPa 0,0 l/m 2,8 km/h (1 Bft) NO 49 1 min 0,000 mm 0,0 UV-I 171 W/m 10,3 C 22,9 C 3,2 km/h (1 Bft) 100,00 %
26.05.2016 19:12 22,9 C 46 % 1013,3 hPa 0,0 l/m 2,3 km/h (1 Bft) NO 49 1 min 0,000 mm 0,0 UV-I 170 W/m 10,7 C 22,9 C 3,2 km/h (1 Bft) 95,83 %
26.05.2016 19:13 22,9 C 48 % 1013,3 hPa 0,0 l/m 2,5 km/h (1 Bft) NO 49 1 min 0,000 mm 0,0 UV-I 166 W/m 11,3 C 22,9 C 4,8 km/h (1 Bft) 100,00 %
26.05.2016 19:14 22,9 C 49 % 1013,3 hPa 0,0 l/m 3,0 km/h (1 Bft) NO 49 1 min 0,000 mm 0,0 UV-I 163 W/m 11,6 C 22,9 C 3,2 km/h (1 Bft) 100,00 %
26.05.2016 19:15 22,8 C 49 % 1013,3 hPa 0,0 l/m 3,5 km/h (1 Bft) NO 49 1 min 0,000 mm 0,0 UV-I 160 W/m 11,5 C 22,8 C 4,8 km/h (1 Bft) 100,00 %
26.05.2016 19:16 22,8 C 48 % 1013,2 hPa 0,0 l/m 3,2 km/h (1 Bft) NO 49 1 min 0,000 mm 0,0 UV-I 157 W/m 11,2 C 22,8 C 4,8 km/h (1 Bft) 100,00 %
26.05.2016 19:17 22,8 C 46 % 1013,3 hPa 0,0 l/m 2,1 km/h (1 Bft) NO 49 1 min 0,000 mm 0,0 UV-I 155 W/m 10,6 C 22,8 C 3,2 km/h (1 Bft) 100,00 %
26.05.2016 19:18 22,8 C 48 % 1013,2 hPa 0,0 l/m 2,2 km/h (1 Bft) NO 49 1 min 0,000 mm 0,0 UV-I 152 W/m 11,2 C 22,8 C 3,2 km/h (1 Bft) 100,00 %
26.05.2016 19:19 22,7 C 48 % 1013,2 hPa 0,0 l/m 1,6 km/h (1 Bft) NO 49 1 min 0,000 mm 0,0 UV-I 148 W/m 11,1 C 22,7 C 3,2 km/h (1 Bft) 100,00 %
26.05.2016 19:20 22,7 C 47 % 1013,2 hPa 0,0 l/m 0,9 km/h (0 Bft) NO 49 1 min 0,000 mm 0,0 UV-I 146 W/m 10,8 C 22,7 C 1,6 km/h (1 Bft) 100,00 %
26.05.2016 19:21 22,7 C 46 % 1013,2 hPa 0,0 l/m 1,3 km/h (1 Bft) NO 49 1 min 0,000 mm 0,0 UV-I 142 W/m 10,5 C 22,7 C 3,2 km/h (1 Bft) 100,00 %
26.05.2016 19:22 22,7 C 44 % 1013,2 hPa 0,0 l/m 2,5 km/h (1 Bft) NO 49 1 min 0,000 mm 0,0 UV-I 138 W/m 9,8 C 22,7 C 3,2 km/h (1 Bft) 100,00 %
26.05.2016 19:23 22,7 C 44 % 1013,2 hPa 0,0 l/m 1,6 km/h (1 Bft) NO 49 1 min 0,000 mm 0,0 UV-I 135 W/m 9,8 C 22,7 C 1,6 km/h (1 Bft) 100,00 %
26.05.2016 19:24 22,8 C 46 % 1013,3 hPa 0,0 l/m 1,5 km/h (1 Bft) NO 49 1 min 0,000 mm 0,0 UV-I 133 W/m 10,6 C 22,8 C 3,2 km/h (1 Bft) 100,00 %
26.05.2016 19:25 22,8 C 46 % 1013,3 hPa 0,0 l/m 0,7 km/h (0 Bft) NO 49 1 min 0,000 mm 0,0 UV-I 130 W/m 10,6 C 22,8 C 1,6 km/h (1 Bft) 100,00 %
26.05.2016 19:26 22,7 C 47 % 1013,3 hPa 0,0 l/m 0,1 km/h (0 Bft) NO 49 1 min 0,000 mm 0,0 UV-I 127 W/m 10,8 C 22,7 C 1,6 km/h (1 Bft) 100,00 %
26.05.2016 19:27 22,8 C 48 % 1013,3 hPa 0,0 l/m 0,3 km/h (0 Bft) NO 49 1 min 0,000 mm 0,0 UV-I 123 W/m 11,2 C 22,8 C 1,6 km/h (1 Bft) 100,00 %
26.05.2016 19:28 22,8 C 45 % 1013,2 hPa 0,0 l/m 1,0 km/h (0 Bft) NO 49 1 min 0,000 mm 0,0 UV-I 116 W/m 10,2 C 22,8 C 1,6 km/h (1 Bft) 100,00 %
26.05.2016 19:29 22,7 C 48 % 1013,2 hPa 0,0 l/m 1,0 km/h (0 Bft) NO 49 1 min 0,000 mm 0,0 UV-I 112 W/m 11,1 C 22,7 C 1,6 km/h (1 Bft) 100,00 %
26.05.2016 19:30 22,7 C 47 % 1013,2 hPa 0,0 l/m 0,9 km/h (0 Bft) NO 49 1 min 0,000 mm 0,0 UV-I 110 W/m 10,8 C 22,7 C 1,6 km/h (1 Bft) 100,00 %
26.05.2016 19:31 22,7 C 51 % 1013,2 hPa 0,0 l/m 0,6 km/h (0 Bft) NO 49 1 min 0,000 mm 0,0 UV-I 109 W/m 12,0 C 22,7 C 1,6 km/h (1 Bft) 100,00 %
26.05.2016 19:32 22,7 C 51 % 1013,2 hPa 0,0 l/m 1,1 km/h (1 Bft) NO 49 1 min 0,000 mm 0,0 UV-I 107 W/m 12,0 C 22,7 C 1,6 km/h (1 Bft) 100,00 %
26.05.2016 19:33 22,6 C 49 % 1013,2 hPa 0,0 l/m 0,9 km/h (0 Bft) NO 49 1 min 0,000 mm 0,0 UV-I 106 W/m 11,3 C 22,6 C 1,6 km/h (1 Bft) 100,00 %
26.05.2016 19:34 22,6 C 50 % 1013,2 hPa 0,0 l/m 0,8 km/h (0 Bft) NO 49 1 min 0,000 mm 0,0 UV-I 105 W/m 11,6 C 22,6 C 1,6 km/h (1 Bft) 100,00 %
26.05.2016 19:35 22,6 C 54 % 1013,2 hPa 0,0 l/m 1,1 km/h (1 Bft) NO 49 1 min 0,000 mm 0,0 UV-I 103 W/m 12,8 C 22,6 C 1,6 km/h (1 Bft) 100,00 %
26.05.2016 19:36 22,5 C 53 % 1013,2 hPa 0,0 l/m 1,4 km/h (1 Bft) NO 49 1 min 0,000 mm 0,0 UV-I 100 W/m 12,4 C 22,5 C 1,6 km/h (1 Bft) 100,00 %
26.05.2016 19:37 22,4 C 52 % 1013,2 hPa 0,0 l/m 1,2 km/h (1 Bft) NO 49 1 min 0,000 mm 0,0 UV-I 98 W/m 12,1 C 22,4 C 1,6 km/h (1 Bft) 100,00 %
26.05.2016 19:38 22,4 C 51 % 1013,2 hPa 0,0 l/m 0,6 km/h (0 Bft) NO 49 1 min 0,000 mm 0,0 UV-I 95 W/m 11,8 C 22,4 C 1,6 km/h (1 Bft) 100,00 %
26.05.2016 19:39 22,4 C 49 % 1013,2 hPa 0,0 l/m 1,9 km/h (1 Bft) NO 49 1 min 0,000 mm 0,0 UV-I 92 W/m 11,2 C 22,4 C 3,2 km/h (1 Bft) 100,00 %
26.05.2016 19:40 22,4 C 53 % 1013,2 hPa 0,0 l/m 2,1 km/h (1 Bft) NO 49 1 min 0,000 mm 0,0 UV-I 91 W/m 12,3 C 22,4 C 3,2 km/h (1 Bft) 100,00 %
26.05.2016 19:41 22,3 C 52 % 1013,2 hPa 0,0 l/m 0,9 km/h (0 Bft) NO 49 1 min 0,000 mm 0,0 UV-I 89 W/m 12,0 C 22,3 C 1,6 km/h (1 Bft) 97,37 %
26.05.2016 19:42 22,3 C 52 % 1013,2 hPa 0,0 l/m 1,0 km/h (0 Bft) NO 49 0 min 0,000 mm 0,0 UV-I 86 W/m 12,0 C 22,3 C 3,2 km/h (1 Bft) 100,00 %
26.05.2016 19:43 22,3 C 51 % 1013,2 hPa 0,0 l/m 2,3 km/h (1 Bft) NO 49 0 min 0,000 mm 0,0 UV-I 84 W/m 11,7 C 22,3 C 3,2 km/h (1 Bft) 100,00 %
26.05.2016 19:44 22,2 C 51 % 1013,2 hPa 0,0 l/m 1,5 km/h (1 Bft) NO 49 0 min 0,000 mm 0,0 UV-I 82 W/m 11,6 C 22,2 C 3,2 km/h (1 Bft) 100,00 %
26.05.2016 19:45 22,2 C 50 % 1013,2 hPa 0,0 l/m 1,8 km/h (1 Bft) NO 49 0 min 0,000 mm 0,0 UV-I 78 W/m 11,3 C 22,2 C 3,2 km/h (1 Bft) 100,00 %
26.05.2016 19:46 22,2 C 52 % 1013,2 hPa 0,0 l/m 1,8 km/h (1 Bft) NO 49 0 min 0,000 mm 0,0 UV-I 77 W/m 11,9 C 22,2 C 3,2 km/h (1 Bft) 100,00 %
26.05.2016 19:47 22,2 C 53 % 1013,2 hPa 0,0 l/m 1,3 km/h (1 Bft) NO 49 0 min 0,000 mm 0,0 UV-I 75 W/m 12,2 C 22,2 C 3,2 km/h (1 Bft) 100,00 %
26.05.2016 19:48 22,2 C 55 % 1013,2 hPa 0,0 l/m 2,0 km/h (1 Bft) NO 49 0 min 0,000 mm 0,0 UV-I 73 W/m 12,7 C 22,2 C 3,2 km/h (1 Bft) 100,00 %
26.05.2016 19:49 22,1 C 56 % 1013,2 hPa 0,0 l/m 1,8 km/h (1 Bft) NO 49 0 min 0,000 mm 0,0 UV-I 70 W/m 12,9 C 22,1 C 3,2 km/h (1 Bft) 100,00 %
26.05.2016 19:50 21,9 C 56 % 1013,2 hPa 0,0 l/m 1,7 km/h (1 Bft) NO 49 0 min 0,000 mm 0,0 UV-I 69 W/m 12,7 C 21,9 C 3,2 km/h (1 Bft) 100,00 %
26.05.2016 19:51 21,9 C 53 % 1013,2 hPa 0,0 l/m 0,8 km/h (0 Bft) NO 49 0 min 0,000 mm 0,0 UV-I 66 W/m 11,9 C 21,9 C 1,6 km/h (1 Bft) 100,00 %
26.05.2016 19:52 21,8 C 55 % 1013,2 hPa 0,0 l/m 1,3 km/h (1 Bft) NO 49 0 min 0,000 mm 0,0 UV-I 64 W/m 12,4 C 21,8 C 1,6 km/h (1 Bft) 100,00 %
26.05.2016 19:53 21,8 C 53 % 1013,2 hPa 0,0 l/m 1,6 km/h (1 Bft) NO 49 0 min 0,000 mm 0,0 UV-I 63 W/m 11,8 C 21,8 C 3,2 km/h (1 Bft) 100,00 %
26.05.2016 19:54 21,8 C 52 % 1013,2 hPa 0,0 l/m 1,9 km/h (1 Bft) NO 49 0 min 0,000 mm 0,0 UV-I 61 W/m 11,5 C 21,8 C 3,2 km/h (1 Bft) 100,00 %
26.05.2016 19:55 21,8 C 55 % 1013,2 hPa 0,0 l/m 1,7 km/h (1 Bft) NO 49 0 min 0,000 mm 0,0 UV-I 54 W/m 12,4 C 21,8 C 3,2 km/h (1 Bft) 100,00 %
26.05.2016 19:56 21,8 C 54 % 1013,2 hPa 0,0 l/m 1,8 km/h (1 Bft) NO 49 0 min 0,000 mm 0,0 UV-I 42 W/m 12,1 C 21,8 C 3,2 km/h (1 Bft) 100,00 %
26.05.2016 19:57 21,8 C 54 % 1013,2 hPa 0,0 l/m 1,4 km/h (1 Bft) NO 49 0 min 0,000 mm 0,0 UV-I 51 W/m 12,1 C 21,8 C 1,6 km/h (1 Bft) 100,00 %
26.05.2016 19:58 21,8 C 54 % 1013,2 hPa 0,0 l/m 1,3 km/h (1 Bft) NO 49 0 min 0,000 mm 0,0 UV-I 46 W/m 12,1 C 21,8 C 1,6 km/h (1 Bft) 100,00 %
26.05.2016 19:59 21,7 C 56 % 1013,2 hPa 0,0 l/m 0,9 km/h (0 Bft) NO 49 0 min 0,000 mm 0,0 UV-I 47 W/m 12,5 C 21,7 C 1,6 km/h (1 Bft) 100,00 %
26.05.2016 20:00 21,6 C 57 % 1013,2 hPa 0,0 l/m 0,5 km/h (0 Bft) NO 49 0 min 0,101 mm 0,0 UV-I 44 W/m 12,7 C 21,6 C 1,6 km/h (1 Bft) 100,00 %
26.05.2016 20:02 21,3 C 55 % 1013,2 hPa 0,0 l/m 0,9 km/h (0 Bft) NO 49 0 min 0,000 mm 0,0 UV-I 43 W/m 11,9 C 21,3 C 3,2 km/h (1 Bft) 100,00 %
26.05.2016 20:03 21,2 C 55 % 1013,1 hPa 0,0 l/m 0,1 km/h (0 Bft) NO 49 0 min 0,000 mm 0,0 UV-I 38 W/m 11,8 C 21,2 C 1,6 km/h (1 Bft) 100,00 %
26.05.2016 20:04 21,1 C 59 % 1013,1 hPa 0,0 l/m 0,1 km/h (0 Bft) NO 49 0 min 0,000 mm 0,0 UV-I 32 W/m 12,8 C 21,1 C 1,6 km/h (1 Bft) 95,65 %
26.05.2016 20:05 20,9 C 60 % 1013,1 hPa 0,0 l/m 0,8 km/h (0 Bft) NO 49 0 min 0,000 mm 0,0 UV-I 27 W/m 12,8 C 20,9 C 1,6 km/h (1 Bft) 100,00 %
26.05.2016 20:06 20,8 C 60 % 1013,1 hPa 0,0 l/m 2,3 km/h (1 Bft) NO 49 0 min 0,000 mm 0,0 UV-I 25 W/m 12,7 C 20,8 C 3,2 km/h (1 Bft) 100,00 %
26.05.2016 20:07 20,7 C 61 % 1013,1 hPa 0,0 l/m 3,0 km/h (1 Bft) NO 49 0 min 0,000 mm 0,0 UV-I 23 W/m 12,9 C 20,7 C 4,8 km/h (1 Bft) 100,00 %
26.05.2016 20:08 20,6 C 61 % 1013,1 hPa 0,0 l/m 3,1 km/h (1 Bft) NO 49 0 min 0,000 mm 0,0 UV-I 24 W/m 12,8 C 20,6 C 4,8 km/h (1 Bft) 100,00 %
26.05.2016 20:09 20,4 C 61 % 1013,1 hPa 0,0 l/m 3,0 km/h (1 Bft) NO 49 0 min 0,000 mm 0,0 UV-I 25 W/m 12,6 C 20,4 C 3,2 km/h (1 Bft) 100,00 %
26.05.2016 20:10 20,3 C 61 % 1013,1 hPa 0,0 l/m 2,8 km/h (1 Bft) NO 49 0 min 0,000 mm 0,0 UV-I 26 W/m 12,5 C 20,3 C 3,2 km/h (1 Bft) 100,00 %
26.05.2016 20:11 20,2 C 64 % 1013,1 hPa 0,0 l/m 2,3 km/h (1 Bft) NO 49 0 min 0,000 mm 0,0 UV-I 26 W/m 13,2 C 20,2 C 3,2 km/h (1 Bft) 100,00 %
26.05.2016 20:12 20,1 C 64 % 1013,0 hPa 0,0 l/m 2,2 km/h (1 Bft) NO 49 0 min 0,000 mm 0,0 UV-I 25 W/m 13,1 C 20,1 C 3,2 km/h (1 Bft) 91,30 %
26.05.2016 20:13 19,9 C 64 % 1013,1 hPa 0,0 l/m 2,7 km/h (1 Bft) NO 49 0 min 0,000 mm 0,0 UV-I 23 W/m 12,9 C 19,9 C 3,2 km/h (1 Bft) 92,59 %
26.05.2016 20:14 19,8 C 63 % 1013,1 hPa 0,0 l/m 2,2 km/h (1 Bft) NO 49 0 min 0,000 mm 0,0 UV-I 21 W/m 12,5 C 19,8 C 3,2 km/h (1 Bft) 100,00 %
26.05.2016 20:15 19,7 C 65 % 1013,1 hPa 0,0 l/m 1,9 km/h (1 Bft) NO 49 0 min 0,000 mm 0,0 UV-I 20 W/m 12,9 C 19,7 C 3,2 km/h (1 Bft) 96,88 %
26.05.2016 20:16 19,6 C 64 % 1013,1 hPa 0,0 l/m 1,9 km/h (1 Bft) NO 49 0 min 0,000 mm 0,0 UV-I 19 W/m 12,6 C 19,6 C 3,2 km/h (1 Bft) 100,00 %
26.05.2016 20:17 19,5 C 63 % 1013,1 hPa 0,0 l/m 3,8 km/h (1 Bft) NO 49 0 min 0,000 mm 0,0 UV-I 18 W/m 12,3 C 19,5 C 4,8 km/h (1 Bft) 95,83 %
26.05.2016 20:18 19,3 C 64 % 1013,1 hPa 0,0 l/m 4,2 km/h (1 Bft) O-NO 69 0 min 0,000 mm 0,0 UV-I 18 W/m 12,3 C 19,3 C 4,8 km/h (1 Bft) 100,00 %
26.05.2016 20:19 19,2 C 65 % 1013,1 hPa 0,0 l/m 2,8 km/h (1 Bft) O-NO 69 0 min 0,000 mm 0,0 UV-I 18 W/m 12,5 C 19,2 C 4,8 km/h (1 Bft) 96,15 %
26.05.2016 20:20 19,1 C 64 % 1013,1 hPa 0,0 l/m 3,3 km/h (1 Bft) O-NO 69 0 min 0,000 mm 0,0 UV-I 16 W/m 12,1 C 19,1 C 4,8 km/h (1 Bft) 100,00 %
26.05.2016 20:21 19,1 C 65 % 1013,2 hPa 0,0 l/m 2,1 km/h (1 Bft) O-NO 69 0 min 0,000 mm 0,0 UV-I 16 W/m 12,4 C 19,1 C 3,2 km/h (1 Bft) 92,86 %
26.05.2016 20:22 19,0 C 64 % 1013,2 hPa 0,0 l/m 2,8 km/h (1 Bft) O-NO 69 0 min 0,000 mm 0,0 UV-I 16 W/m 12,0 C 19,0 C 3,2 km/h (1 Bft) 97,44 %
26.05.2016 20:23 19,0 C 63 % 1013,2 hPa 0,0 l/m 2,5 km/h (1 Bft) O-NO 69 0 min 0,000 mm 0,0 UV-I 16 W/m 11,8 C 19,0 C 3,2 km/h (1 Bft) 100,00 %
26.05.2016 20:24 19,0 C 63 % 1013,2 hPa 0,0 l/m 3,4 km/h (1 Bft) O-NO 69 0 min 0,000 mm 0,0 UV-I 14 W/m 11,8 C 19,0 C 4,8 km/h (1 Bft) 100,00 %
26.05.2016 20:25 19,0 C 63 % 1013,2 hPa 0,0 l/m 3,6 km/h (1 Bft) O-NO 69 0 min 0,000 mm 0,0 UV-I 14 W/m 11,8 C 19,0 C 4,8 km/h (1 Bft) 97,37 %
26.05.2016 20:26 19,0 C 64 % 1013,2 hPa 0,0 l/m 2,8 km/h (1 Bft) O-NO 69 0 min 0,000 mm 0,0 UV-I 14 W/m 12,0 C 19,0 C 4,8 km/h (1 Bft) 95,83 %
26.05.2016 20:27 18,9 C 65 % 1013,2 hPa 0,0 l/m 3,4 km/h (1 Bft) O-NO 69 0 min 0,000 mm 0,0 UV-I 14 W/m 12,2 C 18,9 C 4,8 km/h (1 Bft) 96,15 %
26.05.2016 20:28 18,8 C 65 % 1013,2 hPa 0,0 l/m 2,6 km/h (1 Bft) O-NO 69 0 min 0,000 mm 0,0 UV-I 14 W/m 12,1 C 18,8 C 4,8 km/h (1 Bft) 100,00 %
26.05.2016 20:29 18,8 C 65 % 1013,2 hPa 0,0 l/m 3,9 km/h (1 Bft) O 82 0 min 0,000 mm 0,0 UV-I 13 W/m 12,1 C 18,8 C 6,4 km/h (2 Bft) 100,00 %
26.05.2016 20:30 18,7 C 64 % 1013,1 hPa 0,0 l/m 3,2 km/h (1 Bft) O 99 0 min 0,000 mm 0,0 UV-I 12 W/m 11,7 C 18,7 C 6,4 km/h (2 Bft) 91,67 %
26.05.2016 20:31 18,7 C 64 % 1013,1 hPa 0,0 l/m 2,7 km/h (1 Bft) O 99 0 min 0,000 mm 0,0 UV-I 12 W/m 11,7 C 18,7 C 4,8 km/h (1 Bft) 95,65 %
26.05.2016 20:32 18,7 C 65 % 1013,2 hPa 0,0 l/m 1,7 km/h (1 Bft) O 99 0 min 0,000 mm 0,0 UV-I 12 W/m 12,0 C 18,7 C 3,2 km/h (1 Bft) 100,00 %
26.05.2016 20:33 18,8 C 65 % 1013,2 hPa 0,0 l/m 3,0 km/h (1 Bft) O 101 0 min 0,000 mm 0,0 UV-I 11 W/m 12,1 C 18,8 C 6,4 km/h (2 Bft) 96,15 %
26.05.2016 20:34 18,9 C 66 % 1013,2 hPa 0,0 l/m 2,6 km/h (1 Bft) O 101 0 min 0,000 mm 0,0 UV-I 11 W/m 12,4 C 18,9 C 3,2 km/h (1 Bft) 100,00 %
26.05.2016 20:35 18,9 C 66 % 1013,2 hPa 0,0 l/m 2,8 km/h (1 Bft) O-SO 103 0 min 0,000 mm 0,0 UV-I 11 W/m 12,4 C 18,9 C 4,8 km/h (1 Bft) 92,31 %
26.05.2016 20:36 18,9 C 67 % 1013,2 hPa 0,0 l/m 0,5 km/h (0 Bft) O-SO 103 1 min 0,000 mm 0,0 UV-I 11 W/m 12,6 C 18,9 C 1,6 km/h (1 Bft) 100,00 %
26.05.2016 20:37 18,9 C 67 % 1013,2 hPa 0,0 l/m 0,5 km/h (0 Bft) O-SO 103 0 min 0,000 mm 0,0 UV-I 9 W/m 12,6 C 18,9 C 1,6 km/h (1 Bft) 96,30 %
26.05.2016 20:38 18,8 C 66 % 1013,2 hPa 0,0 l/m 2,6 km/h (1 Bft) O-SO 102 0 min 0,000 mm 0,0 UV-I 9 W/m 12,3 C 18,8 C 4,8 km/h (1 Bft) 96,15 %
26.05.2016 20:39 18,8 C 66 % 1013,2 hPa 0,0 l/m 2,5 km/h (1 Bft) O-SO 103 0 min 0,000 mm 0,0 UV-I 9 W/m 12,3 C 18,8 C 4,8 km/h (1 Bft) 100,00 %
26.05.2016 20:40 18,7 C 66 % 1013,2 hPa 0,0 l/m 2,7 km/h (1 Bft) O-SO 103 0 min 0,000 mm 0,0 UV-I 9 W/m 12,2 C 18,7 C 3,2 km/h (1 Bft) 91,67 %
26.05.2016 20:41 18,7 C 67 % 1013,2 hPa 0,0 l/m 1,5 km/h (1 Bft) O-SO 103 0 min 0,000 mm 0,0 UV-I 9 W/m 12,4 C 18,7 C 3,2 km/h (1 Bft) 100,00 %
26.05.2016 20:42 18,6 C 65 % 1013,2 hPa 0,0 l/m 1,6 km/h (1 Bft) O-SO 103 0 min 0,000 mm 0,0 UV-I 9 W/m 11,9 C 18,6 C 3,2 km/h (1 Bft) 96,15 %
26.05.2016 20:43 18,5 C 65 % 1013,2 hPa 0,0 l/m 3,3 km/h (1 Bft) O-SO 103 0 min 0,000 mm 0,0 UV-I 7 W/m 11,8 C 18,5 C 4,8 km/h (1 Bft) 100,00 %
26.05.2016 20:44 18,5 C 67 % 1013,2 hPa 0,0 l/m 3,0 km/h (1 Bft) O-SO 103 0 min 0,000 mm 0,0 UV-I 7 W/m 12,3 C 18,5 C 3,2 km/h (1 Bft) 91,30 %
26.05.2016 20:45 18,5 C 65 % 1013,2 hPa 0,0 l/m 3,6 km/h (1 Bft) O-SO 103 0 min 0,000 mm 0,0 UV-I 7 W/m 11,8 C 18,5 C 4,8 km/h (1 Bft) 100,00 %
26.05.2016 20:46 18,5 C 66 % 1013,2 hPa 0,0 l/m 3,6 km/h (1 Bft) O-SO 103 0 min 0,000 mm 0,0 UV-I 7 W/m 12,0 C 18,5 C 4,8 km/h (1 Bft) 86,96 %
26.05.2016 20:47 18,4 C 66 % 1013,2 hPa 0,0 l/m 3,4 km/h (1 Bft) O-SO 103 0 min 0,000 mm 0,0 UV-I 7 W/m 11,9 C 18,4 C 4,8 km/h (1 Bft) 95,83 %
26.05.2016 20:48 18,4 C 67 % 1013,2 hPa 0,0 l/m 3,4 km/h (1 Bft) O-SO 103 0 min 0,000 mm 0,0 UV-I 5 W/m 12,2 C 18,4 C 4,8 km/h (1 Bft) 100,00 %
26.05.2016 20:49 18,3 C 67 % 1013,2 hPa 0,0 l/m 4,4 km/h (1 Bft) O-SO 103 0 min 0,000 mm 0,0 UV-I 5 W/m 12,1 C 18,3 C 4,8 km/h (1 Bft) 100,00 %
26.05.2016 20:50 18,3 C 67 % 1013,2 hPa 0,0 l/m 4,3 km/h (1 Bft) O-SO 104 0 min 0,000 mm 0,0 UV-I 5 W/m 12,1 C 18,3 C 4,8 km/h (1 Bft) 100,00 %
26.05.2016 20:51 18,2 C 68 % 1013,2 hPa 0,0 l/m 4,2 km/h (1 Bft) O-SO 106 0 min 0,000 mm 0,0 UV-I 5 W/m 12,2 C 18,2 C 6,4 km/h (2 Bft) 83,33 %
26.05.2016 20:52 18,3 C 67 % 1013,2 hPa 0,0 l/m 3,6 km/h (1 Bft) O-SO 107 0 min 0,000 mm 0,0 UV-I 5 W/m 12,1 C 18,3 C 4,8 km/h (1 Bft) 100,00 %
26.05.2016 20:53 18,3 C 68 % 1013,2 hPa 0,0 l/m 2,4 km/h (1 Bft) O-SO 108 0 min 0,000 mm 0,0 UV-I 5 W/m 12,3 C 18,3 C 4,8 km/h (1 Bft) 100,00 %
26.05.2016 20:54 18,2 C 67 % 1013,2 hPa 0,0 l/m 4,2 km/h (1 Bft) O-SO 108 0 min 0,000 mm 0,0 UV-I 0 W/m 12,0 C 18,2 C 4,8 km/h (1 Bft) 100,00 %
26.05.2016 20:55 18,2 C 67 % 1013,3 hPa 0,0 l/m 3,4 km/h (1 Bft) O-SO 108 0 min 0,000 mm 0,0 UV-I 0 W/m 12,0 C 18,2 C 4,8 km/h (1 Bft) 100,00 %
26.05.2016 20:56 18,2 C 68 % 1013,2 hPa 0,0 l/m 3,1 km/h (1 Bft) O-SO 108 0 min 0,000 mm 0,0 UV-I 0 W/m 12,2 C 18,2 C 3,2 km/h (1 Bft) 100,00 %
26.05.2016 20:57 18,2 C 68 % 1013,3 hPa 0,0 l/m 3,5 km/h (1 Bft) O-SO 111 0 min 0,000 mm 0,0 UV-I 0 W/m 12,2 C 18,2 C 4,8 km/h (1 Bft) 100,00 %
26.05.2016 20:58 18,2 C 68 % 1013,3 hPa 0,0 l/m 2,6 km/h (1 Bft) O-SO 111 0 min 0,000 mm 0,0 UV-I 0 W/m 12,2 C 18,2 C 4,8 km/h (1 Bft) 100,00 %
26.05.2016 20:59 18,2 C 71 % 1013,3 hPa 0,0 l/m 2,6 km/h (1 Bft) O-SO 111 0 min 0,000 mm 0,0 UV-I 0 W/m 12,9 C 18,2 C 4,8 km/h (1 Bft) 100,00 %
26.05.2016 21:00 18,1 C 70 % 1013,3 hPa 0,0 l/m 3,4 km/h (1 Bft) O-SO 111 0 min 0,000 mm 0,0 UV-I 0 W/m 12,5 C 18,1 C 4,8 km/h (1 Bft) 95,83 %
26.05.2016 21:02 18,0 C 72 % 1013,3 hPa 0,0 l/m 2,8 km/h (1 Bft) O-SO 111 0 min 0,026 mm 0,0 UV-I 0 W/m 12,9 C 18,0 C 4,8 km/h (1 Bft) 98,21 %
26.05.2016 21:03 17,9 C 73 % 1013,3 hPa 0,0 l/m 2,4 km/h (1 Bft) O-SO 111 0 min 0,000 mm 0,0 UV-I 0 W/m 13,0 C 17,9 C 3,2 km/h (1 Bft) 100,00 %
26.05.2016 21:04 17,8 C 73 % 1013,3 hPa 0,0 l/m 1,6 km/h (1 Bft) O-SO 111 0 min 0,000 mm 0,0 UV-I 0 W/m 12,9 C 17,8 C 3,2 km/h (1 Bft) 100,00 %
26.05.2016 21:05 17,8 C 73 % 1013,3 hPa 0,0 l/m 2,1 km/h (1 Bft) O-SO 111 0 min 0,000 mm 0,0 UV-I 0 W/m 12,9 C 17,8 C 3,2 km/h (1 Bft) 100,00 %
26.05.2016 21:06 17,7 C 74 % 1013,3 hPa 0,0 l/m 1,2 km/h (1 Bft) O-SO 111 0 min 0,000 mm 0,0 UV-I 0 W/m 13,0 C 17,7 C 1,6 km/h (1 Bft) 100,00 %
26.05.2016 21:07 17,7 C 75 % 1013,3 hPa 0,0 l/m 2,2 km/h (1 Bft) O-SO 111 0 min 0,000 mm 0,0 UV-I 0 W/m 13,2 C 17,7 C 3,2 km/h (1 Bft) 100,00 %
26.05.2016 21:08 17,6 C 75 % 1013,3 hPa 0,0 l/m 3,3 km/h (1 Bft) O-SO 111 0 min 0,000 mm 0,0 UV-I 0 W/m 13,1 C 17,6 C 4,8 km/h (1 Bft) 100,00 %
26.05.2016 21:09 17,5 C 75 % 1013,4 hPa 0,0 l/m 3,2 km/h (1 Bft) O-SO 111 0 min 0,000 mm 0,0 UV-I 0 W/m 13,0 C 17,5 C 3,2 km/h (1 Bft) 96,15 %
26.05.2016 21:10 17,4 C 75 % 1013,3 hPa 0,0 l/m 2,9 km/h (1 Bft) O-SO 111 0 min 0,000 mm 0,0 UV-I 0 W/m 12,9 C 17,4 C 4,8 km/h (1 Bft) 100,00 %
26.05.2016 21:11 17,4 C 75 % 1013,4 hPa 0,0 l/m 1,9 km/h (1 Bft) O-SO 111 0 min 0,000 mm 0,0 UV-I 0 W/m 12,9 C 17,4 C 3,2 km/h (1 Bft) 100,00 %
26.05.2016 21:12 17,3 C 73 % 1013,4 hPa 0,0 l/m 3,9 km/h (1 Bft) O 98 0 min 0,000 mm 0,0 UV-I 0 W/m 12,4 C 17,3 C 6,4 km/h (2 Bft) 95,83 %
26.05.2016 21:13 17,4 C 72 % 1013,4 hPa 0,0 l/m 3,9 km/h (1 Bft) O 98 0 min 0,000 mm 0,0 UV-I 0 W/m 12,3 C 17,4 C 4,8 km/h (1 Bft) 96,55 %
26.05.2016 21:14 17,3 C 73 % 1013,4 hPa 0,0 l/m 3,1 km/h (1 Bft) O 98 0 min 0,000 mm 0,0 UV-I 0 W/m 12,4 C 17,3 C 4,8 km/h (1 Bft) 100,00 %
26.05.2016 21:15 17,3 C 73 % 1013,4 hPa 0,0 l/m 2,5 km/h (1 Bft) O 98 0 min 0,000 mm 0,0 UV-I 0 W/m 12,4 C 17,3 C 3,2 km/h (1 Bft) 100,00 %
26.05.2016 21:16 17,2 C 73 % 1013,4 hPa 0,0 l/m 3,6 km/h (1 Bft) O-SO 105 0 min 0,000 mm 0,0 UV-I 0 W/m 12,3 C 17,2 C 4,8 km/h (1 Bft) 100,00 %
26.05.2016 21:17 17,2 C 73 % 1013,4 hPa 0,0 l/m 2,7 km/h (1 Bft) O-SO 105 0 min 0,000 mm 0,0 UV-I 0 W/m 12,3 C 17,2 C 3,2 km/h (1 Bft) 96,30 %
26.05.2016 21:18 17,2 C 73 % 1013,4 hPa 0,0 l/m 2,0 km/h (1 Bft) O-SO 105 0 min 0,000 mm 0,0 UV-I 0 W/m 12,3 C 17,2 C 3,2 km/h (1 Bft) 95,65 %
26.05.2016 21:19 17,2 C 74 % 1013,5 hPa 0,0 l/m 1,2 km/h (1 Bft) O-SO 105 0 min 0,000 mm 0,0 UV-I 0 W/m 12,5 C 17,2 C 3,2 km/h (1 Bft) 100,00 %
26.05.2016 21:20 17,2 C 75 % 1013,5 hPa 0,0 l/m 0,5 km/h (0 Bft) O-SO 105 0 min 0,000 mm 0,0 UV-I 0 W/m 12,7 C 17,2 C 3,2 km/h (1 Bft) 95,65 %
26.05.2016 21:21 17,2 C 76 % 1013,5 hPa 0,0 l/m 0,3 km/h (0 Bft) O-SO 105 0 min 0,000 mm 0,0 UV-I 0 W/m 12,9 C 17,2 C 1,6 km/h (1 Bft) 100,00 %
26.05.2016 21:22 17,1 C 77 % 1013,5 hPa 0,0 l/m 0,2 km/h (0 Bft) O-SO 105 0 min 0,000 mm 0,0 UV-I 0 W/m 13,0 C 17,1 C 1,6 km/h (1 Bft) 100,00 %
26.05.2016 21:23 17,1 C 76 % 1013,5 hPa 0,0 l/m 1,2 km/h (1 Bft) O-SO 105 0 min 0,000 mm 0,0 UV-I 0 W/m 12,8 C 17,1 C 3,2 km/h (1 Bft) 100,00 %
26.05.2016 21:24 17,1 C 76 % 1013,5 hPa 0,0 l/m 1,5 km/h (1 Bft) O-SO 105 0 min 0,000 mm 0,0 UV-I 0 W/m 12,8 C 17,1 C 3,2 km/h (1 Bft) 96,15 %
26.05.2016 21:25 17,1 C 76 % 1013,5 hPa 0,0 l/m 2,2 km/h (1 Bft) O-SO 105 0 min 0,000 mm 0,0 UV-I 0 W/m 12,8 C 17,1 C 3,2 km/h (1 Bft) 100,00 %
26.05.2016 21:26 17,1 C 76 % 1013,5 hPa 0,0 l/m 1,5 km/h (1 Bft) O-SO 105 0 min 0,000 mm 0,0 UV-I 0 W/m 12,8 C 17,1 C 1,6 km/h (1 Bft) 100,00 %
26.05.2016 21:27 17,1 C 77 % 1013,5 hPa 0,0 l/m 2,0 km/h (1 Bft) O-SO 105 0 min 0,000 mm 0,0 UV-I 0 W/m 13,0 C 17,1 C 4,8 km/h (1 Bft) 100,00 %
26.05.2016 21:28 17,1 C 77 % 1013,5 hPa 0,0 l/m 1,7 km/h (1 Bft) O-SO 106 0 min 0,000 mm 0,0 UV-I 0 W/m 13,0 C 17,1 C 3,2 km/h (1 Bft) 100,00 %
26.05.2016 21:29 17,1 C 76 % 1013,5 hPa 0,0 l/m 0,1 km/h (0 Bft) O-SO 106 0 min 0,000 mm 0,0 UV-I 0 W/m 12,8 C 17,1 C 1,6 km/h (1 Bft) 100,00 %
26.05.2016 21:30 17,1 C 76 % 1013,5 hPa 0,0 l/m 0,1 km/h (0 Bft) O-SO 106 0 min 0,000 mm 0,0 UV-I 0 W/m 12,8 C 17,1 C 1,6 km/h (1 Bft) 100,00 %
26.05.2016 21:31 17,0 C 77 % 1013,5 hPa 0,0 l/m 0,8 km/h (0 Bft) O-SO 106 0 min 0,000 mm 0,0 UV-I 0 W/m 12,9 C 17,0 C 3,2 km/h (1 Bft) 100,00 %
26.05.2016 21:32 17,0 C 76 % 1013,5 hPa 0,0 l/m 0,1 km/h (0 Bft) O-SO 106 0 min 0,000 mm 0,0 UV-I 0 W/m 12,7 C 17,0 C 1,6 km/h (1 Bft) 100,00 %
26.05.2016 21:33 17,0 C 76 % 1013,5 hPa 0,0 l/m 0,1 km/h (0 Bft) O-SO 106 0 min 0,000 mm 0,0 UV-I 0 W/m 12,7 C 17,0 C 1,6 km/h (1 Bft) 100,00 %
26.05.2016 21:34 16,9 C 77 % 1013,5 hPa 0,0 l/m 0,3 km/h (0 Bft) O-SO 106 0 min 0,000 mm 0,0 UV-I 0 W/m 12,8 C 16,9 C 1,6 km/h (1 Bft) 100,00 %
26.05.2016 21:35 16,9 C 77 % 1013,5 hPa 0,0 l/m 0,0 km/h (0 Bft) O-SO 106 0 min 0,000 mm 0,0 UV-I 0 W/m 12,8 C 16,9 C 0,0 km/h (0 Bft) 96,15 %
26.05.2016 21:36 16,8 C 76 % 1013,5 hPa 0,0 l/m 0,0 km/h (0 Bft) O-SO 106 0 min 0,000 mm 0,0 UV-I 0 W/m 12,5 C 16,8 C 0,0 km/h (0 Bft) 100,00 %
26.05.2016 21:37 16,8 C 76 % 1013,6 hPa 0,0 l/m 0,0 km/h (0 Bft) O-SO 106 0 min 0,000 mm 0,0 UV-I 0 W/m 12,5 C 16,8 C 0,0 km/h (0 Bft) 100,00 %
26.05.2016 21:38 16,8 C 77 % 1013,5 hPa 0,0 l/m 0,0 km/h (0 Bft) O-SO 106 0 min 0,000 mm 0,0 UV-I 0 W/m 12,7 C 16,8 C 0,0 km/h (0 Bft) 100,00 %
26.05.2016 21:39 16,8 C 77 % 1013,5 hPa 0,0 l/m 0,0 km/h (0 Bft) O-SO 106 0 min 0,000 mm 0,0 UV-I 0 W/m 12,7 C 16,8 C 0,0 km/h (0 Bft) 100,00 %
26.05.2016 21:40 16,8 C 77 % 1013,5 hPa 0,0 l/m 0,0 km/h (0 Bft) O-SO 106 0 min 0,000 mm 0,0 UV-I 0 W/m 12,7 C 16,8 C 0,0 km/h (0 Bft) 95,83 %
26.05.2016 21:41 16,7 C 78 % 1013,5 hPa 0,0 l/m 0,1 km/h (0 Bft) O-SO 106 0 min 0,000 mm 0,0 UV-I 0 W/m 12,8 C 16,7 C 1,6 km/h (1 Bft) 100,00 %
26.05.2016 21:42 16,7 C 77 % 1013,5 hPa 0,0 l/m 0,8 km/h (0 Bft) O-SO 106 0 min 0,000 mm 0,0 UV-I 0 W/m 12,6 C 16,7 C 1,6 km/h (1 Bft) 100,00 %
26.05.2016 21:43 16,7 C 78 % 1013,5 hPa 0,0 l/m 1,0 km/h (0 Bft) O-SO 106 0 min 0,000 mm 0,0 UV-I 0 W/m 12,8 C 16,7 C 1,6 km/h (1 Bft) 95,65 %
26.05.2016 21:44 16,6 C 78 % 1013,5 hPa 0,0 l/m 0,9 km/h (0 Bft) O-SO 106 0 min 0,000 mm 0,0 UV-I 0 W/m 12,7 C 16,6 C 1,6 km/h (1 Bft) 100,00 %
26.05.2016 21:45 16,6 C 78 % 1013,5 hPa 0,0 l/m 1,9 km/h (1 Bft) O-SO 106 0 min 0,000 mm 0,0 UV-I 0 W/m 12,7 C 16,6 C 3,2 km/h (1 Bft) 95,65 %
26.05.2016 21:46 16,5 C 78 % 1013,5 hPa 0,0 l/m 1,9 km/h (1 Bft) O-SO 106 0 min 0,000 mm 0,0 UV-I 0 W/m 12,6 C 16,5 C 3,2 km/h (1 Bft) 100,00 %
26.05.2016 21:47 16,4 C 79 % 1013,5 hPa 0,0 l/m 2,1 km/h (1 Bft) O-SO 106 0 min 0,000 mm 0,0 UV-I 0 W/m 12,7 C 16,4 C 3,2 km/h (1 Bft) 100,00 %
26.05.2016 21:48 16,4 C 78 % 1013,6 hPa 0,0 l/m 2,1 km/h (1 Bft) O-SO 106 0 min 0,000 mm 0,0 UV-I 0 W/m 12,6 C 16,4 C 3,2 km/h (1 Bft) 100,00 %
26.05.2016 21:49 16,4 C 78 % 1013,6 hPa 0,0 l/m 0,7 km/h (0 Bft) O-SO 106 0 min 0,000 mm 0,0 UV-I 0 W/m 12,6 C 16,4 C 1,6 km/h (1 Bft) 95,65 %
26.05.2016 21:50 16,4 C 78 % 1013,5 hPa 0,0 l/m 0,1 km/h (0 Bft) O-SO 106 0 min 0,000 mm 0,0 UV-I 0 W/m 12,6 C 16,4 C 1,6 km/h (1 Bft) 100,00 %
26.05.2016 21:51 16,3 C 78 % 1013,5 hPa 0,0 l/m 0,0 km/h (0 Bft) O-SO 106 0 min 0,000 mm 0,0 UV-I 0 W/m 12,5 C 16,3 C 0,0 km/h (0 Bft) 100,00 %
26.05.2016 21:52 16,3 C 78 % 1013,5 hPa 0,0 l/m 0,0 km/h (0 Bft) O-SO 106 0 min 0,000 mm 0,0 UV-I 0 W/m 12,5 C 16,3 C 0,0 km/h (0 Bft) 100,00 %
26.05.2016 21:53 16,2 C 78 % 1013,6 hPa 0,0 l/m 0,0 km/h (0 Bft) O-SO 106 0 min 0,000 mm 0,0 UV-I 0 W/m 12,4 C 16,2 C 0,0 km/h (0 Bft) 100,00 %
26.05.2016 21:54 16,1 C 78 % 1013,5 hPa 0,0 l/m 0,0 km/h (0 Bft) O-SO 106 0 min 0,000 mm 0,0 UV-I 0 W/m 12,3 C 16,1 C 0,0 km/h (0 Bft) 100,00 %
26.05.2016 21:55 16,1 C 78 % 1013,6 hPa 0,0 l/m 0,0 km/h (0 Bft) O-SO 106 0 min 0,000 mm 0,0 UV-I 0 W/m 12,3 C 16,1 C 0,0 km/h (0 Bft) 100,00 %
26.05.2016 21:56 16,0 C 78 % 1013,5 hPa 0,0 l/m 0,0 km/h (0 Bft) O-SO 106 0 min 0,000 mm 0,0 UV-I 0 W/m 12,2 C 16,0 C 0,0 km/h (0 Bft) 100,00 %
26.05.2016 21:57 16,0 C 79 % 1013,5 hPa 0,0 l/m 0,0 km/h (0 Bft) O-SO 106 0 min 0,000 mm 0,0 UV-I 0 W/m 12,4 C 16,0 C 0,0 km/h (0 Bft) 100,00 %
26.05.2016 21:58 15,9 C 79 % 1013,6 hPa 0,0 l/m 0,0 km/h (0 Bft) O-SO 106 0 min 0,000 mm 0,0 UV-I 0 W/m 12,3 C 15,9 C 0,0 km/h (0 Bft) 100,00 %
26.05.2016 21:59 15,9 C 78 % 1013,6 hPa 0,0 l/m 0,0 km/h (0 Bft) O-SO 106 0 min 0,000 mm 0,0 UV-I 0 W/m 12,1 C 15,9 C 0,0 km/h (0 Bft) 100,00 %
26.05.2016 22:00 16,0 C 79 % 1013,6 hPa 0,0 l/m 0,0 km/h (0 Bft) O-SO 106 0 min 0,000 mm 0,0 UV-I 0 W/m 12,4 C 16,0 C 0,0 km/h (0 Bft) 100,00 %
26.05.2016 22:02 16,1 C 79 % 1013,6 hPa 0,0 l/m 0,0 km/h (0 Bft) O-SO 106 0 min 0,000 mm 0,0 UV-I 0 W/m 12,5 C 16,1 C 0,0 km/h (0 Bft) 100,00 %
26.05.2016 22:03 16,1 C 79 % 1013,6 hPa 0,0 l/m 0,0 km/h (0 Bft) O-SO 106 0 min 0,000 mm 0,0 UV-I 0 W/m 12,5 C 16,1 C 0,0 km/h (0 Bft) 100,00 %
26.05.2016 22:04 16,2 C 79 % 1013,5 hPa 0,0 l/m 0,0 km/h (0 Bft) O-SO 106 0 min 0,000 mm 0,0 UV-I 0 W/m 12,6 C 16,2 C 0,0 km/h (0 Bft) 100,00 %
26.05.2016 22:05 16,2 C 79 % 1013,5 hPa 0,0 l/m 0,0 km/h (0 Bft) O-SO 106 0 min 0,000 mm 0,0 UV-I 0 W/m 12,6 C 16,2 C 0,0 km/h (0 Bft) 95,83 %
26.05.2016 22:06 16,2 C 79 % 1013,5 hPa 0,0 l/m 0,0 km/h (0 Bft) O-SO 106 0 min 0,000 mm 0,0 UV-I 0 W/m 12,6 C 16,2 C 0,0 km/h (0 Bft) 100,00 %
26.05.2016 22:07 16,2 C 79 % 1013,6 hPa 0,0 l/m 0,0 km/h (0 Bft) O-SO 106 0 min 0,000 mm 0,0 UV-I 0 W/m 12,6 C 16,2 C 0,0 km/h (0 Bft) 96,30 %
26.05.2016 22:08 16,2 C 79 % 1013,5 hPa 0,0 l/m 0,0 km/h (0 Bft) O-SO 106 0 min 0,000 mm 0,0 UV-I 0 W/m 12,6 C 16,2 C 0,0 km/h (0 Bft) 100,00 %
26.05.2016 22:09 16,2 C 79 % 1013,6 hPa 0,0 l/m 0,0 km/h (0 Bft) O-SO 106 0 min 0,000 mm 0,0 UV-I 0 W/m 12,6 C 16,2 C 0,0 km/h (0 Bft) 100,00 %
26.05.2016 22:10 16,1 C 80 % 1013,6 hPa 0,0 l/m 0,8 km/h (0 Bft) O-SO 106 0 min 0,000 mm 0,0 UV-I 0 W/m 12,6 C 16,1 C 1,6 km/h (1 Bft) 100,00 %
26.05.2016 22:11 16,1 C 80 % 1013,6 hPa 0,0 l/m 1,0 km/h (0 Bft) O-SO 106 0 min 0,000 mm 0,0 UV-I 0 W/m 12,6 C 16,1 C 1,6 km/h (1 Bft) 100,00 %
26.05.2016 22:12 16,1 C 80 % 1013,6 hPa 0,0 l/m 1,0 km/h (0 Bft) O-SO 106 0 min 0,000 mm 0,0 UV-I 0 W/m 12,6 C 16,1 C 1,6 km/h (1 Bft) 100,00 %
26.05.2016 22:13 16,0 C 80 % 1013,6 hPa 0,0 l/m 1,0 km/h (0 Bft) O-SO 106 0 min 0,000 mm 0,0 UV-I 0 W/m 12,5 C 16,0 C 1,6 km/h (1 Bft) 96,55 %
26.05.2016 22:14 15,9 C 80 % 1013,6 hPa 0,0 l/m 0,6 km/h (0 Bft) O-SO 106 0 min 0,000 mm 0,0 UV-I 0 W/m 12,5 C 15,9 C 1,6 km/h (1 Bft) 100,00 %
26.05.2016 22:15 15,8 C 80 % 1013,6 hPa 0,0 l/m 0,0 km/h (0 Bft) O-SO 106 0 min 0,000 mm 0,0 UV-I 0 W/m 12,4 C 15,8 C 0,0 km/h (0 Bft) 100,00 %
26.05.2016 22:16 15,7 C 80 % 1013,6 hPa 0,0 l/m 0,1 km/h (0 Bft) O-SO 106 0 min 0,000 mm 0,0 UV-I 0 W/m 12,3 C 15,7 C 1,6 km/h (1 Bft) 100,00 %
26.05.2016 22:17 15,6 C 80 % 1013,6 hPa 0,0 l/m 0,1 km/h (0 Bft) O-SO 106 0 min 0,000 mm 0,0 UV-I 0 W/m 12,2 C 15,6 C 1,6 km/h (1 Bft) 100,00 %
26.05.2016 22:18 15,6 C 80 % 1013,6 hPa 0,0 l/m 1,6 km/h (1 Bft) O-SO 106 0 min 0,000 mm 0,0 UV-I 0 W/m 12,2 C 15,6 C 1,6 km/h (1 Bft) 100,00 %
26.05.2016 22:19 15,5 C 80 % 1013,6 hPa 0,0 l/m 1,5 km/h (1 Bft) O-SO 106 0 min 0,000 mm 0,0 UV-I 0 W/m 12,1 C 15,5 C 1,6 km/h (1 Bft) 100,00 %
26.05.2016 22:20 15,5 C 81 % 1013,6 hPa 0,0 l/m 1,1 km/h (1 Bft) O-SO 106 0 min 0,000 mm 0,0 UV-I 0 W/m 12,3 C 15,5 C 1,6 km/h (1 Bft) 100,00 %
26.05.2016 22:21 15,5 C 81 % 1013,6 hPa 0,0 l/m 0,6 km/h (0 Bft) O-SO 106 0 min 0,000 mm 0,0 UV-I 0 W/m 12,3 C 15,5 C 1,6 km/h (1 Bft) 100,00 %
26.05.2016 22:22 15,5 C 81 % 1013,6 hPa 0,0 l/m 0,5 km/h (0 Bft) O-SO 106 0 min 0,000 mm 0,0 UV-I 0 W/m 12,3 C 15,5 C 1,6 km/h (1 Bft) 100,00 %
26.05.2016 22:23 15,5 C 81 % 1013,6 hPa 0,0 l/m 0,6 km/h (0 Bft) O-SO 106 0 min 0,000 mm 0,0 UV-I 0 W/m 12,3 C 15,5 C 1,6 km/h (1 Bft) 96,55 %
26.05.2016 22:24 15,4 C 81 % 1013,6 hPa 0,0 l/m 0,2 km/h (0 Bft) O-SO 106 0 min 0,000 mm 0,0 UV-I 0 W/m 12,2 C 15,4 C 1,6 km/h (1 Bft) 96,30 %
26.05.2016 22:25 15,4 C 81 % 1013,7 hPa 0,0 l/m 0,0 km/h (0 Bft) O-SO 106 0 min 0,000 mm 0,0 UV-I 0 W/m 12,2 C 15,4 C 0,0 km/h (0 Bft) 100,00 %
26.05.2016 22:26 15,4 C 80 % 1013,7 hPa 0,0 l/m 0,0 km/h (0 Bft) O-SO 106 0 min 0,000 mm 0,0 UV-I 0 W/m 12,0 C 15,4 C 0,0 km/h (0 Bft) 95,83 %
26.05.2016 22:27 15,3 C 80 % 1013,7 hPa 0,0 l/m 0,0 km/h (0 Bft) O-SO 106 0 min 0,000 mm 0,0 UV-I 0 W/m 11,9 C 15,3 C 0,0 km/h (0 Bft) 100,00 %
26.05.2016 22:28 15,3 C 80 % 1013,7 hPa 0,0 l/m 0,0 km/h (0 Bft) O-SO 106 0 min 0,000 mm 0,0 UV-I 0 W/m 11,9 C 15,3 C 0,0 km/h (0 Bft) 95,83 %
26.05.2016 22:29 15,4 C 80 % 1013,7 hPa 0,0 l/m 0,0 km/h (0 Bft) O-SO 106 0 min 0,000 mm 0,0 UV-I 0 W/m 12,0 C 15,4 C 0,0 km/h (0 Bft) 96,15 %
26.05.2016 22:30 15,4 C 80 % 1013,6 hPa 0,0 l/m 0,0 km/h (0 Bft) O-SO 106 0 min 0,000 mm 0,0 UV-I 0 W/m 12,0 C 15,4 C 0,0 km/h (0 Bft) 96,30 %
26.05.2016 22:31 15,4 C 80 % 1013,6 hPa 0,0 l/m 0,0 km/h (0 Bft) O-SO 106 0 min 0,000 mm 0,0 UV-I 0 W/m 12,0 C 15,4 C 0,0 km/h (0 Bft) 95,65 %
26.05.2016 22:32 15,4 C 80 % 1013,7 hPa 0,0 l/m 0,0 km/h (0 Bft) O-SO 106 0 min 0,000 mm 0,0 UV-I 0 W/m 12,0 C 15,4 C 0,0 km/h (0 Bft) 100,00 %
26.05.2016 22:33 15,4 C 81 % 1013,6 hPa 0,0 l/m 0,1 km/h (0 Bft) O-SO 106 0 min 0,000 mm 0,0 UV-I 0 W/m 12,2 C 15,4 C 1,6 km/h (1 Bft) 96,15 %
26.05.2016 22:34 15,3 C 83 % 1013,7 hPa 0,0 l/m 0,8 km/h (0 Bft) O-SO 106 0 min 0,000 mm 0,0 UV-I 0 W/m 12,4 C 15,3 C 1,6 km/h (1 Bft) 100,00 %
26.05.2016 22:35 15,3 C 84 % 1013,6 hPa 0,0 l/m 0,2 km/h (0 Bft) O-SO 106 0 min 0,000 mm 0,0 UV-I 0 W/m 12,6 C 15,3 C 1,6 km/h (1 Bft) 96,67 %
26.05.2016 22:36 15,2 C 84 % 1013,6 hPa 0,0 l/m 0,6 km/h (0 Bft) O-SO 106 0 min 0,000 mm 0,0 UV-I 0 W/m 12,5 C 15,2 C 3,2 km/h (1 Bft) 100,00 %
26.05.2016 22:37 15,2 C 84 % 1013,6 hPa 0,0 l/m 1,3 km/h (1 Bft) O-SO 106 0 min 0,000 mm 0,0 UV-I 0 W/m 12,5 C 15,2 C 1,6 km/h (1 Bft) 96,30 %
26.05.2016 22:38 15,1 C 84 % 1013,6 hPa 0,0 l/m 1,5 km/h (1 Bft) O-SO 106 0 min 0,000 mm 0,0 UV-I 0 W/m 12,4 C 15,1 C 3,2 km/h (1 Bft) 96,15 %
26.05.2016 22:39 15,1 C 83 % 1013,6 hPa 0,0 l/m 2,4 km/h (1 Bft) O-SO 106 0 min 0,000 mm 0,0 UV-I 0 W/m 12,2 C 15,1 C 3,2 km/h (1 Bft) 100,00 %
26.05.2016 22:40 15,1 C 83 % 1013,6 hPa 0,0 l/m 2,1 km/h (1 Bft) O-SO 106 0 min 0,000 mm 0,0 UV-I 0 W/m 12,2 C 15,1 C 3,2 km/h (1 Bft) 96,30 %
26.05.2016 22:41 15,1 C 81 % 1013,6 hPa 0,0 l/m 1,8 km/h (1 Bft) O-SO 106 0 min 0,000 mm 0,0 UV-I 0 W/m 11,9 C 15,1 C 3,2 km/h (1 Bft) 100,00 %
26.05.2016 22:42 15,2 C 80 % 1013,7 hPa 0,0 l/m 1,7 km/h (1 Bft) O-SO 106 0 min 0,000 mm 0,0 UV-I 0 W/m 11,8 C 15,2 C 3,2 km/h (1 Bft) 82,61 %
26.05.2016 22:43 15,3 C 79 % 1013,7 hPa 0,0 l/m 1,9 km/h (1 Bft) O-SO 106 0 min 0,000 mm 0,0 UV-I 0 W/m 11,7 C 15,3 C 3,2 km/h (1 Bft) 100,00 %
26.05.2016 22:44 15,3 C 79 % 1013,6 hPa 0,0 l/m 1,7 km/h (1 Bft) O-SO 106 0 min 0,000 mm 0,0 UV-I 0 W/m 11,7 C 15,3 C 3,2 km/h (1 Bft) 95,65 %
26.05.2016 22:45 15,3 C 79 % 1013,7 hPa 0,0 l/m 0,5 km/h (0 Bft) O-SO 106 0 min 0,000 mm 0,0 UV-I 0 W/m 11,7 C 15,3 C 1,6 km/h (1 Bft) 100,00 %
26.05.2016 22:46 15,3 C 78 % 1013,7 hPa 0,0 l/m 0,0 km/h (0 Bft) O-SO 106 0 min 0,000 mm 0,0 UV-I 0 W/m 11,5 C 15,3 C 0,0 km/h (0 Bft) 96,15 %
26.05.2016 22:47 15,3 C 78 % 1013,6 hPa 0,0 l/m 0,9 km/h (0 Bft) O-SO 106 0 min 0,000 mm 0,0 UV-I 0 W/m 11,5 C 15,3 C 3,2 km/h (1 Bft) 100,00 %
26.05.2016 22:48 15,3 C 78 % 1013,7 hPa 0,0 l/m 1,2 km/h (1 Bft) O-SO 106 0 min 0,000 mm 0,0 UV-I 0 W/m 11,5 C 15,3 C 3,2 km/h (1 Bft) 96,88 %
26.05.2016 22:49 15,3 C 77 % 1013,7 hPa 0,0 l/m 3,5 km/h (1 Bft) O 91 0 min 0,000 mm 0,0 UV-I 0 W/m 11,3 C 15,3 C 6,4 km/h (2 Bft) 95,83 %
26.05.2016 22:50 15,3 C 78 % 1013,6 hPa 0,0 l/m 3,7 km/h (1 Bft) O 92 0 min 0,000 mm 0,0 UV-I 0 W/m 11,5 C 15,3 C 4,8 km/h (1 Bft) 100,00 %
26.05.2016 22:51 15,3 C 78 % 1013,7 hPa 0,0 l/m 2,7 km/h (1 Bft) O 92 0 min 0,000 mm 0,0 UV-I 0 W/m 11,5 C 15,3 C 3,2 km/h (1 Bft) 93,33 %
26.05.2016 22:52 15,3 C 78 % 1013,7 hPa 0,0 l/m 1,4 km/h (1 Bft) O 92 0 min 0,000 mm 0,0 UV-I 0 W/m 11,5 C 15,3 C 3,2 km/h (1 Bft) 100,00 %
26.05.2016 22:53 15,2 C 79 % 1013,7 hPa 0,0 l/m 0,2 km/h (0 Bft) O 92 0 min 0,000 mm 0,0 UV-I 0 W/m 11,6 C 15,2 C 1,6 km/h (1 Bft) 96,15 %
26.05.2016 22:54 15,2 C 80 % 1013,7 hPa 0,0 l/m 0,0 km/h (0 Bft) O 92 0 min 0,000 mm 0,0 UV-I 0 W/m 11,8 C 15,2 C 0,0 km/h (0 Bft) 95,83 %
26.05.2016 22:55 15,1 C 82 % 1013,7 hPa 0,0 l/m 0,0 km/h (0 Bft) O 92 0 min 0,000 mm 0,0 UV-I 0 W/m 12,0 C 15,1 C 0,0 km/h (0 Bft) 92,31 %
26.05.2016 22:56 15,0 C 82 % 1013,7 hPa 0,0 l/m 0,7 km/h (0 Bft) O 92 0 min 0,000 mm 0,0 UV-I 0 W/m 12,0 C 15,0 C 1,6 km/h (1 Bft) 95,83 %
26.05.2016 22:57 14,9 C 83 % 1013,7 hPa 0,0 l/m 1,1 km/h (1 Bft) O 92 0 min 0,000 mm 0,0 UV-I 0 W/m 12,0 C 14,9 C 1,6 km/h (1 Bft) 100,00 %
26.05.2016 22:58 14,8 C 83 % 1013,7 hPa 0,0 l/m 1,0 km/h (0 Bft) O 92 0 min 0,000 mm 0,0 UV-I 0 W/m 11,9 C 14,8 C 1,6 km/h (1 Bft) 100,00 %
26.05.2016 22:59 14,8 C 83 % 1013,7 hPa 0,0 l/m 0,9 km/h (0 Bft) O 92 0 min 0,000 mm 0,0 UV-I 0 W/m 11,9 C 14,8 C 1,6 km/h (1 Bft) 100,00 %
26.05.2016 23:00 14,7 C 83 % 1013,7 hPa 0,0 l/m 0,1 km/h (0 Bft) O 92 0 min 0,000 mm 0,0 UV-I 0 W/m 11,8 C 14,7 C 1,6 km/h (1 Bft) 91,67 %
26.05.2016 23:02 14,4 C 84 % 1013,7 hPa 0,0 l/m 1,0 km/h (0 Bft) O 92 0 min 0,000 mm 0,0 UV-I 0 W/m 11,7 C 14,4 C 1,6 km/h (1 Bft) 98,11 %
26.05.2016 23:03 14,2 C 84 % 1013,7 hPa 0,0 l/m 0,4 km/h (0 Bft) O 92 0 min 0,000 mm 0,0 UV-I 0 W/m 11,5 C 14,2 C 1,6 km/h (1 Bft) 100,00 %
26.05.2016 23:04 14,2 C 85 % 1013,7 hPa 0,0 l/m 0,1 km/h (0 Bft) O 92 0 min 0,000 mm 0,0 UV-I 0 W/m 11,7 C 14,2 C 1,6 km/h (1 Bft) 100,00 %
26.05.2016 23:05 14,1 C 86 % 1013,7 hPa 0,0 l/m 0,0 km/h (0 Bft) O 92 0 min 0,000 mm 0,0 UV-I 0 W/m 11,8 C 14,1 C 0,0 km/h (0 Bft) 100,00 %
26.05.2016 23:06 14,1 C 86 % 1013,7 hPa 0,0 l/m 0,0 km/h (0 Bft) O 92 0 min 0,000 mm 0,0 UV-I 0 W/m 11,8 C 14,1 C 0,0 km/h (0 Bft) 91,67 %
26.05.2016 23:07 14,1 C 86 % 1013,7 hPa 0,0 l/m 0,0 km/h (0 Bft) O 92 0 min 0,000 mm 0,0 UV-I 0 W/m 11,8 C 14,1 C 0,0 km/h (0 Bft) 97,56 %
26.05.2016 23:08 14,0 C 86 % 1013,8 hPa 0,0 l/m 0,1 km/h (0 Bft) O 92 0 min 0,000 mm 0,0 UV-I 0 W/m 11,7 C 14,0 C 1,6 km/h (1 Bft) 95,83 %
26.05.2016 23:09 14,0 C 86 % 1013,7 hPa 0,0 l/m 0,7 km/h (0 Bft) O 92 0 min 0,000 mm 0,0 UV-I 0 W/m 11,7 C 14,0 C 1,6 km/h (1 Bft) 100,00 %
26.05.2016 23:10 13,9 C 86 % 1013,8 hPa 0,0 l/m 2,4 km/h (1 Bft) O 92 0 min 0,000 mm 0,0 UV-I 0 W/m 11,6 C 13,9 C 3,2 km/h (1 Bft) 95,83 %
26.05.2016 23:11 14,0 C 86 % 1013,8 hPa 0,0 l/m 3,1 km/h (1 Bft) O 92 0 min 0,000 mm 0,0 UV-I 0 W/m 11,7 C 14,0 C 4,8 km/h (1 Bft) 100,00 %
26.05.2016 23:12 13,9 C 86 % 1013,8 hPa 0,0 l/m 4,4 km/h (1 Bft) O 92 0 min 0,000 mm 0,0 UV-I 0 W/m 11,6 C 13,9 C 4,8 km/h (1 Bft) 95,83 %
26.05.2016 23:13 13,9 C 86 % 1013,9 hPa 0,0 l/m 4,7 km/h (1 Bft) O 81 0 min 0,000 mm 0,0 UV-I 0 W/m 11,6 C 13,9 C 6,4 km/h (2 Bft) 100,00 %
26.05.2016 23:14 13,9 C 86 % 1013,8 hPa 0,0 l/m 6,0 km/h (2 Bft) O-NO 72 0 min 0,000 mm 0,0 UV-I 0 W/m 11,6 C 13,9 C 6,4 km/h (2 Bft) 100,00 %
26.05.2016 23:15 13,9 C 86 % 1013,8 hPa 0,0 l/m 5,8 km/h (2 Bft) O-NO 63 0 min 0,000 mm 0,0 UV-I 0 W/m 11,6 C 13,9 C 6,4 km/h (2 Bft) 100,00 %
26.05.2016 23:16 14,2 C 86 % 1013,9 hPa 0,0 l/m 6,5 km/h (2 Bft) NO 46 0 min 0,000 mm 0,0 UV-I 0 W/m 11,9 C 14,2 C 8,0 km/h (2 Bft) 100,00 %
26.05.2016 23:17 14,3 C 86 % 1013,9 hPa 0,0 l/m 5,1 km/h (1 Bft) NO 45 0 min 0,000 mm 0,0 UV-I 0 W/m 12,0 C 14,3 C 6,4 km/h (2 Bft) 100,00 %
26.05.2016 23:18 14,7 C 84 % 1013,8 hPa 0,0 l/m 3,5 km/h (1 Bft) NO 45 0 min 0,000 mm 0,0 UV-I 0 W/m 12,0 C 14,7 C 4,8 km/h (1 Bft) 96,15 %
26.05.2016 23:19 14,8 C 84 % 1013,8 hPa 0,0 l/m 4,5 km/h (1 Bft) NO 53 0 min 0,000 mm 0,0 UV-I 0 W/m 12,1 C 14,8 C 4,8 km/h (1 Bft) 100,00 %
26.05.2016 23:20 15,0 C 83 % 1013,9 hPa 0,0 l/m 5,4 km/h (1 Bft) O-NO 58 0 min 0,000 mm 0,0 UV-I 0 W/m 12,1 C 15,0 C 6,4 km/h (2 Bft) 100,00 %
26.05.2016 23:21 15,2 C 82 % 1013,9 hPa 0,0 l/m 5,1 km/h (1 Bft) O-NO 64 0 min 0,000 mm 0,0 UV-I 0 W/m 12,1 C 15,2 C 6,4 km/h (2 Bft) 93,33 %
26.05.2016 23:22 15,3 C 82 % 1013,9 hPa 0,0 l/m 5,5 km/h (1 Bft) O-NO 70 0 min 0,000 mm 0,0 UV-I 0 W/m 12,2 C 15,3 C 6,4 km/h (2 Bft) 100,00 %
26.05.2016 23:23 15,4 C 81 % 1013,8 hPa 0,0 l/m 5,7 km/h (1 Bft) O-NO 70 0 min 0,000 mm 0,0 UV-I 0 W/m 12,2 C 15,4 C 8,0 km/h (2 Bft) 100,00 %
26.05.2016 23:24 15,5 C 80 % 1013,8 hPa 0,0 l/m 5,2 km/h (1 Bft) O-NO 69 0 min 0,000 mm 0,0 UV-I 0 W/m 12,1 C 15,5 C 6,4 km/h (2 Bft) 91,30 %
26.05.2016 23:25 15,6 C 80 % 1013,8 hPa 0,0 l/m 5,2 km/h (1 Bft) O-NO 69 0 min 0,000 mm 0,0 UV-I 0 W/m 12,2 C 15,6 C 6,4 km/h (2 Bft) 95,83 %
26.05.2016 23:26 15,7 C 79 % 1013,8 hPa 0,0 l/m 4,4 km/h (1 Bft) O-NO 69 0 min 0,000 mm 0,0 UV-I 0 W/m 12,1 C 15,7 C 4,8 km/h (1 Bft) 100,00 %
26.05.2016 23:27 15,8 C 79 % 1013,9 hPa 0,0 l/m 3,8 km/h (1 Bft) O-NO 69 0 min 0,000 mm 0,0 UV-I 0 W/m 12,2 C 15,8 C 4,8 km/h (1 Bft) 100,00 %
26.05.2016 23:28 16,0 C 78 % 1013,8 hPa 0,0 l/m 3,8 km/h (1 Bft) O-NO 69 0 min 0,000 mm 0,0 UV-I 0 W/m 12,2 C 16,0 C 4,8 km/h (1 Bft) 95,65 %
26.05.2016 23:29 16,1 C 78 % 1013,8 hPa 0,0 l/m 4,1 km/h (1 Bft) O-NO 69 0 min 0,000 mm 0,0 UV-I 0 W/m 12,3 C 16,1 C 4,8 km/h (1 Bft) 100,00 %
26.05.2016 23:30 16,2 C 77 % 1013,8 hPa 0,0 l/m 4,1 km/h (1 Bft) O-NO 69 0 min 0,000 mm 0,0 UV-I 0 W/m 12,2 C 16,2 C 4,8 km/h (1 Bft) 91,30 %
26.05.2016 23:31 16,3 C 77 % 1013,8 hPa 0,0 l/m 3,6 km/h (1 Bft) O-NO 69 0 min 0,000 mm 0,0 UV-I 0 W/m 12,3 C 16,3 C 4,8 km/h (1 Bft) 100,00 %
26.05.2016 23:32 16,3 C 77 % 1013,8 hPa 0,0 l/m 4,4 km/h (1 Bft) O-NO 69 0 min 0,000 mm 0,0 UV-I 0 W/m 12,3 C 16,3 C 4,8 km/h (1 Bft) 100,00 %
26.05.2016 23:33 16,3 C 77 % 1013,8 hPa 0,0 l/m 3,4 km/h (1 Bft) O-NO 69 0 min 0,000 mm 0,0 UV-I 0 W/m 12,3 C 16,3 C 4,8 km/h (1 Bft) 100,00 %
26.05.2016 23:34 16,2 C 77 % 1013,8 hPa 0,0 l/m 3,7 km/h (1 Bft) O-NO 69 0 min 0,000 mm 0,0 UV-I 0 W/m 12,2 C 16,2 C 4,8 km/h (1 Bft) 100,00 %
26.05.2016 23:35 15,9 C 77 % 1013,8 hPa 0,0 l/m 2,6 km/h (1 Bft) O-NO 69 0 min 0,000 mm 0,0 UV-I 0 W/m 11,9 C 15,9 C 3,2 km/h (1 Bft) 100,00 %
26.05.2016 23:36 15,6 C 79 % 1013,7 hPa 0,0 l/m 3,0 km/h (1 Bft) O-NO 69 0 min 0,000 mm 0,0 UV-I 0 W/m 12,0 C 15,6 C 4,8 km/h (1 Bft) 100,00 %
26.05.2016 23:37 15,3 C 80 % 1013,7 hPa 0,0 l/m 3,3 km/h (1 Bft) O-NO 69 0 min 0,000 mm 0,0 UV-I 0 W/m 11,9 C 15,3 C 4,8 km/h (1 Bft) 100,00 %
26.05.2016 23:38 15,2 C 80 % 1013,7 hPa 0,0 l/m 3,6 km/h (1 Bft) O-NO 69 0 min 0,000 mm 0,0 UV-I 0 W/m 11,8 C 15,2 C 4,8 km/h (1 Bft) 100,00 %
26.05.2016 23:39 15,1 C 81 % 1013,7 hPa 0,0 l/m 4,3 km/h (1 Bft) O-NO 70 0 min 0,000 mm 0,0 UV-I 0 W/m 11,9 C 15,1 C 6,4 km/h (2 Bft) 100,00 %
26.05.2016 23:40 14,9 C 82 % 1013,7 hPa 0,0 l/m 4,1 km/h (1 Bft) O-NO 70 0 min 0,000 mm 0,0 UV-I 0 W/m 11,9 C 14,9 C 4,8 km/h (1 Bft) 100,00 %
26.05.2016 23:41 14,8 C 83 % 1013,7 hPa 0,0 l/m 4,3 km/h (1 Bft) O-NO 70 0 min 0,000 mm 0,0 UV-I 0 W/m 11,9 C 14,8 C 6,4 km/h (2 Bft) 98,51 %
26.05.2016 23:42 14,8 C 84 % 1013,7 hPa 0,0 l/m 3,3 km/h (1 Bft) O-NO 70 0 min 0,000 mm 0,0 UV-I 0 W/m 12,1 C 14,8 C 4,8 km/h (1 Bft) 98,11 %
26.05.2016 23:43 14,7 C 84 % 1013,7 hPa 0,0 l/m 4,0 km/h (1 Bft) O-NO 70 0 min 0,000 mm 0,0 UV-I 0 W/m 12,0 C 14,7 C 4,8 km/h (1 Bft) 100,00 %
26.05.2016 23:44 14,7 C 84 % 1013,7 hPa 0,0 l/m 2,0 km/h (1 Bft) O-NO 70 0 min 0,000 mm 0,0 UV-I 0 W/m 12,0 C 14,7 C 3,2 km/h (1 Bft) 100,00 %
26.05.2016 23:45 14,7 C 84 % 1013,8 hPa 0,0 l/m 1,9 km/h (1 Bft) O-NO 70 0 min 0,000 mm 0,0 UV-I 0 W/m 12,0 C 14,7 C 3,2 km/h (1 Bft) 100,00 %
26.05.2016 23:46 14,6 C 84 % 1013,7 hPa 0,0 l/m 2,2 km/h (1 Bft) O-NO 70 0 min 0,000 mm 0,0 UV-I 0 W/m 11,9 C 14,6 C 3,2 km/h (1 Bft) 100,00 %
26.05.2016 23:47 14,6 C 84 % 1013,8 hPa 0,0 l/m 1,4 km/h (1 Bft) O-NO 70 0 min 0,000 mm 0,0 UV-I 0 W/m 11,9 C 14,6 C 3,2 km/h (1 Bft) 100,00 %
26.05.2016 23:48 14,5 C 84 % 1013,8 hPa 0,0 l/m 1,5 km/h (1 Bft) O-NO 70 0 min 0,000 mm 0,0 UV-I 0 W/m 11,8 C 14,5 C 3,2 km/h (1 Bft) 100,00 %
26.05.2016 23:49 14,5 C 84 % 1013,8 hPa 0,0 l/m 0,9 km/h (0 Bft) O-NO 70 0 min 0,000 mm 0,0 UV-I 0 W/m 11,8 C 14,5 C 1,6 km/h (1 Bft) 100,00 %
26.05.2016 23:50 14,4 C 85 % 1013,8 hPa 0,0 l/m 2,1 km/h (1 Bft) O-NO 70 0 min 0,000 mm 0,0 UV-I 0 W/m 11,9 C 14,4 C 3,2 km/h (1 Bft) 100,00 %
26.05.2016 23:51 14,4 C 85 % 1013,8 hPa 0,0 l/m 1,3 km/h (1 Bft) O-NO 70 0 min 0,000 mm 0,0 UV-I 0 W/m 11,9 C 14,4 C 3,2 km/h (1 Bft) 100,00 %
26.05.2016 23:52 14,4 C 85 % 1013,8 hPa 0,0 l/m 0,7 km/h (0 Bft) O-NO 70 0 min 0,000 mm 0,0 UV-I 0 W/m 11,9 C 14,4 C 1,6 km/h (1 Bft) 100,00 %
26.05.2016 23:53 14,3 C 85 % 1013,8 hPa 0,0 l/m 0,0 km/h (0 Bft) O-NO 70 0 min 0,000 mm 0,0 UV-I 0 W/m 11,8 C 14,3 C 0,0 km/h (0 Bft) 100,00 %
26.05.2016 23:54 14,3 C 85 % 1013,8 hPa 0,0 l/m 0,1 km/h (0 Bft) O-NO 70 0 min 0,000 mm 0,0 UV-I 0 W/m 11,8 C 14,3 C 1,6 km/h (1 Bft) 100,00 %
26.05.2016 23:55 14,2 C 86 % 1013,8 hPa 0,0 l/m 1,8 km/h (1 Bft) O-NO 70 0 min 0,000 mm 0,0 UV-I 0 W/m 11,9 C 14,2 C 3,2 km/h (1 Bft) 96,30 %
26.05.2016 23:56 14,1 C 86 % 1013,8 hPa 0,0 l/m 1,9 km/h (1 Bft) O-NO 70 0 min 0,000 mm 0,0 UV-I 0 W/m 11,8 C 14,1 C 3,2 km/h (1 Bft) 100,00 %
26.05.2016 23:57 14,0 C 86 % 1013,8 hPa 0,0 l/m 1,6 km/h (1 Bft) O-NO 70 0 min 0,000 mm 0,0 UV-I 0 W/m 11,7 C 14,0 C 1,6 km/h (1 Bft) 100,00 %
26.05.2016 23:58 13,9 C 86 % 1013,8 hPa 0,0 l/m 0,8 km/h (0 Bft) O-NO 70 0 min 0,000 mm 0,0 UV-I 0 W/m 11,6 C 13,9 C 1,6 km/h (1 Bft) 100,00 %
26.05.2016 23:59 13,9 C 87 % 1013,8 hPa 0,0 l/m 0,4 km/h (0 Bft) O-NO 70 0 min 0,000 mm 0,0 UV-I 0 W/m 11,8 C 13,9 C 1,6 km/h (1 Bft) 100,00 %
_ Min-Zeit 06:05 17:55 20:12 - 08:34 - - - - - - 05:52 04:43 08:34 22:42
Minimum _ 10,3 C 44 % 1013,0 hPa - 0,0 km/h (0 Bft) - - - - - - 9,8 C 9,8 C 0,0 km/h (0 Bft) 82,61 %
_ Max-Zeit 17:21 06:08 08:43 00:00 07:33 - - 12:14 14:00 13:17 10:49 10:52 17:21 15:40 00:00
Maximum _ 23,3 C 97 % 1015,9 hPa 0,0 l/m 8,4 km/h
S-SW (2 Bft)
- - 4 min 0,534 mm 6,2 UV-I 1052 W/m 15,5 C 23,3 C 14,5 km/h
N-NW (3 Bft)
100,00 %
Durchschnitt _ 16,7 C 76 % 1014,5 hPa #0,0 l/m 3,2 km/h (1 Bft) S - #12:30 h #4,496 mm 3,4 UV-I 487 W/m 12,0 C 16,7 C 5,0 km/h (1 Bft) 98,59 %